GFSCGP_prec_cloud_003.txt.gz
Cloud_Cover
100 100 97 100 5 57 1 0 5 5 100 100 69 8 5 95 5 5 5 5 5 11 51 100 98 9 7 9 33 7 5 0 0 0 0 0 0 0 2 5 0 0 0 0
95 57 100 7 19 18 0 0 5 23 97 100 68 5 5 21 18 24 22 5 5 22 51 9 5 5 3 0 3 0 4 0 0 0 0 0 0 0 0 0 0 0 0 0
26 89 10 96 53 4 0 0 5 86 86 96 14 46 5 7 100 98 26 33 5 5 7 5 3 0 0 0 0 0 0 0 0 0 1 4 5 5 2 0 0 0 0 0
77 94 100 13 5 0 0 0 5 5 58 75 6 6 45 5 40 67 100 85 5 7 5 0 0 0 0 0 0 0 0 0 4 5 5 5 5 5 5 5 5 5 5 2
100 92 58 5 3 0 0 0 5 28 99 23 6 72 5 5 5 5 0 0 0 0 0 0 0 0 0 0 0 0 0 5 0 0 5 5 6 5 5 0 2 5 4 1
47 42 47 5 4 2 0 0 3 5 99 15 79 39 5 13 2 2 0 0 0 0 0 1 0 0 0 0 5 4 2 5 5 5 5 5 2 5 4 5 5 5 6 6
70 37 5 5 5 5 0 3 5 5 96 95 81 52 0 0 0 0 0 0 0 0 4 5 5 5 5 5 5 5 5 5 5 5 5 1 5 5 5 5 14 69 73 5
5 16 5 5 16 76 8 1 8 5 100 100 86 9 0 0 0 0 0 0 0 0 0 0 5 5 5 5 5 5 5 5 5 5 5 5 5 5 5 5 5 5 1 5
48 22 6 35 93 96 1 76 77 33 100 100 100 15 5 0 0 0 0 5 5 5 5 2 3 5 4 5 5 5 5 5 5 5 5 5 5 4 0 5 5 5 29 12
84 92 22 26 100 25 74 100 100 100 100 100 53 5 5 4 1 5 16 5 5 5 5 5 1 3 6 10 19 24 34 12 5 5 5 5 5 12 5 5 5 5 20 56
97 98 100 100 100 100 100 100 100 100 100 100 12 12 5 5 5 61 83 93 11 5 1 4 5 5 46 79 49 5 5 10 64 15 5 5 3 5 5 10 46 63 37 22
100 100 100 100 100 100 100 100 100 100 100 85 62 19 44 7 40 91 42 5 5 5 6 56 70 43 6 31 100 100 31 12 47 93 49 44 40 34 51 94 99 92 76 49
100 100 100 100 100 100 100 100 100 100 96 100 100 99 44 5 81 96 87 64 70 83 85 14 6 5 5 5 26 14 88 75 21 51 82 100 100 98 64 42 38 15 5 5
100 100 100 100 100 100 100 100 99 100 100 100 100 100 100 86 84 100 98 76 86 98 85 38 10 5 5 5 6 7 10 11 20 32 11 29 76 64 93 46 4 5 4 1
100 100 100 100 100 100 100 100 100 100 100 100 100 100 100 100 69 58 94 24 8 5 5 5 7 31 61 91 89 92 81 11 60 96 51 10 5 2 1 0 0 0 0 0
100 100 100 100 100 100 100 100 100 100 100 100 100 100 96 100 100 100 51 5 5 5 5 9 64 93 82 67 54 17 5 5 5 5 5 5 4 0 0 0 0 2 4 5
100 100 100 100 100 100 100 66 16 5 20 5 33 100 100 88 57 58 76 100 51 76 98 97 28 5 5 5 5 5 5 5 5 5 5 5 5 4 4 4 3 4 5 5
100 100 65 100 100 100 52 60 70 74 72 93 100 100 100 100 100 96 75 38 79 20 5 6 13 28 5 5 5 5 19 12 5 5 5 5 5 2 0 0 1 1 4 5
43 100 37 60 100 100 100 100 100 100 100 89 99 91 100 74 12 5 5 5 5 5 5 28 71 68 96 58 88 65 7 5 5 5 5 5 5 0 0 0 0 2 0 0
60 33 8 13 8 53 84 78 48 98 99 96 24 4 5 5 5 5 5 5 28 54 93 97 99 29 30 70 12 23 17 5 5 5 5 5 5 5 0 0 0 0 0 0
5 5 5 7 49 27 62 28 23 21 22 6 18 6 5 5 5 6 58 72 80 98 100 98 89 96 5 5 5 5 5 5 5 5 5 5 5 3 0 0 0 0 0 0
7 34 49 100 100 100 6 5 24 14 5 5 5 24 49 52 8 11 90 79 95 100 92 98 97 33 5 43 5 5 5 5 5 5 5 5 1 0 0 0 0 0 0 0
47 5 33 82 74 5 3 2 3 5 5 4 5 5 5 83 98 100 100 98 94 34 95 100 100 56 88 44 5 5 5 5 2 5 5 5 0 0 0 0 0 0 0 0
7 3 29 69 30 2 1 4 2 1 1 1 4 5 36 66 68 41 93 100 100 100 100 100 90 100 100 56 75 96 54 5 5 5 2 0 0 0 0 0 0 0 0 0
5 5 5 5 3 3 2 4 5 5 4 4 5 5 5 5 5 5 29 99 100 100 100 94 100 100 95 87 93 100 31 5 4 0 0 0 0 0 0 0 0 0 0 5
3 2 4 4 1 2 0 3 4 5 5 5 5 5 4 0 3 19 99 100 100 100 94 99 99 100 85 45 21 30 5 2 0 0 0 0 0 0 0 0 0 0 4 5

GFSCGP_prec_cloud_006.txt.gz
Cloud_Cover
100 100 90 100 5 8 69 17 4 0 0 1 23 14 16 53 100 76 64 52 5 5 0 2 2 1 5 2 0 5 68 100 100 100 16 18 1 0 0 0 0 0 0 5
100 97 31 100 16 14 81 5 0 0 0 1 70 49 99 15 100 94 82 97 84 48 7 5 7 5 5 8 27 58 88 72 9 5 5 1 0 0 0 1 4 0 4 0
100 100 90 12 36 92 74 5 0 0 0 0 5 100 100 24 92 100 70 93 100 43 8 5 19 36 42 49 46 5 5 5 4 7 52 0 0 3 1 5 5 5 5 5
100 100 14 100 52 97 8 0 0 0 0 0 42 100 65 42 66 5 47 100 100 100 100 84 16 5 47 72 100 52 5 2 5 3 2 0 4 4 0 5 5 5 5 5
20 6 39 100 15 5 3 0 0 0 0 0 7 100 40 100 72 7 5 14 85 98 38 5 5 5 51 65 7 0 0 0 0 0 0 0 5 5 5 13 15 22 19 5
38 85 65 10 5 5 5 0 0 0 2 5 26 100 55 85 4 0 0 5 4 1 0 1 5 5 7 0 0 0 0 0 0 0 4 5 5 21 46 35 52 44 31 24
72 12 63 5 14 5 1 0 0 0 4 3 51 100 100 23 4 0 0 4 0 0 0 0 0 0 0 0 0 0 0 3 5 5 5 5 34 44 66 49 15 5 5 5
62 93 94 5 5 0 0 0 0 0 1 5 50 100 100 44 2 0 0 0 0 0 0 0 0 0 0 0 5 0 5 5 5 16 80 99 100 38 5 5 5 5 5 5
99 62 5 5 5 0 0 0 0 0 0 2 74 100 100 87 0 3 4 0 0 0 0 0 0 0 5 37 5 5 5 5 5 5 5 5 5 5 5 5 5 5 5 4
97 47 5 5 5 1 0 0 0 0 3 31 100 100 100 74 30 5 5 0 0 0 0 4 5 5 14 10 5 5 5 5 5 5 5 5 5 4 5 5 6 5 5 6
98 11 5 5 0 2 5 0 3 3 43 92 100 100 100 89 100 76 5 3 1 0 5 6 12 5 5 5 5 42 46 5 5 26 19 7 45 75 96 90 69 60 18 1
56 84 31 85 51 5 5 52 65 100 90 100 100 100 100 100 100 100 94 34 5 5 5 5 5 5 5 66 56 80 93 58 28 23 33 56 57 21 14 22 22 51 96 99
76 100 89 5 18 5 65 100 100 100 92 100 100 100 100 100 98 100 100 100 99 96 100 100 95 70 82 66 41 20 66 90 68 61 28 26 6 16 44 16 24 25 5 4
100 100 100 100 100 100 99 98 90 100 100 100 100 100 100 100 100 100 100 100 100 100 100 100 100 100 100 100 100 88 68 29 16 5 5 12 85 100 94 41 17 0 0 0
100 100 100 28 5 39 86 100 100 100 100 100 100 100 100 100 100 100 100 100 100 100 100 100 100 100 79 46 11 5 5 5 8 70 97 79 17 4 4 3 0 0 0 0
100 100 100 100 100 100 100 100 100 100 100 100 100 100 100 100 100 100 100 70 5 3 0 0 0 1 5 5 5 5 22 12 6 5 5 5 5 5 5 2 0 0 0 0
100 100 100 100 100 100 100 100 100 100 100 100 100 100 100 100 46 5 5 5 5 0 2 5 30 25 33 5 5 5 5 5 5 5 5 5 5 5 5 0 0 0 0 0
100 100 100 100 100 67 98 82 97 81 100 100 100 100 100 84 10 5 5 4 2 5 8 24 5 5 5 26 5 72 5 5 5 5 5 5 5 4 1 0 0 0 0 0
100 100 100 100 100 100 100 96 100 100 100 100 100 100 42 11 5 5 4 4 5 3 3 4 5 14 18 78 99 97 18 5 5 5 5 5 5 4 1 0 0 0 0 0
100 100 100 100 100 100 100 100 100 100 100 96 24 13 5 5 5 5 5 2 2 2 5 88 71 89 100 99 64 5 5 5 5 5 5 5 5 0 0 0 0 0 0 0
98 99 100 84 100 100 100 100 66 57 6 5 5 5 3 2 3 4 5 5 5 5 12 54 99 96 66 100 52 50 72 39 5 5 5 5 5 5 2 1 0 0 0 0
39 38 48 75 48 12 15 13 10 5 5 5 4 3 5 5 5 5 5 5 6 43 75 92 100 87 48 100 85 91 40 5 5 5 5 5 5 5 1 0 0 1 2 3
10 43 9 18 13 8 16 83 85 5 5 6 12 56 22 5 5 4 5 5 57 97 100 100 100 100 100 100 96 9 5 5 5 5 5 5 4 5 5 34 20 5 5 1
29 77 100 71 34 44 73 94 82 59 5 7 10 5 5 4 5 5 0 6 84 87 100 100 100 100 99 86 89 5 5 5 3 0 0 4 5 14 75 45 3 0 0 3
10 98 100 99 14 5 5 23 62 77 65 38 9 5 5 5 5 5 8 6 46 100 100 100 100 93 95 50 5 4 3 5 0 1 5 24 10 5 2 0 0 0 3 65
73 100 99 86 44 7 5 5 5 5 5 5 5 3 1 2 5 17 82 98 16 82 100 78 45 5 23 26 4 4 5 0 0 0 1 2 0 0 0 0 0 0 5 18

GFSCGP_prec_cloud_009.txt.gz
Cloud_Cover
100 100 57 1 88 2 62 5 5 5 4 0 0 0 0 69 41 67 100 100 93 51 5 2 0 0 0 0 0 0 0 0 2 14 62 98 100 82 73 72 5 0 0 0
100 60 16 29 3 91 92 5 5 5 4 0 0 0 5 100 97 77 54 44 10 8 5 5 0 0 0 0 2 8 10 5 5 8 15 10 14 16 37 15 5 0 0 0
88 100 77 63 77 34 23 5 5 4 0 0 0 0 0 66 95 21 19 26 97 100 46 5 4 17 26 30 5 15 49 74 51 25 13 9 6 5 4 5 3 0 2 0
98 28 74 100 100 88 99 53 68 5 0 0 0 0 0 42 100 6 76 100 83 100 100 100 100 100 100 66 5 5 5 14 56 50 5 5 13 8 5 1 0 0 0 2
100 99 48 100 15 25 7 82 22 5 0 0 0 4 5 31 28 5 6 100 82 8 94 70 68 78 52 5 5 24 19 98 88 26 5 1 0 1 0 0 0 5 2 5
10 10 76 22 100 64 95 76 5 2 2 3 2 4 0 88 11 5 5 99 100 60 4 5 4 8 62 13 1 2 42 70 18 0 0 0 0 4 17 86 100 100 90 52
95 70 91 100 100 81 24 65 18 1 3 1 3 8 2 94 5 4 0 2 4 2 0 0 0 0 0 0 0 0 0 0 0 0 3 5 5 6 59 41 87 100 99 100
100 100 30 100 98 26 5 5 5 0 0 0 0 5 0 100 9 5 5 0 0 0 0 0 0 0 0 0 0 0 0 0 0 5 5 5 15 67 58 66 54 48 40 9
100 10 37 5 5 5 5 5 1 0 3 4 0 0 0 100 20 5 0 5 1 0 0 0 0 0 0 0 0 0 2 5 5 5 9 34 5 11 72 69 62 85 55 49
68 22 56 42 11 9 5 5 0 2 2 5 0 0 0 85 60 5 1 5 5 2 0 1 0 0 0 0 0 4 5 5 5 5 6 61 87 72 47 12 16 42 31 24
5 5 23 48 51 5 5 2 0 0 0 0 0 0 3 24 90 25 5 5 5 5 5 5 5 0 1 4 9 5 5 30 22 41 68 74 76 42 25 16 6 53 46 63
46 90 37 5 20 5 5 1 0 0 0 0 0 3 0 10 100 19 100 81 5 48 72 5 5 5 32 6 5 36 54 64 46 93 68 47 30 8 33 8 36 98 95 100
24 16 100 89 85 8 5 2 1 2 2 5 62 65 0 4 89 100 100 99 54 100 99 84 100 100 100 100 94 71 82 21 5 5 5 5 10 22 48 72 100 100 100 75
93 87 64 32 53 27 5 78 72 17 5 98 22 6 0 5 94 100 100 100 100 100 100 100 100 100 100 99 100 100 90 36 5 5 5 14 98 98 100 99 77 21 2 0
87 90 98 82 9 3 5 6 11 5 94 14 34 4 0 47 100 100 100 100 100 100 100 100 100 100 100 100 95 31 5 5 5 6 6 11 5 5 3 0 0 0 0 0
96 100 84 100 100 5 5 5 44 100 34 5 17 94 97 100 100 100 100 100 100 100 100 100 100 95 6 19 12 5 5 5 5 5 5 3 5 5 5 5 0 0 0 0
100 95 99 98 59 42 4 6 7 14 22 100 100 100 100 100 96 99 98 100 100 95 49 53 76 66 31 5 5 5 5 65 99 96 12 5 5 5 5 5 1 5 1 0
100 100 100 100 95 53 100 77 59 76 100 100 100 100 100 40 35 49 12 5 5 3 1 1 4 1 1 5 5 40 86 77 54 5 5 5 5 5 5 5 5 5 0 0
100 100 100 100 92 100 100 100 100 100 100 100 100 100 100 100 79 18 5 5 3 5 5 5 0 5 5 11 79 98 89 51 43 56 76 58 7 5 5 5 5 0 0 0
100 100 100 100 100 100 100 100 100 100 100 100 100 100 100 100 100 26 5 5 5 5 6 5 5 36 100 100 72 7 29 100 87 29 64 59 5 5 4 0 0 0 0 0
100 100 100 100 100 100 100 100 99 87 100 100 100 100 96 53 14 10 6 25 79 45 32 11 68 72 88 67 100 100 100 100 66 83 10 5 2 0 0 0 0 0 0 0
100 100 100 100 100 100 100 100 100 100 100 100 100 77 26 20 30 34 41 11 16 59 7 5 7 46 88 86 100 100 92 55 13 5 4 4 0 0 0 0 0 0 0 0
100 100 100 100 100 100 100 100 100 100 100 80 20 37 50 67 28 10 11 17 54 7 5 8 70 23 56 100 100 65 5 5 5 4 0 0 0 0 0 0 0 0 0 0
100 100 100 100 100 100 100 100 92 98 100 83 58 11 7 5 18 88 38 5 5 5 8 6 39 100 100 97 44 5 5 5 5 0 0 0 0 0 0 0 0 0 0 0
84 94 100 100 86 49 99 75 77 89 26 5 17 10 6 31 31 24 13 5 6 88 100 100 100 100 79 5 5 5 5 8 1 0 0 0 0 0 0 0 0 0 0 18
5 84 90 59 6 16 51 58 55 5 11 36 8 23 53 8 5 5 5 42 99 100 100 100 81 6 5 5 5 5 5 0 0 0 0 0 0 0 0 0 0 1 5 5

GFSCGP_prec_cloud_012.txt.gz
Cloud_Cover
62 100 100 4 0 2 55 4 5 0 5 0 0 0 0 0 0 0 5 18 100 100 93 100 99 8 4 0 0 0 0 0 0 0 0 0 0 0 5 9 18 26 5 5
100 98 34 4 3 72 1 41 6 3 5 0 0 0 0 0 0 0 4 5 97 100 93 99 100 79 5 0 0 0 0 3 5 0 0 0 3 5 5 26 21 6 3 2
100 63 61 19 5 5 5 8 19 2 5 0 0 0 0 0 0 5 1 3 100 100 46 67 100 54 4 2 0 2 47 32 3 1 2 5 5 6 6 5 4 5 0 2
100 100 99 69 14 48 42 7 95 5 5 0 0 0 0 0 0 5 5 5 85 100 6 100 99 100 100 100 100 100 100 93 25 5 5 35 76 27 5 1 0 0 0 0
98 100 100 100 32 6 14 94 92 100 77 4 0 0 0 0 0 5 5 5 22 100 33 20 100 100 100 100 100 89 5 21 85 97 56 6 5 5 2 0 0 0 0 1
100 100 100 99 99 34 98 95 100 100 85 4 0 0 0 0 0 4 3 5 4 99 37 12 73 94 94 22 19 35 83 73 19 5 5 6 5 1 0 0 5 5 5 8
100 55 100 70 97 100 100 100 91 79 6 0 0 0 0 0 0 0 4 5 5 94 83 5 0 0 0 0 0 0 0 0 0 0 0 0 0 2 3 5 5 5 5 5
83 89 100 97 33 86 100 100 56 6 2 0 0 1 0 0 0 0 0 5 4 20 79 5 0 0 0 0 0 0 0 0 0 0 0 1 5 5 3 5 5 5 38 7
10 91 26 100 91 85 96 32 41 5 5 1 0 0 0 0 0 0 0 0 5 5 69 7 0 0 0 0 0 0 0 0 0 0 0 0 2 5 5 14 35 47 58 25
5 5 40 100 43 100 88 81 30 5 5 0 0 0 0 0 0 0 0 0 10 29 6 18 5 0 4 1 0 0 3 16 5 5 4 4 5 5 20 35 6 22 43 44
18 66 84 100 20 52 94 42 27 25 6 0 0 0 0 0 0 0 0 0 4 95 12 2 5 5 8 8 20 54 62 30 39 27 21 42 92 100 98 78 64 13 5 5
64 13 100 49 45 76 98 5 5 5 2 0 0 0 0 0 0 0 0 0 5 6 5 5 5 84 99 100 100 100 100 100 97 72 72 74 91 69 12 5 5 5 5 5
46 60 36 90 67 5 5 5 5 26 4 0 0 0 0 0 0 0 1 5 5 15 19 42 17 99 100 100 100 100 100 90 10 33 7 11 5 5 6 5 5 5 5 5
100 65 5 3 8 14 5 3 5 5 0 0 0 0 0 0 12 57 5 5 24 5 72 40 86 100 100 100 100 88 32 74 18 39 24 7 16 38 10 12 28 5 4 3
86 96 95 94 14 18 61 90 86 50 5 0 0 0 0 0 97 85 5 62 74 61 91 100 100 100 100 96 76 78 99 99 46 5 6 9 16 5 5 5 5 5 1 0
98 86 92 88 78 81 5 7 5 5 5 0 0 0 0 18 99 44 100 99 60 100 100 100 100 100 99 100 98 26 10 53 9 5 52 58 5 5 5 5 0 0 0 0
100 100 88 91 99 66 5 5 5 5 35 2 1 6 94 55 67 75 100 100 100 100 100 93 90 95 98 96 43 28 8 5 32 76 55 18 5 5 5 5 5 0 0 0
100 92 92 100 84 35 99 18 4 5 52 95 100 100 100 51 48 99 100 100 96 100 100 100 88 40 61 55 29 5 32 93 100 14 5 9 5 5 5 4 0 0 0 0
100 100 100 100 100 100 100 100 100 97 100 100 100 100 100 100 100 82 82 100 99 100 87 63 72 56 78 12 45 16 17 34 6 59 76 6 5 4 0 0 0 3 5 5
100 100 92 100 100 100 100 100 100 100 100 100 100 94 98 100 98 100 92 67 100 14 82 54 25 6 14 9 9 52 5 5 22 97 7 5 2 0 5 5 5 5 1 0
100 100 100 100 95 100 100 100 100 95 100 100 59 88 100 100 100 85 100 99 99 98 40 8 61 26 8 65 100 80 5 22 64 5 4 0 1 5 5 3 5 0 0 0
100 100 100 100 100 100 95 90 93 100 100 100 100 100 100 100 100 100 100 100 100 94 33 6 5 86 100 100 62 11 60 38 4 0 5 6 16 4 3 5 0 0 0 0
100 100 99 99 100 100 100 100 100 100 100 100 100 100 100 100 100 100 100 100 47 8 58 44 33 68 24 5 43 51 5 0 0 3 5 20 6 5 5 0 0 0 0 0
100 100 100 92 100 100 100 100 100 100 100 100 100 100 100 100 100 89 32 12 80 44 17 5 93 97 100 100 65 4 0 6 26 22 5 5 5 5 1 0 0 0 0 0
100 95 60 94 100 100 100 100 100 100 100 100 100 100 99 85 12 6 35 48 44 34 5 14 58 100 100 46 2 5 5 5 5 0 5 5 5 0 0 0 0 0 0 26
98 100 97 100 85 88 100 100 100 100 89 49 61 62 9 5 50 59 56 45 44 5 67 53 100 95 13 5 5 5 5 4 1 5 5 5 0 0 0 0 0 4 6 61

GFSCGP_prec_cloud_015.txt.gz
Cloud_Cover
100 100 100 29 100 19 9 92 2 0 4 0 0 0 0 0 0 0 0 0 0 8 70 86 100 98 96 53 39 1 0 0 0 0 0 0 0 0 0 0 0 0 5 78
100 100 100 88 48 6 67 99 5 1 5 5 0 0 0 0 0 0 0 0 4 26 5 87 100 99 71 48 56 5 2 0 0 0 4 1 0 0 0 0 2 5 16 28
100 89 100 83 6 76 67 0 3 3 5 5 0 0 0 0 0 0 0 0 5 5 5 18 96 99 66 27 96 93 74 68 20 5 4 0 0 2 5 5 5 13 5 5
100 100 100 100 73 4 0 5 3 5 7 5 4 1 0 0 0 0 0 5 5 5 5 5 97 92 56 5 44 100 98 67 65 5 4 4 1 5 5 5 5 5 5 1
100 100 91 95 88 3 24 7 33 86 64 73 3 4 0 0 0 4 0 2 5 5 5 5 64 96 6 5 5 19 42 96 84 86 65 34 20 5 5 5 5 4 0 0
100 100 98 99 91 10 14 99 47 30 88 5 0 0 0 0 0 0 0 4 5 67 63 22 5 82 17 68 92 27 5 1 4 71 100 98 37 4 1 0 0 0 0 0
100 100 100 100 85 100 70 33 90 94 90 5 0 0 0 0 0 0 0 0 2 5 5 5 5 0 5 100 98 99 11 4 5 2 0 0 0 0 0 0 0 3 4 1
100 100 100 100 100 100 100 80 100 87 5 5 0 0 0 0 0 0 0 0 0 0 2 0 0 0 0 4 18 91 16 5 5 5 5 5 1 0 1 5 5 5 5 7
74 85 98 64 100 94 100 99 95 21 3 5 0 0 0 0 0 0 0 0 0 0 0 0 0 0 0 0 5 71 6 35 28 5 5 5 10 69 70 31 10 13 60 78
18 70 32 100 100 100 40 92 100 53 5 5 0 0 0 0 0 0 0 0 0 0 0 3 0 0 0 0 5 5 5 5 37 5 76 28 49 51 41 5 12 85 99 54
5 5 5 87 100 100 100 54 100 70 6 5 1 0 0 0 0 0 0 0 0 0 0 0 0 0 0 4 5 54 12 5 5 7 61 68 72 25 39 29 34 5 5 9
5 0 14 5 43 43 25 66 30 5 5 4 0 0 0 0 0 0 0 0 0 0 0 0 0 1 5 20 100 6 5 10 28 76 90 100 100 76 6 16 5 5 5 4
14 5 36 54 28 5 5 8 45 23 5 5 5 1 0 0 0 0 0 0 0 0 0 0 4 5 5 42 74 49 46 96 100 93 92 73 7 10 5 5 5 5 5 5
100 94 33 75 53 82 10 41 14 46 34 5 2 0 0 0 0 0 0 0 0 2 0 5 5 11 79 98 66 82 100 100 72 90 99 38 17 12 8 5 5 5 5 5
79 92 100 100 100 36 67 2 1 6 2 5 30 13 0 0 0 0 0 0 3 5 5 5 5 84 100 88 99 100 84 56 76 83 63 63 84 56 31 18 5 5 5 5
55 95 93 77 92 5 5 5 5 5 84 36 5 0 0 0 0 0 0 5 5 5 71 21 52 83 100 100 61 69 78 80 94 99 96 99 85 5 5 5 5 5 4 0
86 63 69 76 100 68 5 10 4 18 48 56 5 2 0 0 0 3 0 8 54 100 99 100 97 97 99 57 58 53 74 88 100 100 98 20 5 5 4 2 5 0 0 0
100 100 90 94 73 39 80 9 5 5 12 5 65 92 4 0 2 2 4 94 96 100 100 100 100 97 100 85 92 98 82 100 100 42 5 5 5 0 0 0 0 0 0 0
100 95 97 89 12 48 88 100 100 99 73 5 64 99 43 5 5 5 75 97 100 100 99 98 100 100 100 86 46 94 100 100 11 5 5 4 0 0 0 0 0 0 0 0
100 100 100 100 100 100 100 100 86 48 98 100 100 100 88 76 78 100 100 100 100 100 100 100 100 97 56 67 100 100 100 28 5 5 3 2 0 0 0 0 0 4 0 0
100 100 99 92 63 94 100 100 90 99 95 100 91 100 98 100 100 100 100 100 100 100 100 99 100 95 100 100 100 100 83 8 5 3 0 1 0 0 0 0 0 0 1 0
100 100 100 100 100 100 100 78 88 100 100 100 100 100 100 100 100 100 100 100 100 100 99 97 100 100 100 100 100 78 5 5 1 0 5 0 0 0 0 0 0 0 0 0
100 100 100 100 100 100 100 100 100 92 98 99 99 100 100 100 100 100 100 100 95 62 41 77 100 58 100 100 68 68 5 1 2 4 0 0 0 0 0 0 0 0 0 0
100 100 100 100 100 100 100 100 100 100 100 100 100 100 100 82 79 84 64 48 10 41 100 57 29 54 62 100 98 25 5 5 5 0 0 0 0 0 0 0 0 0 0 4
84 61 80 92 66 81 7 5 46 100 100 100 97 98 93 84 75 68 66 24 80 75 50 18 16 19 83 100 53 4 4 2 0 0 0 0 0 0 0 0 0 0 5 22
36 9 19 21 5 5 5 37 13 6 32 86 26 5 64 82 80 26 67 72 74 96 98 57 80 100 82 5 3 0 0 0 0 0 0 0 0 0 0 0 0 5 5 11

GFSCGP_prec_cloud_018.txt.gz
Cloud_Cover
89 97 100 89 55 69 78 3 66 24 3 2 3 0 5 0 0 0 0 0 0 0 0 0 5 5 100 86 5 23 5 5 4 0 0 0 0 0 0 0 0 0 0 0
100 100 95 100 97 36 99 82 43 48 2 7 4 0 5 0 0 0 0 0 0 0 0 0 3 5 5 83 97 89 53 5 46 95 91 100 73 5 0 0 1 4 5 8
84 99 76 100 97 98 100 99 75 13 4 81 7 0 5 5 1 0 0 0 0 0 5 1 5 5 10 86 73 100 100 90 7 34 7 24 76 12 2 0 5 5 5 5
99 93 100 100 78 98 81 83 54 5 35 98 5 3 5 4 3 0 0 0 0 0 0 0 0 2 5 33 22 8 80 35 17 42 12 13 2 2 1 0 0 2 0 2
98 100 100 100 30 100 100 29 5 21 100 82 12 4 0 5 5 0 0 0 1 5 6 5 2 3 5 64 95 96 92 96 100 60 5 5 5 6 5 5 5 5 29 5
100 100 100 100 100 100 100 50 40 77 100 68 8 1 0 5 1 0 2 0 0 1 38 5 5 5 70 22 16 5 70 38 34 22 38 97 97 27 5 5 5 3 1 0
100 100 100 100 100 100 100 89 97 100 93 15 0 0 0 0 0 0 0 0 1 3 5 5 5 5 2 0 5 5 2 4 3 17 69 12 6 5 23 2 0 0 0 1
100 100 100 100 99 100 98 21 65 84 11 14 0 0 0 2 0 0 0 0 4 1 0 0 0 0 0 0 0 0 0 5 5 4 5 5 5 10 8 5 4 5 5 48
100 100 100 100 98 94 100 99 56 5 5 5 0 0 0 0 0 0 0 0 1 0 0 0 0 0 0 0 0 0 3 2 1 1 5 6 85 85 26 10 5 79 98 92
100 100 100 100 79 96 57 60 30 46 13 5 0 0 0 0 0 0 0 0 0 0 0 0 0 0 0 0 0 3 47 20 5 6 5 50 96 50 49 73 88 91 100 99
100 100 100 100 100 76 100 100 69 24 5 44 2 0 0 0 0 0 0 0 0 0 0 0 0 0 0 0 0 1 6 9 5 5 5 5 63 100 69 50 61 39 8 5
40 100 100 100 100 100 100 92 95 77 50 5 1 0 0 0 0 0 0 0 0 0 0 0 0 0 0 0 0 0 0 5 5 82 11 67 81 32 5 9 6 20 5 3
20 55 26 98 92 100 43 100 66 30 8 5 7 4 0 0 0 0 0 0 0 0 0 0 0 0 0 0 0 0 5 5 13 50 66 78 18 52 76 38 5 5 5 5
54 5 6 5 5 63 94 100 100 81 56 26 0 4 0 3 5 0 0 0 0 0 0 0 0 0 0 5 5 5 5 44 48 54 41 5 5 7 14 23 46 23 5 5
70 78 5 1 0 1 11 53 5 1 28 6 5 5 0 5 5 0 0 0 0 0 0 0 1 3 5 5 5 5 60 65 84 36 5 5 60 55 29 51 36 46 5 1
97 99 8 5 5 4 4 5 0 0 2 0 4 3 0 5 2 0 0 0 0 4 5 5 4 2 5 5 34 64 89 94 29 5 40 28 26 100 67 67 5 3 0 4
100 48 99 79 6 70 8 26 78 47 0 0 0 51 4 4 0 0 0 0 4 5 2 0 5 5 5 64 98 25 74 49 49 25 62 51 67 21 5 5 1 2 0 0
100 83 96 58 62 62 42 12 5 5 4 0 3 3 4 3 0 0 0 0 5 5 2 4 5 39 100 95 90 76 100 85 70 29 21 38 46 9 2 0 0 0 0 0
100 100 79 90 6 30 59 7 5 4 5 5 5 5 5 5 5 5 5 3 52 45 30 86 100 100 100 100 100 100 71 85 79 41 51 5 5 0 0 0 0 0 0 0
100 100 100 96 80 100 54 5 5 4 5 5 5 5 5 37 6 5 12 98 95 99 100 100 100 100 100 100 97 98 39 100 57 18 5 5 0 0 0 0 0 0 0 0
100 100 98 100 100 90 100 92 85 90 100 64 98 84 73 74 61 87 100 100 100 100 100 100 100 100 100 98 29 77 100 100 40 8 5 1 0 0 0 0 0 0 0 0
100 100 100 98 95 92 65 96 84 74 56 48 94 98 87 61 92 86 100 100 100 100 100 100 99 96 58 67 96 100 100 22 5 3 2 0 0 0 0 0 0 0 0 0
100 99 100 100 100 95 87 84 97 74 82 90 100 100 100 100 100 100 100 100 100 100 100 98 50 24 42 98 100 6 6 5 5 4 0 0 0 0 0 0 0 0 0 0
100 100 100 100 100 100 100 100 100 100 100 100 100 100 100 100 100 100 100 100 100 98 80 78 79 82 100 93 32 5 5 5 2 0 0 0 0 0 0 0 0 0 0 0
100 97 100 100 100 100 100 100 100 100 100 100 100 100 100 100 100 100 100 100 100 100 100 94 76 64 28 5 5 5 5 3 0 0 0 0 0 0 0 0 0 0 0 5
78 100 100 100 91 94 93 100 100 100 100 100 100 71 31 85 100 99 99 100 100 100 96 16 6 5 5 5 5 4 0 0 0 0 2 4 0 0 0 0 0 0 5 6

GFSCGP_prec_cloud_021.txt.gz
Cloud_Cover
39 85 100 3 74 23 84 100 42 48 5 76 10 9 59 84 74 56 28 29 6 5 5 0 0 0 0 0 0 100 88 8 90 85 66 5 5 2 2 0 3 0 0 0
100 100 31 1 27 95 45 100 28 73 81 28 4 4 76 66 84 67 59 8 5 0 0 0 0 0 0 2 5 5 96 100 87 96 86 43 41 99 96 8 5 0 0 0
94 19 12 50 88 100 100 96 41 100 100 5 5 4 83 68 5 25 5 5 0 0 0 0 0 0 0 4 5 52 77 46 96 88 79 100 100 100 76 6 5 4 0 0
98 100 98 90 93 82 93 98 80 100 46 38 72 3 4 63 5 5 5 5 0 0 1 0 0 0 0 4 5 64 65 64 46 70 68 70 19 5 5 5 4 5 5 5
95 100 100 100 99 100 97 100 100 100 83 100 76 51 5 63 5 5 5 5 4 5 5 0 3 5 5 5 5 92 100 99 66 5 7 36 5 2 5 5 5 29 37 61
100 100 100 33 100 100 84 100 100 100 100 80 5 35 0 10 10 5 96 6 5 5 2 2 10 86 14 5 55 61 68 5 5 5 4 0 0 0 0 0 0 0 0 0
100 100 100 100 100 100 100 100 100 100 84 5 5 43 5 17 36 5 11 5 5 2 1 3 5 5 5 72 47 5 5 0 0 0 0 0 0 0 0 0 4 5 5 4
100 100 100 100 100 100 100 39 72 40 44 5 5 1 0 50 6 5 5 8 5 3 0 3 5 2 5 7 2 5 1 0 0 2 4 2 5 2 5 2 5 5 5 7
100 92 100 100 100 100 100 92 100 51 5 74 4 1 0 5 5 5 5 5 5 5 0 0 4 0 4 1 0 0 0 1 2 0 0 4 0 5 5 5 5 8 94 35
100 100 100 100 100 100 40 91 100 5 38 54 16 29 6 0 2 5 5 3 0 2 0 0 0 3 0 0 0 0 0 0 0 0 0 0 0 5 5 5 18 98 73 47
100 100 100 100 100 100 99 84 96 45 7 95 65 36 2 0 0 5 0 0 0 0 0 0 0 0 0 0 0 0 0 0 0 0 0 0 5 5 5 53 92 80 99 100
100 100 100 100 100 100 65 100 96 46 27 3 7 19 0 0 0 0 0 0 0 0 0 0 0 0 0 0 0 0 0 0 0 0 0 5 5 6 95 60 84 100 68 67
100 100 100 100 100 100 100 37 5 10 53 5 5 68 0 0 0 0 0 0 0 0 0 0 0 0 0 0 0 0 0 0 0 0 5 5 5 58 5 29 60 47 53 65
100 100 100 100 100 95 100 68 56 36 71 10 45 80 5 0 3 1 0 0 0 0 0 0 0 0 0 0 0 0 1 0 0 2 5 5 5 80 29 24 55 26 9 5
86 100 100 100 100 100 100 99 98 72 74 5 5 7 6 51 9 0 5 4 0 0 0 0 0 0 0 0 0 1 1 4 5 8 61 46 5 52 54 42 5 5 5 5
83 99 100 100 100 100 68 56 5 33 6 6 38 5 56 5 5 5 3 5 0 0 0 0 1 5 5 3 2 5 3 5 26 80 47 5 98 100 26 5 5 5 5 5
78 67 100 97 29 5 3 5 5 76 22 24 11 93 11 1 1 2 2 5 1 0 0 5 5 5 0 0 0 5 5 64 95 62 75 100 100 92 34 5 7 5 5 1
90 99 100 90 76 83 5 0 0 1 4 0 0 5 5 2 0 1 0 5 0 0 0 5 5 3 0 2 5 66 100 85 71 96 100 100 88 10 5 5 5 2 0 0
87 100 91 90 81 54 7 3 2 0 3 5 5 5 5 0 4 0 0 4 1 0 5 5 4 4 31 73 96 100 100 99 99 100 100 71 6 5 2 1 0 0 1 1
71 100 99 62 64 88 55 5 5 4 5 5 2 3 5 5 5 9 5 5 5 5 5 12 86 74 100 100 100 100 100 93 98 58 5 5 5 4 0 0 2 5 1 0
100 100 100 100 95 68 34 27 5 5 11 5 5 5 5 5 5 66 8 34 61 75 95 97 94 100 100 100 100 98 90 13 5 5 10 5 2 0 0 5 2 0 0 0
100 100 100 100 99 100 67 94 74 99 51 5 9 75 84 13 28 87 80 74 92 100 100 100 100 100 100 98 96 77 58 41 37 53 5 5 5 3 4 0 0 0 0 0
100 99 96 91 100 100 98 87 50 69 26 96 75 40 18 70 84 98 84 99 100 100 100 100 100 100 96 69 88 93 76 88 62 5 5 5 1 0 5 0 0 0 0 0
100 100 100 100 100 100 91 64 86 100 100 100 100 100 100 100 100 100 100 100 100 100 97 95 81 51 84 100 98 70 79 90 5 5 5 3 5 5 3 0 0 0 0 0
100 100 100 100 100 100 100 100 100 100 100 100 100 100 100 100 100 100 100 100 100 100 100 77 94 100 96 100 100 100 81 6 5 5 5 5 5 0 0 0 0 0 0 1
100 100 100 100 100 100 100 100 100 100 100 100 100 100 100 100 100 100 100 85 29 5 10 24 94 100 100 100 100 74 21 5 5 5 5 5 4 3 0 0 0 0 0 2

GFSCGP_prec_cloud_024.txt.gz
Cloud_Cover
100 100 82 97 30 5 5 20 90 5 34 39 5 1 0 0 0 55 100 100 97 100 100 100 100 6 6 45 14 40 5 53 36 7 5 8 66 57 66 29 5 0 5 40
81 66 79 73 13 23 59 41 51 42 87 48 2 4 2 5 0 97 98 28 79 100 45 98 67 61 83 10 3 0 5 8 28 100 82 94 68 95 97 100 100 100 100 85
99 6 73 36 94 100 100 65 4 18 9 100 74 17 16 0 19 98 16 5 18 16 44 42 92 76 5 0 0 5 5 5 5 5 8 23 11 5 5 5 31 5 5 4
94 80 100 99 42 93 88 1 31 83 95 79 69 4 0 0 5 2 54 5 76 5 36 100 80 4 0 1 5 5 5 5 5 5 5 5 5 5 5 5 5 5 0 2
99 100 96 96 86 18 14 1 62 100 100 64 78 68 0 0 66 61 42 25 55 10 96 68 5 1 0 5 5 5 5 5 5 5 5 5 5 1 0 0 0 0 0 0
27 100 100 99 100 21 4 91 93 64 100 99 54 41 0 0 80 1 5 5 21 83 57 6 5 5 0 5 16 8 5 5 5 12 5 5 5 3 3 0 0 0 0 0
100 93 100 100 63 60 100 100 100 100 100 91 0 16 0 0 5 5 5 5 5 50 67 5 5 5 4 16 65 97 87 66 100 26 2 0 0 1 0 0 0 0 0 4
100 100 100 98 73 99 100 100 100 76 100 54 6 12 0 1 86 10 5 5 5 24 77 30 5 5 2 5 5 5 7 12 3 0 0 0 0 0 0 0 0 0 3 5
100 100 100 100 100 100 100 100 100 99 87 66 6 4 0 4 5 40 5 5 28 7 36 10 5 2 5 5 5 5 5 2 0 0 0 0 0 0 0 0 0 5 6 46
100 100 100 100 100 100 100 100 99 80 54 21 76 10 0 0 5 5 42 5 8 5 5 5 5 5 0 0 3 5 5 0 1 0 0 0 0 0 0 4 5 7 60 6
100 100 100 100 100 100 100 100 46 32 44 83 94 76 3 3 5 5 5 5 5 5 7 5 5 0 0 0 0 0 0 0 0 0 0 0 0 0 4 5 11 60 48 73
100 100 100 100 100 100 100 100 83 97 80 100 100 4 0 0 0 3 5 5 5 5 5 5 3 0 0 0 0 0 0 0 0 0 0 0 0 3 5 5 52 10 53 61
100 100 100 100 100 100 100 100 100 89 98 100 95 64 5 0 0 1 4 5 3 0 4 5 3 0 0 0 0 0 0 0 0 0 0 0 0 5 5 41 87 73 91 94
100 100 100 100 100 100 100 100 38 68 100 100 38 5 5 0 0 0 0 2 1 4 0 0 0 0 0 0 0 0 0 0 0 0 0 1 3 16 67 98 83 100 100 98
100 100 100 100 100 99 100 100 95 5 22 5 35 5 5 5 4 0 0 5 5 5 0 0 0 0 0 0 0 0 4 0 2 3 2 5 78 88 100 100 100 100 100 100
100 100 100 100 100 100 100 100 45 5 5 5 5 5 80 12 5 2 5 3 1 0 5 0 0 0 0 0 5 5 3 0 0 5 40 99 100 88 100 100 100 100 99 49
100 98 97 100 100 100 100 100 99 100 40 40 46 84 61 20 14 5 5 1 3 0 0 0 0 0 1 5 5 3 0 4 27 95 100 100 85 100 100 100 99 38 5 5
68 32 43 37 61 78 89 81 65 100 72 35 62 45 7 5 5 40 5 0 2 0 4 1 0 0 5 5 5 0 5 9 81 100 100 100 100 100 100 39 5 5 5 5
100 78 95 99 77 94 100 58 93 8 37 13 6 4 3 4 4 0 0 5 4 0 2 4 5 5 5 5 8 71 98 100 100 100 100 100 100 66 5 12 46 18 5 2
100 100 99 100 97 37 55 6 5 7 14 4 5 5 5 0 0 4 3 5 5 5 5 18 56 92 99 96 100 100 100 100 100 100 100 93 6 5 19 5 5 5 0 0
100 100 80 91 85 94 100 88 38 32 55 5 5 1 0 0 0 3 5 5 10 23 60 62 62 98 99 100 100 100 100 100 100 74 6 12 7 5 5 5 5 5 4 1
100 100 100 98 75 74 41 91 98 91 88 16 5 5 5 5 5 32 19 25 43 34 53 98 100 100 100 80 84 100 98 63 7 10 27 5 5 18 31 5 5 5 0 0
100 100 100 99 100 100 100 81 100 80 80 60 47 33 35 41 75 100 100 100 99 100 100 100 100 95 99 100 80 84 99 85 76 40 5 71 100 52 5 5 3 0 0 0
100 100 100 77 100 100 100 77 78 100 64 80 99 100 95 53 79 99 100 100 100 100 100 100 100 100 100 96 86 63 85 86 21 90 100 97 8 5 5 5 5 5 1 0
100 100 100 100 90 94 100 99 100 100 100 100 100 100 100 100 100 100 100 100 100 100 100 100 100 82 20 35 67 81 96 100 100 91 42 5 5 5 5 5 5 3 0 0
100 100 100 100 100 100 100 100 100 100 100 100 100 100 100 100 100 100 100 100 100 100 90 18 7 5 20 62 99 100 100 91 45 5 5 5 5 5 5 5 2 0 0 0

GFSCGP_prec_cloud_027.txt.gz
Cloud_Cover
8 21 43 32 5 34 7 5 63 4 5 3 2 5 0 0 0 0 0 0 0 4 7 7 85 97 100 100 100 100 100 100 60 37 5 5 5 41 8 13 78 96 64 88
20 71 92 71 7 5 6 8 6 2 5 22 3 0 0 0 0 0 0 0 0 13 7 76 100 97 100 96 92 78 11 71 37 5 5 5 5 5 12 5 10 12 47 24
34 5 95 85 89 8 31 90 5 5 18 5 5 5 0 0 0 0 0 0 0 5 3 100 88 38 21 48 74 71 97 69 28 5 5 5 5 1 2 1 2 5 33 65
73 51 51 97 45 12 5 37 56 24 95 99 98 86 0 0 0 0 0 0 0 25 8 98 5 38 96 91 20 16 53 4 5 5 5 5 1 0 5 5 3 4 1 4
84 99 100 100 85 100 100 100 100 76 51 100 80 100 6 0 0 0 0 0 4 91 8 63 55 80 34 6 5 17 5 2 3 5 1 5 3 55 92 54 0 5 1 0
96 100 100 100 100 100 100 99 68 61 55 100 100 100 21 0 0 0 0 0 4 48 5 24 52 86 72 8 5 5 2 4 0 5 5 57 51 5 0 0 0 0 0 0
100 100 96 98 89 98 100 100 91 91 97 60 14 94 66 0 0 0 0 0 23 6 5 5 47 79 32 7 5 5 3 3 5 5 8 19 5 0 0 0 0 0 0 0
75 64 78 85 55 100 14 60 85 43 2 47 100 100 2 0 0 0 0 0 67 24 11 19 100 68 17 6 5 5 5 5 1 3 0 0 0 0 0 0 0 0 0 0
100 100 100 100 100 97 14 98 8 80 100 100 100 100 9 0 0 0 0 0 46 12 5 63 57 29 5 5 7 8 4 0 0 0 0 0 0 0 0 0 0 0 1 5
100 100 100 100 100 100 98 17 100 100 100 100 100 100 0 0 0 0 2 5 15 5 5 10 9 5 5 5 30 5 5 0 0 0 1 0 0 0 0 0 0 0 5 5
100 100 100 100 100 100 100 100 100 100 100 100 100 62 0 3 5 1 0 0 5 14 18 5 5 5 5 5 5 5 5 2 1 5 2 0 0 0 0 0 3 5 5 5
100 100 100 100 100 100 100 100 100 100 100 100 90 69 0 5 5 2 0 0 5 5 6 21 5 5 5 5 5 5 5 5 5 2 0 0 0 0 0 0 5 12 80 83
100 100 100 100 100 100 100 100 100 100 100 100 100 84 87 22 2 0 2 5 5 5 5 5 3 2 5 5 5 5 4 1 3 0 0 0 0 1 5 5 33 100 70 82
100 100 100 100 100 100 100 100 100 100 100 100 100 100 76 5 5 5 0 3 5 5 5 1 2 5 5 5 5 5 0 0 0 0 2 5 1 4 39 55 100 87 100 100
100 100 100 100 100 100 100 100 100 100 100 100 100 100 100 18 2 0 0 0 2 5 5 5 0 5 5 5 5 0 5 2 1 5 4 1 9 75 50 94 73 98 100 100
100 100 100 100 100 100 100 87 100 100 100 100 100 100 100 14 4 0 0 3 5 5 0 0 0 4 5 5 1 0 4 5 5 5 0 5 30 98 82 83 100 100 86 100
100 100 100 100 100 100 100 100 100 100 100 100 67 80 5 5 4 4 5 5 5 1 5 2 3 5 5 3 0 5 5 5 5 2 5 38 100 100 100 100 100 97 100 86
95 100 100 100 100 98 84 98 84 100 100 57 75 100 6 5 5 5 5 5 5 5 1 0 1 4 5 4 5 5 5 13 66 67 100 89 100 100 100 100 100 49 5 5
49 98 100 76 87 99 97 90 80 100 25 25 5 78 9 4 5 5 5 5 5 5 4 5 1 4 5 10 5 5 10 98 93 99 100 100 100 100 100 95 28 5 5 5
99 99 97 75 100 100 97 67 98 52 19 99 74 83 39 5 2 2 0 0 0 2 5 5 5 5 5 7 71 100 93 79 98 100 100 100 100 100 98 14 5 5 5 5
100 100 100 100 100 100 100 100 55 43 58 79 58 20 5 5 4 3 1 1 5 5 5 5 6 5 58 43 11 16 65 96 100 100 100 100 100 94 39 6 5 5 5 5
100 99 100 100 99 93 70 98 83 71 91 94 98 81 28 5 4 5 5 5 5 5 10 41 56 25 74 60 46 31 57 93 100 94 100 94 57 5 5 19 56 25 5 5
99 100 100 45 98 38 32 5 39 18 5 5 5 5 5 5 5 5 5 8 63 58 45 77 54 52 54 60 89 65 98 69 100 100 91 43 44 63 82 39 12 5 5 4
63 95 100 95 100 77 100 100 98 12 14 7 6 11 5 23 40 21 75 90 100 100 100 100 100 100 100 98 71 59 92 100 98 32 22 95 100 94 66 5 5 5 1 0
100 100 100 100 72 74 73 67 92 96 98 94 85 93 100 100 100 100 100 100 100 100 100 100 100 100 94 50 82 83 97 42 9 80 100 97 72 16 5 6 5 1 0 0
100 100 100 100 100 100 100 100 100 97 90 99 96 100 100 100 100 100 100 100 100 100 100 100 95 13 5 57 41 10 5 74 100 70 68 22 5 5 5 5 1 0 0 0

GFSCGP_prec_cloud_030.txt.gz
Cloud_Cover
3 23 13 10 3 5 5 5 5 5 5 4 4 5 5 5 0 0 0 0 0 0 0 0 0 36 100 100 100 100 100 100 100 100 100 100 100 100 100 100 69 3 5 5
42 98 22 0 0 0 7 12 14 5 5 50 25 2 0 0 0 0 0 0 0 0 0 0 0 3 5 25 92 84 100 100 100 100 100 100 94 43 100 70 1 0 0 0
55 11 9 17 12 6 5 47 33 20 5 3 97 8 0 0 0 0 0 0 0 0 0 0 0 5 5 5 5 77 64 51 100 100 100 50 41 53 59 1 0 5 5 2
100 93 100 99 9 74 8 67 48 7 74 36 48 45 0 0 0 0 0 0 1 0 0 0 3 5 5 34 22 56 56 59 63 82 73 5 28 40 0 2 5 5 5 0
72 31 98 56 55 100 50 100 84 74 100 89 7 91 6 0 0 0 0 0 0 0 0 0 3 5 64 68 95 22 5 49 90 77 55 5 5 3 5 4 4 5 0 0
99 100 68 96 100 100 73 100 100 100 100 92 1 19 0 0 0 0 0 0 0 0 0 0 3 5 80 43 12 31 80 66 5 8 5 5 5 5 5 2 0 0 0 0
89 100 100 100 100 100 100 100 100 100 100 36 4 3 0 0 0 0 0 0 0 0 1 0 3 5 23 21 66 62 30 5 44 5 5 5 5 0 0 0 0 0 0 0
69 28 100 35 79 100 100 100 100 100 75 4 95 10 0 2 0 0 0 0 0 0 0 0 15 55 51 9 75 18 5 43 7 5 5 5 0 0 0 0 0 0 0 0
16 44 12 58 6 35 17 98 100 100 100 100 67 0 52 88 0 0 0 0 0 0 0 0 49 10 8 5 15 59 63 28 5 5 5 4 2 5 3 0 0 0 0 0
48 83 100 100 100 89 88 72 96 100 83 69 3 1 5 24 0 0 0 0 0 0 0 0 61 20 5 5 26 35 6 5 5 5 5 1 5 5 2 0 0 0 0 0
100 100 100 100 100 100 100 92 98 5 3 36 51 7 11 68 4 4 0 8 4 0 0 0 38 5 5 33 68 24 22 8 5 5 5 5 5 5 0 0 0 0 0 4
100 100 100 100 100 100 100 76 37 99 98 100 100 100 100 99 100 100 100 100 73 0 0 5 50 6 34 71 28 5 15 35 5 5 5 5 5 2 2 5 5 5 4 2
100 100 100 100 100 100 100 100 100 100 100 100 100 100 100 100 84 41 100 100 5 0 0 6 26 17 61 12 34 63 11 5 5 5 5 5 4 2 5 5 0 1 5 10
100 100 100 100 100 100 100 100 100 100 100 100 100 100 100 72 76 99 100 79 4 2 4 34 64 5 5 17 84 68 16 5 5 5 5 5 5 5 5 0 4 6 82 96
100 100 100 100 100 100 100 100 100 100 100 100 100 100 100 100 100 100 99 5 5 5 5 5 20 59 46 77 73 12 5 5 5 5 5 5 5 5 16 36 32 99 72 24
100 100 100 100 100 100 100 100 100 100 100 100 100 100 100 100 100 100 99 6 5 5 5 5 55 89 66 41 7 5 4 5 5 5 5 10 5 40 100 90 85 87 49 85
100 100 100 100 100 100 100 100 100 100 100 100 100 100 100 100 100 100 26 5 5 6 17 51 23 47 50 8 5 5 4 5 5 5 62 63 68 100 89 64 88 100 100 89
100 100 100 100 100 87 93 80 100 100 100 91 100 100 100 100 100 100 61 5 5 6 60 37 49 66 67 27 5 4 5 5 5 73 77 78 100 80 95 98 84 98 45 78
100 100 100 100 100 100 57 62 66 94 100 77 90 17 100 100 84 59 64 51 6 5 5 18 57 16 5 5 5 5 5 5 76 85 80 100 97 91 76 93 30 36 98 57
100 94 96 92 31 62 98 82 51 50 72 15 5 12 5 5 79 100 98 38 74 63 48 5 5 5 5 5 5 5 25 72 65 100 100 48 61 80 6 62 100 92 6 7
100 100 100 100 100 69 49 58 100 100 100 71 29 5 5 72 97 68 100 48 5 5 5 5 5 5 5 5 5 11 90 100 99 46 5 44 52 17 100 99 31 5 40 43
100 100 94 99 96 100 100 100 100 100 100 99 80 89 100 100 89 11 5 5 5 5 5 4 4 5 5 26 84 99 88 14 5 5 62 44 39 90 65 16 5 5 5 5
100 100 100 84 66 99 100 100 100 100 100 100 100 100 100 80 82 95 54 6 5 5 5 5 5 5 7 20 10 6 5 5 5 5 41 64 62 6 5 5 5 5 5 5
46 35 78 7 19 42 9 100 100 100 100 98 99 96 82 82 72 60 6 5 5 12 5 5 5 5 5 5 5 5 5 5 8 62 77 32 5 5 5 5 5 5 5 5
79 100 95 88 84 93 98 93 98 100 100 100 100 98 100 100 100 100 100 100 83 28 5 5 5 5 5 5 5 5 5 43 80 43 5 5 7 5 5 5 7 39 5 2
100 100 100 100 100 100 100 100 100 100 100 100 100 100 100 99 98 66 40 18 20 22 5 19 15 5 5 5 5 5 23 51 5 5 16 12 5 5 5 72 99 24 5 13

GFSCGP_prec_cloud_033.txt.gz
Cloud_Cover
10 15 26 5 5 5 4 7 36 5 5 4 0 3 0 0 0 0 0 0 0 0 0 0 0 0 0 0 0 32 56 29 72 94 100 100 100 100 100 100 100 100 100 100
47 33 5 12 5 5 6 89 54 5 5 5 3 0 0 0 0 0 0 0 0 0 0 0 0 0 0 0 0 0 44 100 97 100 100 100 100 100 100 100 100 100 99 75
25 6 19 18 5 10 5 30 54 10 4 0 3 0 0 0 0 0 0 0 0 0 0 0 0 0 0 0 0 0 7 68 96 100 100 100 100 100 100 100 100 90 73 10
94 72 22 5 5 34 100 8 5 5 26 43 4 15 0 0 0 0 0 0 0 0 0 0 0 0 0 0 0 0 5 24 56 100 100 100 100 100 100 99 31 68 24 28
70 100 50 73 6 58 70 50 84 42 6 10 4 52 0 0 0 0 0 0 0 0 0 0 0 0 0 0 0 4 5 27 64 58 81 100 100 72 71 59 73 89 19 5
100 100 90 6 5 5 50 100 100 100 100 97 5 17 0 2 3 0 0 0 0 0 0 0 0 0 0 0 0 5 15 80 73 46 80 65 54 48 54 90 74 5 5 0
100 100 100 78 11 5 38 100 100 100 100 50 46 15 0 49 1 4 0 0 0 0 0 0 0 0 0 0 0 5 46 70 21 5 6 18 81 61 89 75 5 5 0 0
82 42 98 85 53 15 11 80 100 100 100 55 46 7 0 100 81 49 3 0 0 0 0 0 0 0 0 0 0 5 36 16 5 5 5 38 25 11 88 8 5 5 0 0
94 56 0 4 5 27 98 100 71 100 100 100 58 1 0 14 100 98 5 4 0 0 0 0 2 0 0 4 2 5 5 8 6 5 5 5 7 48 5 5 5 5 0 0
48 72 35 100 100 100 100 100 100 100 98 100 8 2 0 19 100 41 5 5 0 0 0 0 0 0 9 6 5 5 5 5 5 5 5 5 6 10 5 5 5 5 0 0
100 100 100 100 100 100 100 100 100 100 91 93 76 2 90 99 100 27 5 4 0 0 0 4 2 2 18 5 5 24 7 5 5 1 5 5 46 26 5 5 5 1 0 0
61 100 100 100 100 100 100 100 100 100 100 42 48 88 100 100 100 76 95 26 4 0 0 4 5 5 5 5 5 5 5 3 0 7 13 67 59 38 5 5 3 1 4 1
100 100 100 100 100 100 100 100 100 100 100 5 17 100 100 100 99 26 100 100 59 57 0 6 7 5 5 5 5 5 2 0 5 30 81 95 16 7 5 5 5 5 5 0
100 100 100 100 100 100 100 100 100 100 37 5 60 62 99 68 3 5 77 100 100 92 17 99 8 5 5 5 5 1 4 5 70 91 70 31 13 5 5 5 5 32 4 5
100 100 100 100 100 100 100 100 100 100 100 100 100 100 100 100 96 84 57 100 100 52 98 100 5 5 5 5 5 5 22 66 52 44 24 6 5 5 5 5 97 12 6 5
100 100 100 100 100 100 100 100 100 100 100 100 100 100 100 100 91 100 100 100 100 100 100 40 4 4 5 5 5 59 42 14 5 6 5 31 6 5 15 99 75 21 6 27
100 100 100 100 100 100 100 100 100 100 100 100 100 100 100 100 100 100 100 100 100 100 100 51 3 5 5 16 66 27 6 14 30 66 82 12 11 36 100 98 71 65 14 5
100 100 100 100 100 100 100 100 100 100 100 100 100 100 100 100 100 100 100 100 100 100 62 5 5 5 5 5 19 24 54 65 59 34 25 9 78 99 99 56 47 5 33 47
100 100 100 100 100 100 100 100 100 100 100 100 100 100 100 100 100 100 100 100 100 59 34 51 9 32 38 5 23 24 33 53 38 12 5 66 99 99 45 6 5 64 72 94
100 100 100 100 100 100 100 99 100 100 100 99 98 100 100 100 100 100 100 92 54 7 6 17 5 5 5 12 52 19 5 5 20 14 89 100 88 5 5 5 50 92 100 64
88 100 100 100 100 99 100 100 100 100 94 99 77 94 100 100 100 100 97 58 65 60 28 44 19 12 5 5 5 5 10 68 70 91 97 36 5 5 10 86 100 73 7 5
100 100 100 100 100 100 100 100 100 100 100 91 100 100 100 100 94 100 100 100 100 98 67 8 16 5 5 6 20 29 30 55 64 30 9 5 5 55 82 92 15 5 5 5
100 100 100 100 100 100 100 100 100 100 100 88 63 90 80 83 100 100 100 100 100 28 5 5 5 5 5 5 30 16 8 5 5 5 5 5 5 68 40 5 5 5 5 5
100 100 100 100 100 69 97 100 100 100 100 100 100 100 100 100 100 100 99 84 15 39 75 72 74 70 26 53 14 81 44 5 5 5 5 47 72 5 5 5 16 6 5 5
100 100 94 100 99 100 86 98 45 62 71 96 68 96 100 100 98 73 85 98 100 100 100 100 100 99 69 91 82 9 5 5 5 42 85 23 5 5 5 5 5 5 21 37
95 100 100 100 100 100 100 100 90 70 100 100 100 94 95 99 100 100 100 100 100 100 100 96 64 25 9 24 5 5 5 5 35 48 36 14 5 5 5 5 44 42 66 52

GFSCGP_prec_cloud_036.txt.gz
Cloud_Cover
100 94 100 100 100 99 24 39 72 66 5 7 4 0 0 0 0 0 0 0 0 0 0 0 0 0 0 0 0 0 0 0 0 0 4 5 5 56 100 100 100 100 100 100
100 100 100 100 74 5 5 72 66 8 2 0 0 0 0 0 0 0 0 0 0 0 0 0 0 0 0 0 0 0 0 0 0 0 0 5 27 100 100 100 100 100 100 100
100 93 99 57 58 24 5 50 52 19 2 0 2 0 0 0 0 0 0 0 0 0 0 0 0 0 0 0 0 0 0 0 0 0 0 4 100 100 100 100 100 100 100 94
37 79 6 5 28 9 97 12 6 31 53 69 3 15 0 0 0 0 0 0 0 0 0 0 0 0 0 0 0 0 0 0 0 0 4 5 58 100 100 100 100 100 100 100
30 5 10 74 8 79 53 6 8 52 64 72 36 57 0 0 0 0 0 0 0 0 0 0 0 0 0 2 3 0 0 0 0 0 5 76 40 90 100 100 100 40 15 15
83 73 76 34 5 28 70 88 98 91 100 98 5 31 0 0 0 0 2 0 0 0 0 0 0 0 0 0 0 0 0 0 0 0 14 68 83 100 100 100 65 8 34 68
100 84 99 100 98 53 86 100 99 100 100 34 36 64 0 0 0 1 1 5 5 5 0 0 0 0 0 0 0 0 0 0 0 71 100 100 100 100 80 14 19 24 50 49
99 11 92 98 82 22 31 40 46 71 23 5 5 38 0 0 0 38 5 57 65 12 1 0 0 0 0 0 0 4 0 0 94 100 100 100 79 23 5 5 5 19 62 36
83 65 3 7 58 58 88 99 53 94 7 100 8 2 0 0 0 3 80 2 57 31 5 0 0 0 0 0 0 0 0 32 51 95 69 99 42 6 5 5 5 49 56 26
87 66 66 96 98 73 69 100 100 100 100 100 10 4 0 0 0 5 100 6 27 8 5 2 0 0 0 1 0 5 16 21 27 5 42 73 35 5 4 5 5 5 42 41
70 99 100 93 82 98 100 100 100 100 100 100 43 51 68 1 2 92 100 62 4 22 5 0 0 0 0 0 0 20 86 99 42 5 68 62 20 5 5 5 17 11 17 5
100 100 100 100 81 100 100 100 100 100 100 100 100 12 61 98 57 100 100 100 8 5 5 5 0 0 0 0 1 48 100 80 30 5 72 60 61 5 29 5 13 5 5 5
100 100 93 84 100 100 100 100 100 100 100 93 34 35 100 100 100 100 100 100 66 57 12 5 5 0 0 0 12 87 86 7 5 5 95 85 44 5 5 5 5 5 5 5
100 100 100 78 97 100 100 100 100 100 100 57 66 95 100 100 100 100 100 100 100 8 5 5 5 0 5 3 0 5 5 5 5 22 91 100 10 5 5 5 5 5 34 5
100 100 99 100 100 100 100 100 100 100 100 94 25 99 100 100 100 100 100 79 99 88 24 5 4 30 62 5 45 94 13 5 30 97 100 50 5 5 5 5 8 20 44 92
100 100 100 100 100 100 100 100 100 100 100 100 13 39 63 89 100 100 46 92 100 100 100 99 69 100 100 100 99 29 6 71 100 100 40 28 5 52 37 36 51 78 76 70
100 100 100 100 100 100 100 100 100 100 100 90 64 100 100 100 60 34 66 100 100 100 100 92 97 100 100 100 67 32 100 100 100 99 72 79 72 84 71 44 95 89 99 44
100 100 100 100 100 100 100 100 100 100 100 100 100 100 100 100 92 76 100 100 100 100 93 82 100 100 100 99 14 79 100 100 100 87 61 53 90 76 91 100 80 99 28 5
100 100 100 100 100 100 100 100 100 100 91 100 100 100 100 100 100 100 100 100 98 100 100 100 100 100 100 52 88 92 100 100 80 44 90 80 51 89 100 100 77 9 5 5
98 100 100 100 100 100 100 100 100 100 100 98 100 100 100 100 100 100 100 100 100 100 100 100 100 100 94 77 60 84 62 62 42 44 38 86 100 100 99 13 5 3 5 30
100 100 100 100 100 100 100 100 100 100 100 100 100 100 100 100 100 100 100 100 100 100 100 100 100 80 100 96 71 75 79 76 32 88 98 93 100 95 8 5 5 5 70 12
99 100 100 100 100 100 100 100 100 100 100 100 100 100 100 100 100 97 100 100 100 100 100 100 100 78 75 94 99 90 58 77 86 38 61 100 69 6 3 6 75 92 35 5
89 100 100 100 100 100 100 100 100 100 100 100 86 99 100 100 100 100 100 100 100 100 100 100 100 98 100 100 98 99 88 56 59 83 96 42 5 6 68 99 74 6 14 5
99 100 96 100 100 100 100 100 100 100 100 90 62 26 93 100 100 100 100 100 100 100 100 100 100 100 100 100 100 98 79 100 100 63 5 8 77 98 89 80 64 70 32 5
100 97 100 100 100 100 100 100 100 100 100 100 100 100 100 100 100 100 100 100 99 100 100 100 100 100 100 100 100 100 100 55 6 5 4 68 41 26 57 56 69 16 5 5
100 100 100 100 73 99 100 100 100 100 100 100 100 100 100 100 100 97 98 100 100 100 100 100 100 100 100 100 100 100 65 8 4 6 5 5 5 5 5 34 5 5 5 5

GFSCGP_prec_cloud_039.txt.gz
Cloud_Cover
100 62 90 95 48 70 60 19 87 57 94 100 50 0 0 0 0 0 0 0 0 0 0 0 0 0 0 0 0 0 0 7 0 0 1 7 12 50 74 81 100 100 85 100
100 98 82 100 100 100 43 27 36 7 7 2 2 0 0 0 0 0 0 0 0 0 0 0 0 0 0 0 0 0 0 0 0 0 0 0 0 69 61 73 95 100 95 100
100 100 100 100 100 81 86 80 96 37 8 5 5 0 0 0 0 0 0 0 0 0 0 0 0 0 0 0 0 0 0 0 0 0 0 0 31 88 100 98 100 100 100 100
100 100 74 70 92 100 100 56 5 5 84 94 4 4 0 0 0 0 0 0 0 0 0 0 0 0 0 0 0 0 0 0 0 0 0 0 0 12 66 92 100 100 100 100
100 100 100 100 99 33 59 6 5 6 77 81 85 100 0 0 0 4 0 0 0 0 0 0 0 0 0 0 0 0 0 0 0 0 0 0 0 18 35 100 100 100 100 92
100 100 95 43 25 12 68 28 78 96 100 88 4 59 0 0 5 34 5 0 0 0 0 0 0 0 0 0 0 0 0 0 0 0 0 0 0 18 72 100 100 100 100 14
99 67 94 97 93 100 100 100 86 75 99 38 0 15 0 0 1 2 49 0 0 0 0 0 0 0 0 2 0 0 0 0 0 0 0 1 48 88 100 100 100 97 50 40
98 100 25 26 43 74 100 100 40 26 48 5 4 4 0 0 0 0 40 22 0 0 0 0 0 0 0 2 0 0 0 0 0 0 2 31 69 100 100 100 100 97 11 8
99 89 32 5 5 38 61 96 11 35 17 83 3 0 0 0 0 0 1 99 8 0 0 0 0 0 4 16 0 0 0 0 0 0 5 74 100 100 100 98 96 60 35 5
89 100 22 5 13 10 10 61 99 100 100 100 19 31 83 2 12 0 1 17 97 1 1 1 0 0 7 5 0 0 0 0 4 92 100 100 100 100 71 72 68 86 93 6
100 100 45 96 63 96 100 100 100 100 100 100 100 84 93 6 72 3 1 4 80 1 1 5 8 5 14 12 1 0 0 36 77 100 100 98 57 12 5 61 100 100 99 64
91 99 76 17 100 100 86 87 100 100 100 100 100 20 100 86 28 5 78 37 28 4 2 17 0 5 25 40 46 40 52 100 100 100 90 67 5 5 5 88 100 100 94 56
48 92 78 100 96 98 92 100 100 100 100 100 100 100 100 12 98 100 100 100 26 6 18 7 5 8 31 58 84 100 100 100 100 100 98 100 68 10 8 71 87 96 66 21
88 89 100 99 99 100 100 100 100 100 100 99 79 52 46 83 100 100 100 100 76 7 5 5 7 32 60 74 100 100 100 100 100 100 97 100 91 20 42 28 58 65 55 100
100 100 100 100 87 100 100 100 100 100 76 100 97 75 92 100 100 100 100 100 100 84 67 23 22 83 98 100 100 100 100 100 100 100 100 99 79 68 69 56 21 61 100 99
100 100 93 100 100 100 100 100 100 100 100 100 50 45 100 100 100 100 100 100 100 100 85 26 55 100 100 100 100 100 100 94 96 88 100 100 53 71 47 52 100 100 100 44
100 100 100 88 100 100 99 100 100 100 100 100 100 94 100 100 100 100 100 100 100 100 100 94 98 100 95 75 44 72 53 18 66 100 100 56 93 72 100 100 100 92 92 73
100 100 100 100 100 91 100 100 100 100 100 100 100 100 100 100 100 100 100 100 100 100 100 100 69 54 43 59 100 100 100 100 100 99 88 100 100 100 96 78 85 98 90 95
86 100 100 100 100 100 100 100 100 100 100 100 100 100 99 100 100 100 100 100 100 100 89 22 18 41 88 100 100 100 100 100 100 100 95 100 99 100 100 99 98 100 28 5
100 100 100 100 100 100 100 100 100 100 100 100 100 100 100 100 100 100 100 100 100 100 100 100 100 100 100 100 100 100 100 100 100 73 86 100 100 98 100 100 38 5 5 5
100 100 100 100 100 100 100 100 100 100 100 100 100 100 100 100 99 100 100 100 100 100 100 100 100 100 100 100 100 100 100 100 89 100 100 81 88 100 94 14 5 5 5 27
100 100 100 100 100 100 100 100 100 100 100 100 100 100 100 100 100 100 100 100 100 100 100 100 100 100 100 100 100 100 100 100 100 99 100 96 100 91 9 34 9 7 67 66
35 90 100 100 100 100 100 100 100 100 100 100 100 100 100 100 100 100 100 100 100 100 100 100 100 100 100 100 100 100 100 100 100 100 97 100 61 42 7 5 5 51 15 5
15 86 99 32 81 100 100 100 100 100 100 100 100 100 100 100 100 100 100 100 100 100 100 100 100 100 100 100 100 100 100 100 100 100 100 54 34 5 5 5 5 5 5 5
99 98 70 80 47 83 100 96 80 100 100 100 100 100 100 100 100 100 100 100 100 100 100 100 100 100 100 100 100 100 100 100 99 85 96 44 5 5 5 5 5 5 5 5
100 51 80 86 94 100 100 100 100 100 100 100 100 100 100 100 100 100 100 100 100 100 100 100 100 100 100 100 100 100 100 100 63 10 5 5 5 5 5 5 5 5 5 5

GFSCGP_prec_cloud_042.txt.gz
Cloud_Cover
81 96 99 5 5 5 23 19 7 64 51 5 5 5 99 100 100 100 17 4 0 0 0 0 0 0 0 0 0 0 0 0 0 0 0 28 76 55 15 6 16 52 66 40
100 100 95 72 32 22 27 16 6 5 20 5 6 6 5 88 92 90 89 35 5 0 0 0 0 0 0 0 0 0 0 0 0 0 0 7 17 59 78 100 90 100 100 100
100 100 100 100 100 80 50 16 46 24 5 5 5 7 5 5 57 94 95 57 4 5 1 0 0 0 0 0 0 0 0 0 0 0 3 17 8 70 100 100 100 90 94 100
100 100 100 100 100 100 100 100 32 24 74 39 48 1 5 5 83 75 9 5 0 0 0 0 0 0 0 0 0 0 0 0 0 0 0 0 0 21 98 100 100 100 97 99
100 100 100 100 100 100 97 66 54 100 100 99 34 94 0 12 41 6 3 0 0 0 0 0 0 0 0 0 0 0 0 0 0 0 0 0 1 61 88 100 100 100 98 100
100 100 100 90 82 24 75 56 77 98 99 79 5 33 0 25 4 1 0 0 0 0 0 0 0 0 0 0 0 0 0 0 0 0 0 0 16 5 54 100 100 100 100 100
100 91 50 40 92 63 99 98 81 76 99 5 0 2 0 5 0 0 0 0 0 0 0 0 0 0 0 0 0 0 0 0 0 0 0 0 2 44 81 72 98 100 98 22
64 59 60 97 91 83 100 100 16 5 8 5 2 1 0 0 0 0 0 0 0 0 0 0 0 0 0 0 0 0 0 0 0 0 0 0 39 100 98 91 100 100 75 98
100 100 100 15 45 51 98 93 47 96 83 55 1 0 0 1 4 4 0 0 0 0 0 0 0 0 5 0 0 0 0 0 0 0 0 0 36 100 100 100 93 100 84 77
100 98 13 9 24 9 93 58 88 99 84 68 5 4 4 98 100 69 5 0 0 0 0 0 0 0 5 5 1 0 0 0 0 1 0 0 71 100 100 100 100 100 88 6
98 71 100 37 33 24 98 100 84 99 87 99 87 7 100 23 100 100 47 16 0 0 0 1 5 5 65 4 0 5 0 0 0 5 4 10 99 100 100 100 100 51 20 5
88 100 86 42 99 22 8 64 95 100 94 100 100 41 60 93 100 9 6 5 90 4 0 4 53 14 97 48 7 5 4 0 5 5 16 50 100 100 100 100 95 88 89 5
81 81 100 16 43 30 77 100 100 100 100 100 100 63 100 57 100 85 88 64 99 74 6 49 100 73 44 45 8 5 5 5 54 5 38 100 100 100 98 100 100 74 34 5
95 100 71 9 74 97 90 100 100 100 100 99 80 100 97 99 99 85 47 62 63 96 13 96 100 100 73 88 99 28 30 97 97 91 100 100 100 100 100 100 100 77 9 5
97 99 88 76 96 98 97 92 100 100 100 100 100 100 98 100 100 100 100 100 100 90 96 100 100 100 100 100 100 100 98 100 100 100 100 100 99 96 100 100 100 86 66 68
99 100 85 100 84 46 100 100 100 100 100 100 100 100 100 99 100 100 100 100 100 100 100 100 100 100 100 100 100 100 100 100 100 100 100 100 100 95 100 100 87 100 100 100
100 100 100 84 65 69 96 100 100 100 100 100 100 88 100 100 100 100 100 100 100 100 100 100 100 100 100 100 100 100 100 100 100 100 100 100 100 99 95 100 98 100 100 100
100 100 97 100 99 90 98 100 100 100 100 100 100 100 100 100 100 100 100 100 100 100 100 100 100 100 100 100 100 100 100 100 100 97 100 98 68 79 100 100 100 100 100 98
100 100 100 100 100 95 100 100 100 100 100 100 100 100 86 100 100 100 100 100 100 100 100 100 100 100 100 100 100 100 100 100 95 72 81 100 100 100 100 100 100 100 100 98
100 100 100 100 100 92 100 100 100 100 100 100 99 100 99 95 100 100 100 100 100 100 100 100 100 100 100 100 100 100 94 65 100 100 100 100 100 100 100 100 100 100 97 60
100 100 100 100 100 100 96 100 100 100 100 100 100 100 100 100 100 100 100 100 98 98 100 99 91 74 56 41 49 100 100 100 100 100 100 100 100 100 100 100 100 96 40 29
100 100 100 100 100 97 100 100 85 100 100 88 100 100 100 100 100 100 100 100 96 100 100 97 100 100 100 100 100 100 100 100 100 100 100 100 100 100 100 100 70 77 90 30
100 100 87 58 100 100 100 100 100 95 100 100 100 100 100 100 100 100 100 100 100 100 100 100 100 100 100 100 100 100 100 100 100 100 100 100 100 100 70 68 67 41 5 5
100 64 23 28 100 99 71 97 100 98 100 100 100 100 100 100 100 100 100 100 100 100 100 100 100 100 100 100 100 100 100 100 100 100 100 99 85 77 62 12 5 5 5 5
19 62 72 100 88 81 26 85 96 100 100 100 100 100 100 100 100 100 100 100 100 100 100 100 100 100 100 100 100 100 100 100 100 100 100 94 64 23 8 5 5 5 0 0
99 100 100 14 71 6 100 98 100 99 100 100 100 100 100 100 100 100 100 100 100 100 100 100 100 100 100 100 100 100 100 100 100 86 64 46 62 52 6 5 1 1 4 5

GFSCGP_prec_cloud_045.txt.gz
Cloud_Cover
100 96 100 100 100 100 100 100 100 100 100 100 82 5 5 13 5 5 0 1 5 5 15 5 3 2 0 0 0 0 0 0 0 0 0 0 20 90 100 100 100 45 18 0
100 100 100 45 83 100 100 100 100 99 86 24 5 5 5 94 88 49 49 5 5 30 96 100 100 29 5 0 0 0 0 0 0 0 0 0 90 94 100 100 92 34 5 27
100 100 100 100 50 55 93 73 11 5 5 5 5 9 15 89 100 92 28 34 5 5 5 5 2 4 5 4 0 0 0 0 0 0 0 12 14 21 68 100 74 58 77 100
100 100 100 100 100 84 70 54 7 5 27 5 10 6 98 100 100 73 13 8 5 5 5 5 0 0 0 5 5 0 0 0 0 0 0 0 0 0 22 89 100 100 100 98
100 100 100 100 100 100 100 100 87 62 100 85 5 46 95 93 100 100 85 97 9 1 0 0 0 0 0 0 0 0 0 0 0 0 0 0 0 0 45 100 100 100 80 100
100 100 100 100 100 100 100 100 100 100 100 88 19 38 58 95 88 1 1 5 0 0 0 0 0 0 0 0 0 0 2 0 0 0 0 0 0 0 38 100 100 100 99 100
100 100 100 100 100 100 100 100 100 96 100 49 30 17 33 11 3 0 0 0 0 0 0 0 0 0 0 0 0 0 5 2 0 0 0 0 27 0 6 78 94 100 100 93
100 100 100 100 100 100 100 100 100 81 60 80 3 3 22 1 26 0 0 0 0 0 0 0 0 0 0 0 0 0 1 5 5 5 0 60 4 0 8 91 100 100 100 100
98 75 86 97 97 98 98 85 41 96 48 5 4 5 4 2 1 0 0 0 0 0 0 0 0 0 0 0 0 0 0 0 3 5 10 11 0 1 40 96 100 100 100 100
100 92 71 65 79 20 78 76 83 97 81 13 4 4 5 71 78 66 2 50 65 100 100 94 12 0 0 0 0 0 0 0 5 5 5 4 0 44 91 100 100 100 100 100
92 100 100 100 45 15 50 91 79 82 96 69 41 5 88 83 10 43 5 5 5 4 0 4 74 13 0 0 0 42 51 0 25 95 80 8 5 56 100 100 100 100 98 100
100 99 91 60 5 66 89 60 54 100 70 100 92 6 100 97 100 10 5 7 5 95 64 4 5 99 0 21 28 100 87 3 11 91 98 5 29 90 100 100 100 100 76 100
95 77 84 81 73 100 68 26 97 99 100 98 100 20 100 100 100 85 79 65 4 94 100 100 100 38 96 100 100 100 63 43 30 100 77 28 100 100 100 100 100 100 100 98
60 100 50 25 96 91 90 44 80 100 100 70 85 49 5 93 99 100 100 100 99 5 48 7 85 14 100 100 100 100 94 100 99 99 74 100 100 100 100 100 90 98 95 91
99 97 100 100 92 62 70 96 100 100 100 100 99 100 97 100 100 100 100 100 100 100 54 48 5 95 100 100 99 100 100 100 100 76 98 98 100 100 100 100 87 69 90 100
100 100 100 100 65 62 83 91 98 100 100 100 100 100 100 100 100 100 100 100 100 100 99 100 100 100 100 100 100 100 100 100 100 97 95 100 100 98 92 23 52 82 92 100
100 100 100 57 13 5 37 27 88 100 100 100 100 97 100 100 100 100 100 100 100 100 100 100 100 100 100 100 100 100 100 100 100 100 100 100 100 68 62 76 82 100 100 100
100 100 100 79 69 85 100 99 100 100 100 100 80 70 100 100 100 100 100 100 100 100 100 100 100 100 100 100 100 100 100 100 100 100 100 100 100 80 94 100 100 100 100 100
100 100 100 79 92 100 100 100 84 100 100 100 100 97 100 100 100 100 100 100 100 100 100 100 100 100 100 100 100 100 100 100 100 100 100 100 100 100 98 100 100 100 100 100
100 100 100 100 86 80 100 80 100 94 100 100 100 100 98 100 100 100 100 100 100 100 100 100 100 100 100 100 100 100 100 100 100 100 100 100 100 100 100 100 100 100 100 100
100 100 100 100 99 82 98 87 79 100 91 100 100 100 100 100 100 100 100 100 100 100 100 100 100 100 100 100 100 100 100 100 100 100 98 86 99 100 100 100 100 100 100 100
100 100 100 100 100 51 86 100 100 100 100 92 100 100 100 100 100 100 100 100 100 100 100 100 100 100 100 100 100 98 76 81 90 89 100 100 100 100 100 100 100 100 100 100
100 100 100 100 18 7 67 100 100 100 100 96 88 100 100 100 100 100 100 100 100 100 100 100 100 93 76 85 98 100 100 100 100 100 100 100 100 100 100 100 100 100 100 100
100 100 100 100 73 49 24 71 96 89 100 93 93 100 100 100 100 100 100 100 100 100 100 100 100 100 100 100 100 100 100 100 100 100 100 100 100 100 100 100 100 100 100 100
100 100 100 97 8 7 32 40 100 99 94 99 97 91 100 100 100 100 100 100 100 100 100 100 90 100 100 100 100 100 100 100 100 100 100 100 100 100 100 100 100 100 95 39
100 100 100 95 68 40 11 84 79 96 92 100 99 100 100 99 97 100 100 100 100 100 100 100 100 100 100 100 100 100 100 100 100 100 100 100 100 100 100 100 66 5 5 5

GFSCGP_prec_cloud_048.txt.gz
Cloud_Cover
100 100 49 100 100 100 100 100 100 100 100 100 94 46 99 15 5 5 5 5 5 5 5 3 2 0 0 5 0 4 0 0 0 0 0 0 0 38 100 100 100 89 28 4
100 100 100 18 98 100 100 100 100 100 100 100 100 100 100 100 16 6 46 67 9 5 0 5 3 0 4 1 5 58 64 5 13 0 0 0 1 14 54 70 97 100 93 1
97 100 100 100 89 73 100 100 100 100 100 100 100 79 78 87 100 100 99 38 5 1 5 5 4 2 3 5 24 43 16 10 5 0 0 0 0 54 10 3 79 50 90 5
100 98 100 100 100 100 87 60 100 100 100 100 100 99 95 9 99 89 5 5 4 0 0 0 0 0 0 0 1 47 46 5 0 5 0 0 0 1 0 0 0 16 100 41
44 34 19 49 100 100 100 100 59 5 5 9 5 5 74 91 10 9 5 5 4 2 3 4 4 4 5 0 0 1 5 46 1 0 0 0 0 0 8 53 24 100 100 100
49 39 11 5 7 99 100 100 100 91 28 91 5 4 5 100 95 7 2 2 4 5 5 5 5 2 0 0 3 5 0 4 11 1 0 0 0 0 0 44 96 100 100 100
100 100 100 100 100 100 100 100 100 100 100 77 50 35 8 100 2 5 64 51 8 15 5 5 5 2 0 0 0 0 0 0 5 5 0 0 0 0 0 0 35 40 100 100
100 100 100 100 100 100 100 100 100 100 99 99 15 30 100 100 100 33 5 5 5 2 0 0 0 0 0 0 0 0 0 0 2 2 3 0 0 5 5 3 6 50 100 100
100 100 100 100 100 100 100 99 100 93 74 43 100 100 100 96 79 58 3 2 0 0 0 0 0 0 0 0 0 0 0 0 0 0 0 11 4 5 5 6 72 100 100 100
100 100 100 100 100 100 96 85 100 100 67 100 62 90 80 89 53 3 5 58 44 5 1 5 5 62 67 14 0 0 0 0 0 0 8 73 23 4 5 21 99 100 100 100
100 74 100 93 59 98 100 100 98 77 85 78 90 61 1 3 30 70 92 28 30 7 4 6 92 95 35 5 6 6 0 0 36 28 98 83 5 5 5 59 100 100 100 100
100 100 100 27 46 11 80 27 25 36 16 34 40 16 6 40 43 12 28 35 5 5 4 5 3 3 0 0 0 5 0 27 100 100 100 29 2 5 31 100 100 100 100 100
99 100 95 100 62 93 12 50 57 75 79 51 98 13 78 10 44 96 100 90 95 100 93 29 33 5 7 89 99 27 86 100 100 99 29 4 2 68 100 100 100 100 100 100
96 100 12 58 86 85 59 66 61 96 99 87 81 9 36 78 96 13 52 99 97 100 82 54 100 1 100 100 100 100 100 100 92 4 5 70 86 100 100 100 100 100 100 100
73 29 8 71 100 100 28 10 28 79 78 100 100 100 100 82 100 45 23 100 100 100 74 100 53 41 100 97 100 100 100 100 81 5 32 100 100 100 100 100 100 100 100 100
69 75 49 93 98 9 7 61 48 100 100 100 100 100 85 100 100 100 100 100 100 100 94 38 4 93 100 100 100 100 100 100 79 10 100 100 100 100 100 100 100 100 100 100
72 87 100 100 14 56 55 9 18 33 99 100 100 97 91 100 100 100 100 100 100 100 86 22 60 100 100 100 100 100 96 100 100 100 100 100 100 100 100 100 100 100 100 100
100 99 100 89 82 93 80 99 38 20 92 100 100 100 100 100 100 100 100 100 100 100 100 100 100 100 100 100 100 100 100 100 100 100 100 100 100 100 100 100 100 100 99 100
100 100 100 77 100 86 100 93 20 80 73 100 100 100 100 100 100 100 100 100 100 100 100 100 100 100 100 100 100 100 100 100 100 100 100 100 100 100 100 100 100 100 100 92
100 100 100 100 91 36 100 63 42 100 100 100 100 100 43 96 100 100 100 100 100 100 100 100 100 100 100 100 100 100 100 100 100 100 100 100 100 100 100 100 100 100 100 100
100 100 100 100 100 73 84 25 97 100 93 100 100 100 100 100 96 100 100 100 100 100 100 100 100 100 100 100 100 100 100 100 100 100 100 100 100 100 100 100 100 100 100 100
100 92 100 100 100 55 25 10 86 100 98 100 98 98 100 98 100 100 100 100 100 100 100 100 100 100 100 100 100 100 100 100 100 100 100 100 100 100 100 98 100 100 100 100
87 100 100 84 98 94 6 6 76 100 55 98 100 79 99 100 48 98 100 100 100 100 100 100 100 100 100 100 100 100 100 100 100 100 100 100 100 100 100 100 100 100 100 100
100 100 100 100 100 49 56 77 84 64 19 80 100 100 100 100 100 100 100 100 100 100 100 100 100 100 98 100 100 100 100 100 100 100 100 100 100 100 100 100 100 100 100 100
100 100 100 100 87 55 37 82 47 66 89 99 100 94 100 100 99 100 100 100 100 100 100 100 100 100 100 100 100 100 100 100 100 100 100 100 100 100 100 100 100 100 100 75
97 100 100 100 92 86 52 11 59 56 88 100 99 74 100 100 100 100 100 100 100 100 100 100 100 100 100 100 100 100 100 100 100 100 100 100 100 100 100 100 100 49 6 5

GFSCGP_prec_cloud_051.txt.gz
Cloud_Cover
87 100 70 88 100 100 100 100 100 100 100 100 100 100 100 100 100 100 100 78 89 46 5 5 5 4 0 0 0 0 0 0 0 0 0 0 0 0 0 0 63 0 0 0
100 100 100 100 51 94 100 100 100 100 100 100 100 100 100 100 100 100 99 34 11 5 8 57 7 4 1 5 5 2 0 0 0 0 0 1 5 8 4 5 98 99 8 0
100 100 100 100 100 96 89 100 100 100 100 100 100 100 100 100 100 100 95 92 46 24 5 10 5 7 66 56 23 5 4 0 0 0 0 0 4 21 25 14 22 98 7 0
100 100 100 100 53 26 38 93 100 100 100 100 100 100 100 100 100 100 100 100 100 100 97 83 5 5 5 5 5 5 5 5 4 5 1 0 2 8 69 6 3 11 9 2
100 100 100 100 100 92 100 100 100 76 100 100 100 57 100 100 100 100 100 100 100 100 90 21 5 5 5 4 5 1 0 5 5 5 5 0 0 15 87 20 5 91 42 38
100 100 100 100 100 100 100 91 45 68 38 100 100 100 100 100 100 100 87 56 43 5 5 3 1 2 5 5 3 0 0 5 0 0 0 0 0 4 1 45 7 20 47 59
100 100 100 100 100 100 72 100 100 98 99 96 79 98 100 100 100 98 39 5 5 4 5 5 5 0 0 1 1 1 1 1 0 0 0 0 0 0 0 4 5 9 51 80
100 66 100 100 100 100 93 6 12 30 66 36 20 98 100 66 4 12 100 96 91 85 36 27 23 29 27 6 5 4 0 0 0 0 0 0 0 0 0 2 5 47 95 86
100 93 51 52 11 8 5 32 53 77 5 16 6 57 100 100 100 95 56 38 17 22 9 5 5 5 5 4 0 3 2 0 0 0 0 0 0 0 3 7 63 100 100 100
100 100 98 43 89 96 84 58 100 91 55 98 99 100 100 100 71 38 6 5 10 16 13 15 4 0 0 0 0 0 0 0 0 0 0 0 0 3 51 62 18 92 100 100
100 100 98 100 54 99 100 100 100 100 100 100 100 100 97 69 6 5 12 13 8 24 26 5 5 2 0 0 0 0 5 5 0 0 0 0 0 5 3 7 5 43 100 100
100 100 100 78 100 100 100 100 96 100 95 72 84 100 98 76 90 6 5 0 0 5 4 53 21 5 3 66 0 0 0 3 35 0 0 1 5 5 0 15 5 92 100 100
98 100 99 100 100 94 83 52 70 69 98 32 49 40 36 63 16 5 73 5 3 5 69 17 100 100 100 3 3 5 4 0 38 100 42 31 54 40 97 82 91 100 100 100
81 67 82 96 72 98 55 33 31 97 72 95 16 35 5 25 94 34 5 7 5 7 86 100 100 100 67 78 33 45 5 5 61 20 100 94 100 100 100 99 100 100 100 100
100 79 22 36 64 75 10 14 64 98 52 82 7 39 12 100 95 98 99 97 96 100 100 100 100 100 24 91 94 29 98 99 100 99 83 100 100 100 99 100 100 100 100 100
93 53 53 6 46 75 45 95 90 34 51 97 98 77 100 100 100 100 100 100 100 100 100 100 100 57 72 5 60 100 100 100 100 100 100 100 100 100 100 100 100 100 100 100
99 99 92 98 100 100 93 15 19 26 20 100 100 84 100 100 100 100 100 100 100 100 100 100 100 90 6 17 96 100 100 100 100 100 100 100 46 100 100 100 100 100 100 100
98 99 78 100 92 40 5 7 77 26 80 100 100 100 100 100 88 100 100 100 100 100 100 100 100 67 89 100 100 100 100 100 100 100 100 93 100 100 100 100 100 100 100 100
94 92 100 89 27 10 85 100 85 7 76 98 100 70 100 85 53 100 100 100 100 100 100 100 100 100 100 100 100 100 100 100 100 100 100 100 100 100 100 100 100 100 100 100
100 100 100 100 47 67 99 88 67 8 75 78 100 100 100 89 93 99 100 100 100 100 100 100 100 100 100 100 100 100 100 100 100 100 100 100 100 100 100 100 100 100 100 100
100 100 100 100 59 39 100 82 66 75 59 100 100 100 100 99 100 100 100 100 100 100 100 100 100 100 100 100 100 100 100 100 100 100 100 100 100 100 100 100 100 100 100 91
100 100 100 100 73 70 68 22 57 9 97 79 100 100 100 96 100 100 100 100 100 100 100 100 100 100 100 100 100 100 100 100 100 100 100 100 100 100 100 100 100 100 100 100
94 42 47 64 98 100 27 12 15 12 5 43 97 100 100 100 100 100 100 100 100 100 100 100 100 100 100 100 100 100 100 100 100 100 100 100 100 100 100 100 100 100 100 100
57 98 100 94 97 83 32 5 29 64 64 23 75 100 97 100 100 100 100 100 100 100 100 100 100 99 100 100 100 100 100 100 100 100 100 100 100 100 100 100 100 100 100 100
86 62 98 100 100 94 19 39 69 32 31 53 63 42 100 100 100 100 100 100 100 100 100 100 100 100 100 100 100 100 100 100 100 100 100 100 100 100 100 100 100 100 100 100
64 69 100 100 100 100 56 7 5 59 11 77 31 93 100 100 100 100 100 100 100 100 100 100 100 100 100 100 100 100 100 100 100 100 100 100 100 100 100 100 100 100 97 32

GFSCGP_prec_cloud_054.txt.gz
Cloud_Cover
100 100 100 85 100 100 100 100 100 100 100 100 100 100 100 100 100 100 100 100 100 100 99 98 100 52 5 5 4 4 8 52 5 2 2 20 5 9 99 95 98 14 7 1
100 100 100 100 100 100 100 100 100 100 100 100 100 100 100 100 100 100 100 100 100 100 100 100 96 62 79 90 5 5 1 1 4 1 0 0 0 5 5 93 100 100 100 86
100 100 100 100 100 100 100 100 100 100 100 100 100 100 100 100 100 100 100 100 100 100 100 100 100 100 100 73 34 5 5 5 11 13 9 62 49 56 73 69 80 100 70 54
100 100 100 100 100 100 100 100 100 100 100 100 100 100 100 100 100 100 100 100 100 100 100 100 100 100 100 85 80 61 82 74 18 34 11 24 14 14 14 5 5 21 13 5
100 100 100 100 100 53 87 100 100 100 100 100 100 100 100 100 100 100 100 100 100 100 100 100 100 100 100 100 100 100 100 100 91 47 72 7 5 10 32 16 5 5 51 93
100 100 100 90 100 100 100 88 98 100 100 100 100 100 100 100 100 100 100 100 100 100 100 100 100 100 100 100 100 100 100 100 74 60 10 4 7 24 76 25 13 5 4 4
100 100 100 100 90 100 100 98 86 19 64 13 79 100 100 100 100 100 100 100 100 84 42 51 97 100 100 100 100 84 9 5 5 1 1 0 3 5 8 41 22 3 4 15
100 100 100 100 100 100 100 100 100 82 62 11 12 30 93 100 100 100 100 94 82 81 87 90 62 20 5 5 5 4 4 2 0 0 0 0 0 0 0 6 1 2 0 4
100 100 100 100 100 100 100 100 100 100 62 37 87 100 72 5 6 87 100 100 100 100 98 65 50 28 22 5 7 4 3 4 5 5 0 1 0 1 0 0 0 0 0 1
100 100 100 100 96 100 100 100 100 100 100 95 22 94 24 12 5 5 5 10 28 46 61 57 49 26 16 5 3 3 0 3 2 0 0 0 0 0 0 1 2 0 3 2
100 100 100 100 100 100 100 81 77 70 89 100 99 16 12 49 5 5 5 5 5 54 100 86 11 3 2 2 5 5 1 0 10 0 0 0 12 7 0 0 1 5 4 46
100 100 100 100 100 100 100 24 9 5 62 49 66 100 100 45 68 98 99 98 66 10 1 2 2 0 0 5 5 5 4 2 0 0 3 0 0 22 21 45 64 100 100 100
100 100 100 100 100 100 38 9 81 46 99 36 91 99 97 92 98 88 96 30 5 5 5 6 5 5 5 41 94 14 7 14 1 1 0 2 25 47 56 26 50 67 99 100
100 100 100 100 100 100 68 87 100 100 84 90 44 99 82 56 80 100 100 100 100 100 100 100 100 91 92 98 100 50 78 100 100 100 68 7 38 36 71 60 76 100 100 100
100 100 100 100 100 98 99 98 100 50 93 90 5 47 5 69 100 100 100 83 100 88 67 100 100 100 100 100 100 100 100 100 100 100 87 98 56 26 82 100 100 100 100 100
100 100 100 100 100 54 59 100 11 5 99 70 54 15 100 100 100 100 100 100 100 100 100 100 100 100 100 75 29 5 5 97 96 100 100 100 100 100 100 100 100 100 100 100
85 73 92 100 100 96 14 52 98 27 31 92 99 92 100 96 100 100 100 100 100 100 100 100 100 100 100 44 11 12 89 100 100 100 100 100 100 91 100 100 100 100 100 100
100 81 84 100 100 76 100 67 34 39 43 86 100 100 100 100 99 100 100 100 100 100 100 100 100 96 94 100 100 100 100 100 100 100 100 100 100 100 100 100 100 100 100 100
100 95 67 99 100 99 11 5 59 45 75 100 100 100 83 100 65 100 100 100 100 100 100 100 100 100 100 100 100 100 100 100 100 100 100 100 100 100 100 100 100 100 100 100
100 100 88 100 97 45 21 100 67 53 42 40 100 95 98 100 100 99 98 100 100 100 100 100 100 100 100 100 100 100 100 100 100 100 100 100 100 100 100 100 100 100 100 100
100 100 100 96 100 35 100 100 39 31 43 86 97 78 99 100 96 100 99 100 100 100 100 100 100 100 100 100 100 100 100 100 100 100 100 100 100 100 100 100 100 100 100 100
92 92 98 97 98 98 100 98 38 72 97 77 74 100 80 100 100 100 99 95 98 100 100 100 100 100 100 100 100 100 100 100 100 100 100 100 100 100 100 100 100 100 100 100
82 70 74 35 34 14 98 33 99 85 60 72 74 50 100 67 100 100 100 100 100 100 100 100 97 100 100 100 100 100 100 100 100 100 100 100 100 93 100 100 100 95 95 84
45 82 38 45 92 91 50 64 98 68 38 74 83 77 86 100 100 100 100 100 100 100 100 100 100 100 100 100 100 100 100 100 100 100 100 96 95 89 100 100 100 100 100 100
48 97 100 20 100 74 88 72 98 13 5 88 97 90 58 100 100 100 100 99 100 100 86 83 55 100 100 100 100 100 100 100 100 100 100 100 100 100 100 100 100 100 100 100
16 37 8 57 61 92 100 98 15 5 5 64 96 89 84 100 100 100 100 100 100 92 100 100 100 87 84 100 100 100 100 100 100 100 100 100 100 100 100 100 100 96 67 46

GFSCGP_prec_cloud_057.txt.gz
Cloud_Cover
100 100 100 100 100 100 100 100 100 100 100 100 100 100 100 100 100 100 100 100 100 100 100 100 100 71 42 22 5 5 7 14 4 8 92 100 100 61 33 50 67 48 12 13
100 100 100 100 100 100 98 100 100 100 100 100 100 100 100 100 100 100 100 100 100 100 100 100 100 100 100 59 17 10 5 6 40 6 11 17 34 44 23 67 86 54 51 6
100 100 100 100 100 100 100 98 100 100 100 100 100 100 100 100 100 100 100 100 100 100 100 100 100 100 100 100 84 83 18 5 7 64 100 79 76 96 91 72 21 92 68 5
100 100 100 100 100 100 100 100 100 100 100 100 100 100 100 100 100 100 100 100 100 100 100 100 100 100 100 100 87 35 32 41 73 94 100 95 9 9 20 17 4 5 5 5
100 100 100 98 100 56 92 100 100 72 100 100 100 100 100 100 100 100 100 100 100 100 100 100 100 100 100 98 100 100 100 89 12 38 65 41 5 49 92 100 33 17 6 7
100 100 100 100 100 100 100 100 100 100 48 76 100 100 100 100 100 100 100 100 100 100 100 100 100 100 100 100 100 100 100 100 100 100 98 87 100 100 100 100 100 79 47 6
100 100 100 100 100 100 100 100 29 28 56 27 100 100 100 100 100 100 100 100 100 100 98 74 100 100 100 100 100 100 100 100 100 100 100 68 26 29 96 100 94 76 93 80
100 100 100 100 100 100 98 13 5 96 100 100 98 89 100 100 100 100 69 85 100 100 100 98 100 100 100 100 100 100 89 56 49 77 89 95 89 54 16 18 26 91 43 86
70 100 100 100 100 100 100 100 100 100 100 60 94 90 6 89 100 100 100 77 79 100 100 92 45 86 95 67 46 40 16 6 5 5 4 4 13 19 5 6 9 6 51 97
95 70 100 100 100 100 100 100 100 100 100 100 100 96 69 9 5 43 75 79 98 93 41 17 51 76 86 90 60 26 5 6 5 4 5 1 11 7 28 57 77 32 0 1
100 99 100 100 100 100 100 100 100 87 84 100 100 100 78 56 5 5 5 5 4 4 4 5 5 5 5 4 5 4 3 4 2 2 4 25 46 33 19 15 5 5 5 5
100 100 100 100 100 100 100 100 100 100 100 100 100 100 97 11 5 5 5 5 5 5 6 5 5 5 10 5 5 5 5 4 0 5 18 48 64 45 31 38 41 23 21 18
100 100 100 100 100 100 100 100 100 100 100 100 100 88 82 10 24 37 98 100 100 77 96 78 38 42 98 20 5 5 5 5 5 27 64 47 58 64 88 100 100 100 100 83
100 100 100 100 100 100 100 96 45 99 66 62 39 5 75 86 12 43 100 73 45 75 5 5 5 10 23 5 14 68 92 87 82 100 100 88 100 100 100 100 100 100 100 100
100 100 100 100 100 100 100 100 100 80 63 35 16 5 30 90 99 92 99 70 100 96 32 5 9 32 84 68 100 24 37 100 90 100 100 100 100 100 100 100 100 100 100 100
100 100 100 100 100 100 100 100 100 100 100 5 52 80 100 96 100 100 100 63 100 90 52 52 99 100 100 100 15 13 64 15 71 100 100 100 100 100 100 100 100 100 100 100
100 100 100 100 100 100 100 100 100 96 100 68 74 99 100 97 100 100 100 95 65 100 94 100 100 100 100 100 67 99 77 100 93 100 100 100 100 100 100 100 100 100 100 100
100 100 100 100 100 100 100 99 82 53 38 64 99 100 100 100 100 100 100 98 100 100 100 100 100 100 100 100 100 100 100 100 100 100 100 100 100 100 100 100 100 100 100 100
100 100 100 100 100 77 6 68 100 61 92 98 88 100 78 100 97 89 60 47 82 100 100 100 100 100 100 100 100 100 100 100 100 100 100 100 100 100 100 100 100 100 100 100
100 100 85 100 98 38 99 98 99 100 82 98 70 96 86 86 73 100 100 30 13 99 100 100 100 100 100 100 100 100 100 100 100 100 100 100 100 100 100 100 100 100 100 100
100 100 100 100 99 94 38 92 100 99 94 100 82 75 100 100 100 100 99 18 63 100 100 100 100 100 100 100 100 100 100 100 100 100 100 100 100 100 100 100 100 100 100 100
99 90 96 100 96 68 15 100 100 92 100 100 89 78 99 86 100 100 100 82 40 100 100 100 100 100 100 100 100 100 100 100 100 100 100 100 100 100 100 100 100 100 100 99
65 36 84 21 45 32 100 100 99 93 100 89 64 86 98 74 99 100 100 79 58 68 100 90 100 100 100 100 100 100 100 100 100 100 100 100 100 100 100 100 100 100 100 100
73 69 57 21 98 98 100 100 100 88 100 5 58 98 94 74 100 100 97 95 77 89 100 100 96 100 100 100 100 100 100 100 100 100 100 100 100 100 100 100 100 100 100 100
45 83 89 97 100 73 100 98 100 100 51 28 45 79 100 60 100 100 100 51 64 100 100 84 100 100 100 100 100 100 100 100 100 100 100 100 100 100 100 100 100 100 100 100
36 52 24 82 79 86 76 94 100 93 49 42 34 78 93 96 100 100 100 98 36 68 97 75 100 100 100 100 100 100 100 92 100 100 100 100 100 100 95 82 100 80 68 64

GFSCGP_prec_cloud_060.txt.gz
Cloud_Cover
100 100 100 100 100 100 100 100 100 100 100 100 100 90 100 100 100 100 100 100 100 100 100 100 100 100 100 98 100 69 73 49 32 97 100 100 100 100 100 99 94 100 71 11
100 100 100 100 100 100 100 100 100 100 100 100 100 100 100 100 100 100 100 83 99 100 100 100 100 100 100 100 100 96 99 100 94 54 75 80 70 100 100 100 98 97 26 17
100 100 100 100 100 100 100 100 100 100 100 100 100 100 100 100 100 100 100 70 68 100 100 100 100 100 100 100 100 100 100 100 100 100 100 100 100 100 100 100 99 21 8 6
100 100 100 100 100 100 100 100 100 100 100 100 100 100 100 100 100 100 100 90 60 100 100 100 100 100 100 100 100 100 100 96 98 100 100 100 100 97 100 72 61 67 48 15
100 100 100 100 100 100 100 100 100 100 99 100 100 100 100 100 100 100 100 100 99 32 80 100 100 100 100 100 100 100 100 100 100 100 100 100 100 100 100 100 100 81 46 87
100 100 100 100 100 100 100 100 98 100 72 91 100 100 100 100 100 100 100 100 100 100 69 46 9 36 82 100 100 100 100 100 73 82 62 98 100 100 100 100 100 100 100 99
88 100 100 100 100 100 85 100 86 40 98 100 96 100 100 100 100 100 100 100 100 100 100 100 100 92 100 100 100 100 100 100 100 100 100 97 97 100 100 100 100 100 100 100
100 100 100 100 100 100 99 91 94 100 64 25 99 75 73 100 100 100 100 100 100 100 100 96 100 100 97 77 30 74 99 100 100 100 100 100 100 92 6 5 8 59 100 100
95 96 100 100 100 100 100 100 72 94 100 83 100 100 100 100 100 100 100 94 100 100 100 100 100 84 80 99 100 100 100 92 61 99 100 100 100 99 82 13 8 20 10 47
73 98 100 100 100 100 100 100 99 97 100 100 100 100 99 80 5 5 12 77 95 29 26 81 100 100 94 55 72 68 65 58 44 11 19 44 38 6 5 24 37 31 49 70
92 100 100 100 100 100 100 100 100 100 100 100 100 99 67 11 49 99 26 68 17 5 5 5 13 35 86 68 35 29 27 13 12 5 5 4 15 41 48 50 55 51 52 94
100 100 100 100 100 100 100 100 100 100 100 100 100 89 54 6 55 100 91 5 5 5 5 5 5 5 2 6 6 6 5 0 2 8 22 87 100 100 100 100 100 97 100 100
100 100 100 100 100 100 100 100 100 100 100 100 100 100 32 15 58 7 9 74 47 5 23 5 5 5 5 4 1 2 3 4 5 5 12 100 100 100 100 100 100 100 100 100
100 100 100 100 100 100 100 100 100 100 100 100 88 82 55 97 6 5 49 99 52 34 18 5 5 26 5 5 5 14 5 5 5 5 6 68 100 100 100 100 100 100 100 100
100 100 100 100 100 100 100 100 100 100 100 100 100 64 59 53 21 29 89 100 23 11 27 40 26 9 5 26 22 92 11 5 5 5 5 91 100 100 100 100 100 100 100 100
100 100 100 100 100 100 100 100 100 100 100 96 67 52 100 100 99 100 100 100 22 6 59 53 54 9 98 54 28 5 5 5 5 28 20 100 100 100 100 100 100 100 100 100
100 100 100 100 100 100 100 100 100 85 71 5 5 81 100 100 100 100 97 100 99 92 100 100 94 81 59 99 100 65 51 89 52 100 100 100 100 100 100 100 100 100 100 100
100 100 100 100 100 100 100 100 100 100 41 41 86 100 100 99 100 100 100 81 21 8 100 100 100 40 100 100 100 100 100 100 100 100 100 100 100 100 100 100 100 100 100 100
100 100 100 100 100 100 100 100 100 100 100 63 97 92 100 100 100 98 96 100 10 5 65 100 100 100 100 100 100 100 100 100 100 100 100 100 100 100 100 100 100 100 100 100
90 94 98 82 84 100 100 100 99 92 99 100 88 91 100 100 94 100 100 100 6 53 85 100 100 100 100 100 100 100 100 100 100 100 100 100 100 100 100 100 100 100 100 100
100 97 94 100 92 100 95 85 93 91 96 100 100 92 96 86 90 100 100 100 21 100 100 100 100 100 100 100 100 100 100 100 100 100 100 100 100 100 100 100 100 100 100 100
97 85 91 99 96 62 5 77 99 98 94 100 99 72 87 98 98 100 90 100 34 99 100 100 100 100 100 39 90 100 100 100 100 100 100 100 100 100 100 100 100 100 100 100
64 46 82 16 74 36 100 93 95 96 90 99 92 22 86 100 100 100 30 88 51 100 98 100 100 100 100 99 100 100 100 100 100 100 100 100 100 98 100 100 100 100 100 100
8 62 70 17 80 57 92 100 100 100 36 73 83 72 48 92 100 100 100 99 100 100 100 100 100 100 100 100 100 100 100 100 100 100 81 85 88 100 100 100 98 100 96 100
8 32 40 50 54 97 84 100 100 100 89 53 68 96 62 58 100 100 100 100 100 100 99 100 100 100 100 100 100 100 100 100 100 100 100 100 100 100 100 100 100 100 100 100
99 35 32 89 71 70 35 100 100 100 99 77 80 70 86 72 97 100 100 98 100 98 68 100 100 99 100 100 100 100 99 67 88 100 95 100 100 100 98 90 78 73 48 44

GFSCGP_prec_cloud_063.txt.gz
Cloud_Cover
100 100 100 100 100 91 100 100 100 100 100 100 100 100 100 100 100 100 100 100 100 100 100 100 100 100 100 100 96 46 8 54 56 100 100 100 100 100 100 100 88 83 97 100
100 100 100 100 100 100 100 100 100 100 100 100 100 96 100 100 100 100 100 96 12 27 100 100 100 100 100 100 100 100 100 100 80 76 100 100 100 100 100 100 100 89 53 71
100 100 100 100 99 100 100 100 100 100 100 100 100 100 100 100 100 100 100 98 100 100 100 100 100 100 100 100 100 100 100 98 73 70 100 100 96 97 100 100 100 100 71 100
100 100 100 100 100 100 100 100 100 100 100 100 100 100 100 100 100 57 95 86 80 92 66 56 100 100 100 100 100 100 100 100 100 100 100 100 100 100 100 100 100 100 100 100
100 100 100 100 100 100 100 100 100 100 100 100 100 100 100 100 100 99 100 98 93 87 87 99 99 98 92 98 100 100 100 100 100 100 100 100 100 100 100 100 100 100 100 100
100 100 100 100 100 100 100 100 100 95 100 100 100 100 100 100 100 100 100 100 100 98 59 46 21 5 5 16 79 100 100 96 100 100 100 100 100 100 100 100 100 100 100 100
100 100 100 100 100 100 100 100 100 100 41 100 100 100 100 100 100 100 100 100 100 100 74 89 76 52 9 5 5 71 100 100 100 100 100 100 100 100 100 100 100 100 100 100
100 100 100 100 100 100 100 94 97 98 98 90 100 100 100 100 100 100 100 100 100 100 100 100 100 98 100 97 91 100 100 100 99 92 100 100 99 90 94 100 100 100 100 100
100 100 100 100 100 98 100 100 100 96 99 100 100 98 100 97 81 30 93 100 100 100 100 100 100 100 100 100 100 77 48 31 36 94 100 99 98 100 100 100 100 100 99 100
99 100 100 100 100 100 75 99 97 94 100 100 100 100 47 15 6 52 5 7 91 100 100 100 100 100 100 100 100 100 100 100 100 100 95 53 44 9 5 8 5 38 44 78
100 96 100 80 95 100 100 100 80 31 100 100 99 82 70 86 72 21 44 93 35 15 59 94 99 97 100 100 100 97 40 54 46 32 15 50 91 92 90 86 88 98 100 100
44 53 98 100 100 100 100 100 100 100 99 100 100 100 100 100 93 87 99 89 7 0 20 13 5 14 36 95 99 76 10 7 5 5 61 100 100 100 100 100 100 100 100 100
81 100 100 97 100 100 100 100 100 100 79 99 98 92 64 80 100 100 12 5 4 5 5 20 45 36 32 76 25 3 4 3 0 1 9 52 23 46 74 100 100 100 100 100
86 100 100 100 100 100 100 100 100 100 100 100 100 100 10 100 100 72 5 5 5 5 5 7 5 38 32 5 4 5 5 5 4 5 10 49 98 70 49 100 100 100 100 100
100 100 100 100 100 100 100 100 100 100 100 99 100 100 100 100 100 97 90 22 89 83 5 17 98 5 5 5 5 5 5 3 0 0 0 16 53 84 99 100 100 100 100 100
100 100 100 100 100 100 100 100 100 100 100 100 99 99 100 100 100 100 100 100 100 100 100 94 100 35 5 5 5 5 5 4 0 5 0 28 100 100 100 100 100 100 100 100
100 100 100 100 100 100 100 100 100 100 100 100 100 74 100 100 100 100 100 100 100 66 24 100 100 99 5 5 5 5 5 5 76 59 100 96 100 100 100 100 100 100 100 100
100 100 100 100 100 100 100 100 100 98 92 53 84 100 100 100 100 100 100 100 100 84 44 67 100 98 13 5 5 5 5 41 59 98 100 100 99 100 100 100 100 100 100 100
100 100 100 100 100 100 100 100 100 80 63 62 91 100 100 100 97 91 86 100 100 55 17 98 100 100 100 95 83 62 97 90 100 100 100 100 100 100 100 100 100 100 100 100
100 100 99 72 57 92 100 98 93 89 99 100 96 100 100 100 90 90 100 100 100 38 26 90 100 100 100 100 96 100 99 100 100 100 100 100 100 100 100 100 100 100 100 100
83 100 88 89 74 8 93 96 100 99 100 100 100 94 100 79 66 95 100 100 87 6 96 100 100 100 100 100 100 100 100 100 100 100 100 100 100 100 100 100 100 100 100 100
100 99 95 98 85 77 52 88 100 99 84 100 99 96 11 100 100 100 100 6 5 18 58 100 100 100 96 80 100 100 100 100 100 100 100 100 100 100 100 86 79 82 100 100
61 58 81 54 92 72 87 100 95 99 100 100 100 100 28 100 100 100 91 54 100 96 100 100 65 100 98 96 100 100 100 100 100 100 100 97 62 66 99 100 100 100 100 100
84 74 67 51 94 52 100 58 100 94 100 100 83 31 15 88 88 100 100 100 100 100 98 100 100 100 100 100 100 100 100 99 72 56 43 6 34 83 100 100 100 100 98 85
69 81 65 30 9 64 93 84 100 95 100 96 66 60 44 71 89 97 90 99 100 100 100 96 97 99 100 100 100 99 100 75 34 6 21 95 100 100 79 19 5 7 35 37
100 43 6 5 6 8 5 89 75 93 100 99 78 64 33 73 62 98 100 100 96 100 100 98 71 87 100 100 100 100 93 50 92 100 100 100 100 98 48 26 49 57 56 56

GFSCGP_prec_cloud_066.txt.gz
Cloud_Cover
13 98 100 100 98 100 100 87 100 100 100 100 100 100 100 100 100 100 100 100 100 100 100 100 100 100 100 100 78 64 5 5 5 30 100 100 100 100 100 99 34 32 7 7
63 96 100 100 100 90 100 100 100 100 100 100 95 100 100 100 100 100 100 100 100 100 100 100 100 100 100 100 100 100 22 57 29 7 46 20 75 100 100 100 100 100 83 30
42 100 100 100 100 100 100 98 100 100 100 100 100 100 100 100 100 100 100 100 99 100 100 100 100 100 100 100 100 100 69 91 16 8 5 30 68 100 100 100 100 100 100 100
100 100 100 100 100 100 100 100 70 100 100 100 100 100 100 100 100 100 100 100 100 82 98 100 100 100 100 100 100 100 100 100 96 84 26 57 90 83 100 100 100 100 100 100
100 100 100 100 100 100 100 100 100 100 100 100 100 100 100 100 92 100 100 100 100 100 100 72 97 100 100 100 100 100 100 100 100 100 100 100 100 100 93 100 100 100 100 100
100 100 100 100 100 100 100 100 100 100 100 100 100 100 100 100 100 78 98 100 100 100 100 100 100 76 53 98 100 100 100 100 100 100 100 100 100 100 100 100 100 100 100 100
100 100 100 100 100 100 100 100 100 100 100 100 100 100 100 100 100 100 72 92 100 100 93 92 100 97 100 100 90 67 93 97 100 100 92 90 97 100 100 100 100 100 100 100
100 100 100 100 100 100 100 95 96 100 59 100 100 100 100 100 100 100 100 100 100 100 100 74 95 94 45 16 10 6 56 95 84 75 82 94 100 100 100 100 100 100 100 100
100 100 100 100 100 100 100 100 93 100 90 100 64 100 100 100 100 100 100 100 100 100 100 100 100 99 100 97 97 81 45 48 74 100 100 100 100 100 100 100 100 100 100 100
100 100 100 100 100 100 100 100 100 100 100 100 100 91 100 100 100 100 100 100 100 100 100 100 94 27 22 14 34 96 94 69 72 100 100 100 100 100 100 100 100 100 100 100
100 89 96 100 100 100 100 99 98 96 100 100 100 96 100 100 100 100 100 100 100 100 100 100 63 79 98 99 95 93 100 100 100 100 100 100 96 56 95 89 50 22 42 92
100 100 99 100 100 100 100 99 63 95 100 100 100 100 100 100 100 95 98 100 100 100 100 100 100 97 54 6 12 11 10 35 53 49 73 42 20 6 14 13 34 65 96 96
57 95 99 100 100 100 100 100 100 100 97 97 86 100 100 100 96 99 96 24 3 11 10 5 5 5 2 2 3 5 30 30 18 57 32 36 16 1 8 5 5 16 56 91
7 7 64 46 87 100 100 100 100 100 62 54 84 100 100 100 100 100 100 82 100 100 5 5 5 5 5 5 3 3 2 2 3 1 4 38 94 64 0 1 10 80 100 100
77 99 100 80 33 91 100 100 100 100 100 100 79 98 100 100 100 100 100 100 100 34 66 53 81 78 5 5 5 5 2 0 1 0 0 1 13 60 81 100 100 100 100 100
61 39 74 100 100 100 100 100 100 100 94 8 27 40 99 100 91 99 70 100 100 99 100 90 44 90 7 5 5 5 5 5 5 12 3 10 54 98 70 99 100 100 100 100
96 67 100 100 100 100 100 100 100 100 100 100 100 100 100 100 100 100 100 100 100 100 100 87 39 93 98 6 5 5 5 5 5 78 82 23 56 72 94 94 91 99 100 100
100 100 100 100 100 100 100 100 100 100 100 100 100 100 100 100 100 100 100 100 100 100 100 11 93 98 94 18 38 50 16 18 16 92 54 52 52 78 94 100 100 100 100 100
49 81 98 100 100 100 100 100 100 100 100 100 97 100 100 100 100 80 85 80 100 100 79 7 25 85 100 98 81 94 94 82 77 42 100 90 98 97 100 100 100 100 100 100
100 100 100 100 100 100 100 100 87 80 98 100 100 99 100 100 94 89 83 100 100 72 51 88 100 100 98 88 100 100 100 100 99 100 100 100 100 100 100 100 100 100 100 100
98 97 72 99 100 100 100 100 97 96 92 99 92 98 100 89 76 79 100 100 51 5 19 100 100 100 88 96 100 100 100 100 100 100 100 100 100 100 100 100 100 96 89 92
100 96 85 65 84 72 59 90 98 98 99 98 100 96 100 96 94 100 100 100 19 5 16 97 100 100 100 98 98 100 100 100 100 100 100 100 100 100 77 49 61 92 97 100
99 83 97 93 90 73 88 94 87 100 100 100 100 79 77 100 100 100 100 60 49 44 64 100 100 100 100 100 100 100 100 100 100 100 100 89 86 9 5 42 61 90 74 47
32 81 53 67 48 52 45 71 100 100 100 100 100 61 98 100 67 97 100 83 76 93 88 100 91 100 100 100 100 100 100 100 100 98 33 5 5 5 9 60 58 66 65 46
49 50 11 19 10 59 34 72 100 99 100 100 100 88 62 55 87 99 96 55 60 45 76 100 100 100 100 100 100 100 100 96 50 5 5 7 49 100 49 51 72 78 51 5
100 42 56 20 56 7 5 76 42 100 85 99 100 53 50 10 37 77 100 73 66 49 59 100 100 100 100 99 95 78 48 42 5 5 27 91 100 96 100 83 52 5 5 5

GFSCGP_prec_cloud_069.txt.gz
Cloud_Cover
100 95 50 38 70 70 100 100 100 100 100 100 100 100 100 100 100 100 93 72 100 100 100 100 100 100 100 100 100 89 91 99 74 15 38 74 100 72 27 5 9 17 5 5
100 18 54 70 100 100 100 99 96 98 100 100 100 100 100 100 100 100 100 77 100 100 100 100 100 100 100 100 100 100 75 65 53 52 97 94 91 100 100 100 15 9 13 5
5 37 86 73 100 100 99 94 100 88 20 100 100 100 100 100 100 100 100 100 100 100 100 100 100 100 100 100 100 100 100 100 100 94 19 95 96 89 88 99 100 100 66 62
86 64 51 100 100 100 100 96 100 86 66 100 100 100 100 100 100 100 100 100 100 100 100 100 100 100 100 100 100 100 100 100 100 85 83 8 8 8 25 6 36 70 100 100
100 32 100 100 100 100 100 99 92 75 100 78 100 100 100 100 100 100 100 100 100 100 100 100 100 100 100 100 100 100 100 100 100 100 56 16 5 5 9 7 5 5 40 66
100 100 100 100 100 100 100 100 99 100 100 100 89 100 100 100 100 100 100 100 100 100 100 100 100 100 100 100 100 100 100 100 100 100 100 76 67 42 61 90 100 93 78 25
100 100 100 100 100 100 100 100 100 100 100 95 97 100 100 100 100 100 100 100 100 100 100 100 100 100 100 100 100 100 100 100 100 100 95 96 96 100 100 93 100 100 100 100
100 100 100 100 100 100 100 100 100 100 53 100 100 67 100 100 100 100 100 100 85 100 100 100 100 100 100 100 100 95 87 93 97 100 61 71 78 64 73 100 100 100 100 100
100 100 100 100 100 100 100 100 100 100 100 45 48 72 100 100 100 100 100 100 100 93 60 74 100 100 100 89 83 98 100 100 100 100 95 93 97 100 100 100 100 100 100 100
100 100 100 100 100 100 100 99 91 100 100 56 5 10 98 100 100 100 100 100 100 100 100 100 100 98 76 28 12 62 95 100 100 100 99 100 99 100 99 87 55 72 85 77
100 100 100 100 100 100 99 100 98 92 100 100 85 86 53 100 100 100 100 100 100 100 100 100 100 100 96 99 100 100 100 81 50 85 100 99 88 89 95 100 100 100 100 100
44 82 100 91 100 99 97 100 100 100 100 100 100 93 49 22 100 100 100 100 100 100 100 100 100 100 100 100 100 70 98 31 34 76 90 90 92 90 38 17 13 47 89 36
46 16 96 92 86 96 92 100 91 91 100 100 100 100 93 95 100 100 100 100 100 100 100 100 100 100 100 100 100 100 99 80 93 96 41 12 5 4 3 2 1 0 0 0
5 16 10 100 100 100 100 98 84 85 65 100 100 100 100 100 100 100 100 100 100 100 100 100 100 100 100 100 100 87 100 55 22 19 4 2 0 0 0 0 0 0 8 32
5 46 5 6 94 100 100 100 100 100 96 53 98 100 100 100 100 100 94 57 99 100 100 100 100 100 100 100 100 79 29 2 0 0 0 16 12 3 3 51 86 92 100 85
48 6 5 99 100 100 100 100 100 100 100 96 99 92 94 98 100 100 100 100 100 100 100 100 83 36 57 14 5 5 5 5 5 1 0 19 56 80 78 74 45 57 88 65
100 100 100 99 52 57 70 100 85 72 96 100 100 100 97 94 99 100 100 100 100 100 100 98 53 95 100 34 11 5 5 5 5 5 7 31 91 92 100 100 100 100 100 100
26 8 58 100 100 98 99 82 88 99 80 100 91 95 100 88 98 100 96 99 100 100 100 100 100 100 45 94 42 5 5 5 5 20 66 77 100 100 100 100 100 100 100 100
78 74 86 97 100 100 100 100 100 100 97 99 100 100 100 100 100 100 100 100 78 97 100 46 32 6 96 100 72 37 73 50 51 58 100 100 100 100 100 100 100 100 100 100
100 96 92 100 100 100 100 100 100 100 100 100 100 100 100 100 100 100 100 100 100 100 100 100 93 91 88 85 96 100 97 93 100 100 100 100 100 100 100 100 100 100 100 100
99 97 94 100 100 100 100 100 100 100 100 100 100 100 100 97 99 100 100 76 99 11 5 5 70 99 100 100 100 100 100 100 100 100 100 100 100 100 100 100 100 92 80 42
100 88 96 100 100 100 100 100 99 99 100 100 79 73 81 75 100 100 100 100 68 5 31 37 89 100 100 100 96 100 100 100 100 100 100 100 100 100 72 45 22 2 5 5
100 100 93 43 90 100 100 100 93 85 94 100 80 68 14 23 100 100 100 100 93 93 73 60 100 100 100 100 100 100 100 100 100 100 100 82 37 5 5 4 4 5 5 5
88 93 97 85 56 73 63 71 91 100 100 100 100 100 100 100 100 100 100 100 92 69 47 33 48 100 100 100 100 100 100 100 100 70 73 6 5 5 5 24 97 39 13 45
87 70 55 51 72 83 23 49 96 100 100 100 100 100 100 98 92 100 99 100 35 26 69 75 93 100 100 100 100 100 100 100 98 71 16 5 5 11 99 100 100 100 99 60
97 55 35 52 59 16 51 20 35 76 100 100 100 99 100 100 49 53 97 99 95 26 47 100 99 100 100 100 100 100 100 58 5 5 32 30 70 99 100 100 100 100 40 8

GFSCGP_prec_cloud_072.txt.gz
Cloud_Cover
100 100 100 97 100 39 10 40 60 100 59 66 100 100 100 100 100 100 100 100 100 100 100 100 100 100 100 100 100 99 100 100 100 87 98 48 92 65 72 98 100 18 5 7
100 100 100 100 100 85 73 100 86 100 100 44 89 100 100 100 100 100 100 100 100 100 100 100 100 100 100 100 100 99 100 100 87 63 89 30 47 100 100 100 99 25 5 6
100 100 100 100 100 90 19 5 34 100 68 100 18 100 100 100 100 100 100 100 100 100 100 100 100 100 100 100 100 98 100 100 100 93 100 100 100 100 100 100 97 41 8 5
100 100 100 100 100 100 5 91 96 100 83 26 79 87 100 100 100 100 100 100 100 100 100 100 100 100 100 100 100 100 100 100 100 100 100 100 100 100 100 20 6 13 50 5
100 100 100 98 100 85 42 96 52 100 76 94 100 69 100 100 100 100 100 100 100 100 100 100 100 100 100 100 100 100 100 100 100 100 100 100 62 98 98 43 16 5 5 5
94 96 100 68 82 100 100 86 100 98 100 73 100 10 4 100 100 100 100 100 100 100 100 100 100 100 100 100 100 100 100 100 100 100 92 97 98 13 47 92 41 5 5 7
100 100 100 100 100 100 100 100 100 100 100 20 100 52 0 84 100 100 100 100 100 100 100 100 100 100 100 100 100 100 100 100 100 100 100 89 100 70 12 5 5 66 82 73
100 100 100 100 100 100 100 100 100 99 65 12 20 60 0 17 100 100 100 100 100 100 100 100 100 100 100 100 100 100 100 100 100 100 72 100 33 57 19 16 14 5 16 41
88 99 100 100 100 100 100 100 100 96 96 63 17 21 8 0 100 100 100 100 100 100 100 100 100 100 100 100 100 100 100 100 100 100 100 100 70 88 95 70 71 96 99 100
44 100 100 100 100 100 100 100 100 100 100 100 96 23 5 5 67 100 100 100 100 100 100 100 100 100 100 100 100 100 100 100 100 100 100 100 100 100 100 100 100 100 93 86
100 100 100 100 100 100 100 100 99 99 100 100 91 15 4 27 99 100 100 100 100 100 100 100 100 100 100 100 98 87 70 92 100 100 100 100 100 97 89 19 43 10 35 37
100 100 100 100 68 100 100 100 96 98 100 100 100 100 70 83 67 100 100 100 100 100 100 100 100 100 100 100 100 99 72 74 100 100 100 100 100 98 98 42 16 7 32 74
100 100 100 100 100 98 100 48 89 100 100 100 100 100 100 100 94 100 100 100 100 100 100 100 100 100 100 100 100 100 100 100 100 100 100 100 100 100 84 56 100 53 88 16
98 87 99 70 100 91 100 31 82 98 100 100 100 100 100 92 22 84 100 100 100 100 100 100 100 100 100 100 100 100 100 100 100 100 100 100 100 100 99 81 88 21 64 0
49 5 12 20 6 96 98 95 84 100 88 100 100 100 100 100 100 100 100 100 100 100 100 100 100 100 100 100 100 100 100 100 100 100 100 93 97 100 63 76 24 11 18 23
24 5 30 100 100 100 100 89 50 78 90 100 100 100 100 100 100 100 100 91 100 100 100 100 100 100 100 100 100 100 100 100 100 100 99 80 38 73 96 89 100 100 100 100
68 59 46 5 63 100 100 100 100 100 7 64 100 100 100 100 100 100 100 100 100 100 100 100 100 100 100 100 100 100 100 100 100 89 52 42 88 100 100 100 100 100 100 100
100 100 100 62 6 23 53 82 96 100 100 100 100 100 100 100 100 100 100 100 100 100 100 100 100 95 88 100 100 95 84 30 5 6 36 98 100 100 100 100 100 100 100 100
10 70 32 6 36 80 91 93 94 100 100 100 100 100 100 100 100 100 95 80 93 100 100 100 100 100 91 80 100 32 26 41 41 10 92 96 100 100 100 100 100 100 100 100
5 5 45 98 98 100 100 100 100 100 100 100 100 100 99 100 100 64 100 87 100 100 100 100 100 100 100 100 100 82 100 100 98 100 100 100 100 100 100 100 100 100 100 96
82 76 41 69 100 100 100 100 100 100 100 100 100 100 100 100 84 99 100 100 100 100 100 100 100 81 100 100 100 100 100 100 100 100 100 100 100 100 100 100 78 62 12 4
99 100 100 100 100 100 100 100 100 100 100 100 100 100 100 100 100 100 100 100 100 100 100 100 100 100 100 100 100 100 100 100 100 100 100 100 100 100 98 38 7 3 1 0
93 82 88 40 100 100 100 100 100 100 100 100 100 100 100 100 100 100 100 100 100 27 6 5 76 100 98 91 94 100 100 100 100 100 100 100 70 11 5 4 2 5 5 5
91 100 100 67 87 70 95 100 100 100 100 100 100 100 95 79 85 95 100 100 100 54 5 13 33 98 100 100 100 100 100 100 100 100 100 10 5 5 5 5 5 6 84 100
100 86 74 89 91 70 58 75 83 100 100 99 100 83 100 100 98 98 91 100 99 98 97 71 58 100 100 100 100 100 100 100 100 92 8 6 5 5 5 5 12 90 100 100
100 98 100 93 100 98 99 60 61 90 100 100 100 100 100 100 100 100 100 100 100 84 38 31 85 100 100 100 100 100 100 100 89 100 72 6 5 39 29 48 100 100 100 100

GFSCGP_prec_cloud_075.txt.gz
Cloud_Cover
100 100 100 99 99 100 5 6 5 5 98 100 100 100 100 100 100 100 100 100 100 100 100 100 100 100 26 5 39 94 71 5 17 5 5 5 51 95 100 100 100 58 20 12
100 100 100 100 100 100 28 52 4 0 27 67 100 100 100 100 100 100 100 100 100 100 100 100 100 100 100 100 100 100 72 94 76 5 5 65 78 100 94 98 100 90 77 100
100 100 100 100 100 100 96 33 5 5 25 94 75 84 100 100 100 100 100 100 100 100 100 100 100 100 100 100 100 100 100 69 95 75 30 52 84 100 100 100 95 100 100 100
100 100 100 100 100 100 100 100 94 99 25 44 60 23 10 60 100 100 100 100 100 100 100 100 100 100 100 100 100 100 100 100 100 100 100 100 100 100 100 100 100 100 100 96
100 100 100 100 100 100 100 100 94 59 96 98 83 51 0 17 100 100 100 100 100 100 100 100 100 100 100 100 100 100 100 62 39 66 49 93 100 100 100 100 98 6 65 100
100 100 100 100 100 100 100 100 100 99 100 99 5 5 0 2 0 100 100 100 100 100 100 100 100 100 100 100 100 100 100 89 78 46 52 80 98 100 100 100 100 90 38 26
100 100 100 100 100 100 100 100 98 100 100 60 55 5 0 1 0 82 100 100 99 99 100 100 100 100 100 100 100 100 100 100 100 100 59 92 100 74 28 41 84 100 100 98
100 100 100 100 100 100 100 100 91 48 54 30 26 4 0 1 2 6 100 100 100 67 100 100 100 100 100 100 100 100 100 100 100 100 100 99 99 64 79 96 69 54 80 78
86 100 100 100 100 100 100 100 100 100 60 90 10 3 0 5 5 0 72 100 100 100 99 100 100 100 100 100 100 100 100 100 100 100 100 100 98 100 100 100 74 25 89 41
100 100 100 100 100 100 100 94 100 100 100 84 44 5 1 35 64 10 5 99 100 100 100 99 100 100 100 100 100 100 100 71 62 76 82 99 100 93 90 87 41 81 99 100
100 100 100 100 100 100 100 100 69 86 100 75 17 28 100 100 100 98 43 2 100 100 100 100 100 100 100 100 100 100 100 100 100 100 100 100 100 100 94 100 100 100 100 100
100 100 100 91 96 91 99 100 100 100 70 99 96 100 96 85 100 100 100 95 96 100 100 79 91 100 100 100 100 100 100 100 100 100 100 100 98 100 100 100 100 100 100 100
100 100 61 100 69 73 71 87 92 96 89 88 92 100 100 100 100 100 100 100 100 100 100 100 100 100 100 100 100 100 100 100 100 100 100 100 100 100 100 100 100 100 100 100
100 100 100 100 45 21 9 100 100 100 83 43 100 100 100 100 100 55 100 100 100 100 100 100 100 100 100 100 100 100 100 100 100 100 100 100 100 100 100 100 100 100 100 98
100 100 19 74 93 5 40 89 96 80 35 89 100 100 100 100 100 100 100 100 100 100 100 100 100 100 100 100 100 100 100 100 100 100 100 100 100 100 100 100 100 100 100 94
82 100 100 100 99 32 62 62 98 97 100 100 100 100 100 100 100 100 100 100 100 100 100 100 100 100 100 100 100 100 100 100 100 100 100 100 100 100 100 100 100 100 100 100
17 68 29 63 89 100 73 68 70 100 99 100 100 100 100 100 100 100 100 100 100 100 100 100 100 100 100 100 100 100 100 100 100 100 100 100 100 100 100 100 100 100 100 100
10 60 71 95 76 43 100 100 98 70 100 100 93 100 100 100 100 100 100 100 100 100 100 100 100 100 100 100 100 100 100 100 100 100 100 100 100 100 100 100 100 100 100 100
100 58 38 99 100 66 5 5 51 100 96 100 65 100 100 100 100 100 100 100 100 100 100 100 100 100 100 100 100 100 100 100 100 100 97 100 100 100 100 100 100 100 100 100
35 30 31 74 24 31 48 21 5 5 71 99 61 100 100 100 100 100 100 100 100 100 100 100 100 100 100 100 100 100 100 100 100 82 100 100 100 100 100 100 100 100 100 41
98 98 87 78 86 90 6 29 80 98 98 76 87 40 91 100 100 99 100 100 100 93 92 91 97 100 100 100 100 100 100 100 100 100 100 100 100 100 100 100 100 21 16 6
61 99 100 100 100 93 100 100 98 96 100 92 89 94 99 98 100 85 88 92 90 100 98 92 100 100 100 100 100 100 100 100 100 100 100 100 100 100 100 75 16 5 5 6
94 84 88 92 68 76 100 100 100 100 100 100 100 100 100 100 100 100 100 100 100 100 100 100 100 100 100 100 100 100 100 100 100 100 100 100 100 70 43 5 5 5 3 0
85 99 100 100 73 83 100 100 100 100 100 100 100 100 100 100 100 100 100 100 100 100 100 100 100 100 100 100 100 100 100 100 100 99 94 80 15 19 5 5 5 5 5 5
94 99 90 100 99 100 100 100 100 100 100 100 100 100 100 100 100 100 100 100 97 94 73 7 5 5 47 100 100 100 100 100 100 100 78 5 2 5 9 5 5 5 5 5
100 93 100 100 100 100 100 42 96 100 100 100 84 51 95 100 96 79 94 100 98 98 100 100 100 50 94 100 100 100 100 98 97 100 16 45 72 98 93 38 6 5 5 8

GFSCGP_prec_cloud_078.txt.gz
Cloud_Cover
100 100 100 91 100 100 99 73 5 5 21 79 100 100 100 100 100 100 100 100 38 100 100 100 82 31 100 80 5 5 78 92 76 100 96 78 48 5 5 5 5 5 5 6
100 94 100 100 100 100 100 100 8 22 3 6 100 100 100 100 100 100 100 100 100 99 100 100 100 100 100 100 100 52 51 94 96 88 100 74 55 43 35 19 19 5 5 53
100 100 100 100 100 100 100 100 95 5 5 8 5 77 100 97 100 100 100 99 95 8 66 100 100 100 100 100 100 100 90 15 5 29 93 100 99 100 95 96 97 72 100 100
100 100 100 100 100 100 100 100 100 59 5 13 5 78 100 100 100 100 100 100 95 43 12 100 100 100 100 100 100 100 100 99 45 23 8 60 99 100 100 99 100 100 100 100
100 100 100 100 100 100 100 100 100 100 44 93 29 37 100 100 100 100 100 100 100 100 100 100 100 100 100 100 100 100 100 100 100 100 100 44 34 72 100 100 100 100 100 100
100 100 100 100 100 100 100 100 100 97 87 97 5 24 21 100 100 100 100 100 100 100 100 100 100 100 100 100 100 100 100 100 100 100 100 100 100 75 18 6 6 28 49 54
100 100 100 100 100 100 100 100 100 100 100 75 5 66 0 100 100 100 100 100 100 99 80 100 100 100 100 100 100 100 100 100 100 100 100 100 100 100 100 100 99 96 79 76
100 100 100 100 100 100 100 97 64 17 61 24 46 5 0 0 8 99 100 100 100 100 100 100 100 100 100 100 100 100 100 100 100 100 100 100 100 100 100 100 100 100 100 100
100 100 100 100 99 100 92 100 100 11 7 5 2 0 0 0 0 0 69 100 100 100 100 100 100 100 100 100 100 100 100 100 100 100 100 100 100 100 100 100 100 100 100 100
100 100 100 100 100 100 99 74 97 100 79 26 4 0 1 11 2 0 0 3 60 73 100 100 100 100 100 100 100 88 77 68 65 73 99 100 100 100 100 100 100 100 100 100
100 100 100 100 100 100 100 98 95 49 72 10 5 5 22 86 5 0 5 39 26 1 100 100 100 100 100 100 100 100 100 86 78 41 71 67 79 90 100 77 98 97 93 96
73 100 100 100 100 100 100 100 100 34 85 46 14 43 47 100 87 88 98 100 97 5 100 100 100 100 100 100 100 100 100 100 99 95 78 12 67 88 78 83 88 100 81 99
100 100 100 100 100 100 100 94 96 25 16 5 7 48 90 100 100 99 100 100 100 100 31 100 100 100 100 100 99 99 100 100 100 100 99 87 80 100 100 100 100 100 98 100
100 100 100 100 100 100 96 17 30 95 93 15 65 100 89 98 100 100 100 100 99 83 5 100 100 100 100 100 100 100 100 100 100 100 100 100 100 100 100 100 98 98 99 100
100 100 91 100 99 100 97 100 56 40 28 100 100 100 100 92 100 100 100 100 100 100 100 51 100 100 100 100 100 100 100 100 100 100 100 100 100 100 100 100 98 100 100 100
100 100 72 100 100 44 9 5 5 49 100 100 100 100 98 100 100 100 52 54 96 100 100 100 100 95 100 100 100 100 100 100 100 100 100 100 100 100 100 100 100 100 100 100
100 100 100 18 13 78 60 62 34 97 100 100 100 100 97 100 100 100 100 100 100 99 100 100 100 100 100 100 100 100 100 100 100 100 100 100 100 100 100 100 100 100 100 100
26 62 87 90 10 69 100 66 72 91 100 100 100 100 100 100 99 100 100 100 100 100 100 100 100 100 100 100 100 100 100 100 100 100 100 100 100 100 100 100 100 100 100 100
6 60 57 96 90 82 100 75 73 97 92 100 100 100 100 100 100 98 100 99 100 100 100 97 99 100 100 100 100 100 100 100 100 100 100 100 100 100 100 100 100 100 100 100
14 8 26 53 100 100 75 28 5 5 6 94 97 100 100 100 100 100 100 100 100 100 100 80 97 100 100 82 100 100 100 100 100 100 100 100 100 100 100 100 100 100 99 68
58 83 88 52 39 27 51 100 57 54 65 91 41 81 100 100 99 100 100 100 100 100 100 100 100 100 100 100 100 88 100 100 100 100 100 100 100 100 100 100 100 94 43 17
39 35 37 37 95 42 8 8 56 76 100 88 42 52 67 51 85 100 100 100 100 100 100 100 100 100 100 100 100 100 100 100 100 100 100 100 100 100 100 98 69 17 5 5
100 100 95 98 37 99 55 94 98 96 98 100 100 98 98 99 82 98 100 99 99 100 100 100 100 100 100 100 100 100 100 100 100 100 100 100 100 100 100 44 7 5 3 5
98 100 90 80 100 100 61 100 100 100 100 98 100 100 100 100 100 100 100 100 80 100 100 100 100 100 100 100 100 100 100 100 100 100 100 100 100 100 57 5 5 5 5 5
100 100 100 100 99 100 46 98 100 100 100 100 100 100 100 100 100 100 100 95 93 100 99 100 99 100 100 100 100 100 100 100 100 100 100 100 66 26 5 5 5 3 5 5
78 100 100 100 100 100 84 32 100 100 100 100 100 100 100 100 100 100 100 94 93 100 100 100 100 100 100 99 100 100 100 100 100 99 90 57 44 5 5 5 5 15 5 69

GFSCGP_prec_cloud_081.txt.gz
Cloud_Cover
100 100 100 100 84 100 100 100 98 5 1 37 8 28 100 17 100 100 100 100 100 99 100 100 100 100 100 88 88 5 85 100 100 100 100 100 100 100 100 96 93 100 100 97
100 100 100 100 100 100 100 100 100 100 9 3 99 71 100 98 100 100 100 100 100 99 98 98 93 100 100 100 100 100 100 99 81 68 75 88 93 100 100 95 99 100 100 18
100 100 100 100 100 97 100 100 100 100 13 5 11 97 61 12 100 100 100 100 100 60 70 25 78 100 100 100 100 100 100 100 100 95 28 70 100 100 100 100 100 100 100 100
100 100 100 100 100 100 100 100 96 28 5 5 4 20 5 47 100 100 100 100 100 100 38 8 45 98 100 100 100 100 100 100 100 100 100 100 100 100 100 100 100 100 100 100
100 100 100 100 100 100 100 100 100 32 100 26 5 11 0 70 100 100 100 100 100 100 100 52 5 5 46 82 100 100 100 100 100 100 100 100 100 100 100 100 100 100 100 100
100 100 100 100 100 100 100 100 100 99 87 84 5 5 5 12 100 100 100 100 100 100 100 100 83 37 70 91 100 100 100 100 100 100 100 100 100 100 100 100 100 100 100 100
100 100 100 100 100 100 100 100 100 100 100 92 60 5 0 0 84 100 100 100 100 100 48 39 95 100 99 100 100 100 100 100 100 100 100 100 100 98 100 100 100 100 100 100
100 100 100 100 100 100 100 100 32 56 83 57 6 16 0 0 0 98 100 100 100 100 52 78 56 62 100 100 97 99 96 100 100 100 100 100 100 100 99 99 97 97 97 100
100 100 100 100 100 100 100 100 88 52 99 48 20 54 0 0 0 1 99 100 69 7 99 100 98 100 100 100 100 80 38 57 99 100 100 100 100 100 100 100 100 100 100 100
100 100 100 100 100 100 100 100 100 100 70 5 5 5 5 1 0 0 0 30 87 100 100 87 99 100 100 100 100 100 83 9 5 10 58 98 100 100 100 100 100 100 100 100
100 100 100 100 100 100 100 100 100 100 100 21 6 5 0 15 31 0 0 0 0 0 5 74 33 100 98 93 95 70 82 83 96 5 6 7 11 69 85 89 99 100 100 100
100 100 100 100 100 100 100 100 86 10 93 89 37 22 3 0 0 0 0 0 0 0 5 6 26 80 94 100 100 100 99 100 100 56 80 55 98 5 7 7 100 100 100 100
100 100 100 100 100 100 100 81 74 95 84 80 74 100 5 4 85 12 5 6 16 2 82 97 32 99 100 100 100 100 100 100 100 100 100 96 100 96 66 43 95 99 74 100
100 100 100 100 100 100 100 100 100 100 100 80 93 70 91 67 6 100 100 51 100 66 100 100 100 90 100 100 100 100 100 100 100 100 100 100 100 97 100 86 100 100 97 76
92 100 100 100 100 100 100 100 95 86 58 68 74 59 100 23 100 100 98 100 86 100 100 100 100 100 100 100 100 100 100 100 100 100 100 100 96 74 100 96 97 90 96 100
100 100 100 100 100 100 100 100 100 61 8 73 28 100 100 100 100 100 100 100 82 100 100 100 95 100 100 100 100 100 100 100 100 100 100 100 100 100 100 100 100 100 100 100
100 100 78 94 56 88 40 97 98 100 83 10 70 100 69 100 99 100 99 100 100 96 100 100 100 100 92 92 100 100 100 100 100 100 100 100 100 100 100 100 100 100 100 100
100 100 89 63 36 68 78 33 60 37 17 5 100 98 82 100 100 100 100 100 100 100 100 100 100 100 100 98 73 100 100 100 100 100 100 100 100 100 100 100 100 100 100 100
87 100 100 100 100 74 70 66 79 98 100 100 100 100 100 100 100 100 100 100 100 100 100 100 100 100 100 100 100 100 100 100 100 100 100 100 100 100 100 100 100 100 100 100
6 5 29 42 29 62 27 100 52 99 100 99 100 100 100 100 100 100 100 100 97 100 100 100 100 100 100 100 100 100 100 100 100 100 100 100 100 100 100 100 100 100 100 100
85 97 98 99 61 58 35 34 8 59 4 5 47 100 100 100 91 100 100 100 100 100 100 99 100 100 100 100 100 100 100 100 100 100 100 100 100 100 100 100 100 100 100 100
67 73 77 100 100 24 8 21 6 18 51 60 5 9 27 100 100 100 100 100 66 98 100 100 100 100 100 100 84 74 100 100 100 100 100 100 100 100 100 100 100 100 100 100
100 83 64 52 61 86 54 65 39 86 100 94 100 93 12 6 16 89 92 100 100 100 100 100 100 100 100 96 89 98 100 100 100 100 100 100 100 100 100 100 100 100 100 71
72 87 70 79 99 80 100 95 100 100 100 98 97 100 100 99 87 60 82 87 98 81 100 100 100 100 100 99 100 100 100 100 100 100 100 100 100 100 100 100 100 100 100 58
100 100 62 95 99 100 78 69 100 100 100 100 100 100 100 100 100 100 100 100 100 90 82 96 86 98 19 56 63 82 100 100 100 100 100 100 100 100 100 100 100 81 61 17
100 100 100 100 100 100 47 100 100 100 100 100 100 100 100 100 100 100 100 100 100 97 92 100 100 97 100 94 100 100 100 100 100 100 100 100 100 100 100 100 75 34 5 9

GFSCGP_prec_cloud_084.txt.gz
Cloud_Cover
100 100 100 100 100 100 98 100 100 100 100 100 72 5 3 1 0 27 5 100 90 100 100 95 99 100 100 100 100 100 100 100 100 100 100 100 100 100 100 100 100 100 100 100
100 100 100 100 100 100 32 100 100 100 100 88 11 4 5 4 1 75 6 100 100 100 100 100 100 100 100 100 100 100 100 100 100 100 100 100 100 100 100 100 100 100 100 100
100 100 100 100 100 100 77 100 100 100 97 5 5 7 0 4 5 98 25 100 100 100 95 100 100 100 100 100 100 100 100 100 100 100 100 100 100 100 100 100 100 100 100 100
100 100 100 100 100 100 100 100 100 100 54 40 8 23 0 0 4 5 10 86 100 100 100 94 100 100 100 100 100 100 100 100 100 100 100 100 100 100 100 100 100 100 100 100
98 96 100 100 100 100 100 100 100 100 41 5 14 93 0 0 0 0 29 32 100 100 100 58 83 100 100 100 100 100 100 100 100 100 100 100 100 100 100 100 100 100 100 100
74 100 100 100 100 100 100 100 100 100 100 64 5 5 4 0 0 0 2 11 100 100 100 100 92 100 99 91 100 100 100 100 100 100 100 100 100 100 100 100 100 100 100 100
100 100 100 100 100 100 100 100 100 100 100 94 3 9 87 0 0 0 0 0 100 100 100 100 100 100 100 100 97 99 100 100 100 100 100 100 100 98 100 100 100 100 100 100
100 100 100 100 100 100 100 100 100 76 70 100 10 27 96 4 0 0 0 0 51 100 100 100 100 100 100 100 96 37 100 100 100 100 100 100 100 100 100 100 100 100 100 100
100 100 100 100 100 100 100 100 100 100 100 100 100 100 100 10 3 0 0 0 0 100 100 100 100 100 100 66 43 57 47 60 72 96 100 100 100 100 100 100 100 100 100 100
100 100 100 100 100 100 100 100 100 100 100 100 100 100 100 95 5 1 0 0 0 100 100 100 100 100 100 100 50 56 80 28 31 21 49 73 98 99 100 100 100 100 100 100
100 100 100 100 100 100 100 97 49 100 100 100 98 69 9 5 0 0 0 0 0 77 100 60 96 92 86 100 94 84 5 7 49 16 5 45 62 98 99 100 100 100 100 100
100 100 100 100 100 100 100 100 100 100 100 100 100 91 98 5 0 0 0 0 0 0 24 26 18 31 30 31 70 100 81 89 72 34 12 98 58 93 99 100 100 100 100 100
100 100 100 100 96 88 100 100 100 95 100 100 100 100 100 5 2 0 0 0 0 0 0 2 17 5 7 9 7 100 96 19 86 100 98 84 100 100 100 95 87 99 91 100
100 100 100 100 100 100 100 100 100 100 100 100 100 100 100 5 5 5 3 5 3 5 0 0 0 0 9 92 96 96 100 100 100 100 100 98 100 99 81 100 80 93 100 78
100 100 100 100 100 100 100 29 5 5 80 62 100 92 95 88 10 86 43 5 5 5 3 25 35 18 21 96 100 100 100 100 100 100 100 100 100 92 100 100 100 82 100 100
100 100 100 100 100 100 100 100 27 34 88 95 100 94 79 7 5 5 7 6 6 55 46 10 39 100 100 99 100 100 100 100 100 100 97 85 100 100 100 100 100 100 100 100
100 100 100 100 100 61 63 61 41 54 32 100 100 100 100 92 29 42 83 69 100 100 72 94 100 86 46 53 98 50 92 100 100 100 100 100 100 100 100 100 100 100 100 100
99 69 100 100 100 100 100 100 100 100 100 100 100 100 100 88 57 54 90 81 100 100 85 100 97 100 96 100 92 100 59 100 76 100 100 100 100 100 100 100 100 100 100 100
100 100 100 100 100 100 100 100 100 100 100 100 100 100 67 66 100 54 100 83 87 100 91 91 100 100 100 100 99 100 100 100 100 100 76 100 100 100 100 100 100 100 100 100
79 99 100 100 57 90 88 100 100 99 100 100 80 69 100 97 99 57 11 100 100 100 100 100 100 100 100 99 100 100 100 88 99 98 96 100 100 100 100 100 100 100 100 100
44 99 76 100 100 98 36 83 100 99 100 100 100 100 100 100 100 100 100 100 95 91 100 100 100 100 100 100 100 100 100 100 100 96 100 100 100 100 100 100 100 100 100 100
78 11 22 100 99 42 8 11 10 40 99 88 54 20 25 79 98 71 100 100 100 100 71 100 100 100 100 100 100 100 100 100 100 100 100 100 100 100 100 100 100 100 100 100
77 54 47 58 5 5 83 28 10 73 100 99 100 14 27 5 12 17 29 92 100 100 100 92 100 100 100 97 95 85 100 100 100 100 100 100 100 100 100 100 100 100 100 100
95 80 86 55 62 71 100 47 27 8 93 95 91 98 66 68 69 100 100 100 100 100 100 100 88 78 97 97 99 98 100 100 100 100 100 100 100 100 100 100 100 100 100 100
100 100 88 52 93 100 80 73 100 100 92 95 98 97 98 100 95 100 100 100 100 100 100 91 88 100 99 100 96 100 100 100 100 100 100 100 100 100 100 100 100 100 100 100
67 98 100 96 100 100 100 92 94 85 100 95 100 100 96 100 100 100 100 100 100 87 81 86 93 100 100 100 100 97 93 98 100 100 100 100 100 100 100 100 100 100 100 100

GFSCGP_prec_cloud_087.txt.gz
Cloud_Cover
100 100 100 100 100 100 100 100 90 100 100 92 95 26 5 0 0 0 0 2 96 61 100 100 100 100 84 100 100 100 100 100 86 100 100 100 100 100 100 100 100 100 100 100
77 97 85 100 100 100 100 95 100 100 100 86 96 91 5 0 0 0 0 0 71 100 70 98 100 100 100 100 100 100 100 100 100 100 100 100 100 100 100 100 100 100 100 100
95 95 100 100 100 100 100 100 54 97 100 98 100 99 5 1 0 0 0 0 3 100 27 83 100 100 99 100 100 100 100 100 100 100 100 100 100 100 100 100 100 100 100 100
87 100 100 100 100 100 100 100 100 100 81 91 100 94 5 0 0 0 0 0 1 11 76 100 100 100 100 100 100 100 100 100 100 100 100 100 100 100 100 100 100 100 100 100
99 100 100 100 88 100 100 100 100 100 99 82 75 52 5 0 0 0 0 0 0 33 97 100 100 100 100 98 98 100 100 100 100 100 100 100 100 100 100 100 100 100 100 100
100 99 100 100 100 100 100 100 100 69 100 82 26 18 5 0 0 0 0 0 62 95 78 100 100 100 66 100 100 100 100 100 100 100 100 100 100 100 100 100 100 100 100 100
97 99 100 100 100 100 100 100 100 100 85 68 23 11 37 0 0 0 0 0 28 99 6 100 100 100 100 100 100 100 100 100 100 100 100 100 100 100 100 100 100 100 100 100
91 100 100 100 100 100 100 66 18 24 42 43 100 24 65 0 0 0 0 0 0 28 8 52 100 100 100 100 91 100 100 100 100 100 100 100 100 100 100 100 100 100 100 99
88 100 100 100 100 100 97 97 100 14 52 100 100 100 100 33 0 0 0 0 0 0 0 12 100 100 100 97 86 53 83 100 100 100 100 100 100 100 100 100 100 100 100 100
100 100 100 100 100 100 100 88 98 92 100 100 100 100 100 71 1 0 0 0 0 0 0 0 82 100 100 100 100 94 100 91 64 98 100 100 100 100 100 100 100 100 100 100
100 100 100 100 100 100 100 99 78 100 100 100 100 100 100 91 5 0 0 0 0 0 0 0 0 3 100 100 100 100 100 97 97 95 58 38 44 100 100 100 100 100 100 100
100 100 100 100 100 100 100 74 100 100 100 100 100 100 100 96 3 5 0 0 0 0 0 0 0 0 100 100 100 100 100 60 82 56 53 5 11 6 48 70 100 100 100 100
100 100 100 100 100 99 100 97 100 100 100 100 100 100 100 100 52 4 2 0 0 0 0 0 0 0 0 47 100 100 100 100 99 100 54 52 57 99 51 20 28 90 100 100
100 100 100 100 100 97 100 100 100 100 100 100 100 100 100 100 12 1 5 5 4 0 0 0 0 0 0 2 39 97 97 100 89 86 100 95 69 46 68 71 81 100 72 90
100 100 100 100 100 100 100 100 100 100 100 100 100 100 100 100 98 22 5 5 4 0 2 0 0 0 0 0 0 0 60 100 100 99 99 100 100 100 100 100 100 100 48 86
100 100 100 100 100 100 6 52 98 100 100 100 100 100 100 38 50 93 11 4 0 2 4 5 5 4 0 5 5 5 4 5 100 100 99 100 100 100 100 100 100 100 100 100
100 100 100 100 100 100 100 99 100 100 100 100 100 90 28 81 77 45 10 5 4 5 5 5 5 74 5 10 68 15 71 100 55 100 90 100 100 99 100 99 98 98 100 100
100 100 100 100 100 100 100 97 86 91 61 100 98 48 44 73 100 100 94 5 76 5 5 5 5 21 99 97 100 95 100 100 96 85 60 85 100 100 100 100 100 100 100 100
100 100 100 100 100 100 38 5 5 7 5 13 28 57 89 100 100 100 31 22 83 8 5 62 74 9 100 94 89 98 82 60 17 6 32 7 52 68 100 100 100 100 100 100
88 99 100 100 100 100 100 100 100 100 100 100 100 100 100 100 100 100 57 100 88 37 28 92 100 100 100 95 100 100 87 100 98 97 98 97 100 96 97 100 100 100 100 100
68 100 95 100 100 100 100 100 100 100 100 100 100 100 100 100 96 69 72 100 93 100 91 75 100 99 100 83 92 100 100 84 100 100 97 95 98 100 100 100 100 100 100 100
25 14 90 100 100 100 100 99 100 100 100 100 100 100 100 89 100 100 100 100 98 81 94 99 100 76 98 100 100 98 100 97 100 100 100 100 100 100 100 100 100 100 100 100
93 57 8 5 25 54 76 77 98 100 100 100 100 83 97 44 8 6 10 23 100 91 99 100 100 100 90 100 100 100 100 100 100 100 100 100 100 100 100 100 100 100 100 100
18 53 56 5 45 50 23 24 7 31 66 97 33 34 41 45 12 8 64 70 26 22 48 90 100 98 74 54 87 100 100 100 100 99 100 100 100 100 100 100 100 100 100 100
35 71 54 7 10 78 62 30 29 33 78 90 93 76 54 84 89 95 100 100 97 98 86 71 87 100 100 100 89 87 100 100 100 100 100 100 100 100 100 100 100 100 100 100
53 84 81 84 65 78 59 82 93 94 88 100 96 92 93 79 98 80 100 100 100 100 100 100 100 100 100 100 100 100 98 100 100 100 100 100 100 100 100 100 100 100 100 100

GFSCGP_prec_cloud_090.txt.gz
Cloud_Cover
100 100 100 39 100 100 100 100 98 100 100 100 100 100 100 100 40 6 0 0 0 12 48 21 100 100 100 100 100 88 100 100 100 100 100 100 100 100 100 100 100 100 100 95
100 79 57 100 100 100 69 99 97 100 100 100 100 100 100 95 5 5 0 0 0 29 25 5 68 100 100 100 100 96 47 79 100 100 100 100 100 100 100 100 100 100 100 100
100 94 58 100 100 100 86 92 100 74 100 100 100 100 96 52 21 5 0 0 0 0 100 96 89 62 100 100 100 54 86 100 100 100 100 100 100 100 100 100 100 100 100 100
100 71 24 100 100 100 100 100 100 89 100 100 100 100 73 53 77 5 0 0 0 0 54 100 71 64 100 100 100 100 98 100 100 100 100 100 100 100 100 100 100 100 100 100
100 85 100 100 100 100 100 98 100 100 100 100 100 100 100 96 5 5 0 0 0 0 0 10 100 100 95 32 95 94 100 100 100 100 100 100 100 100 100 100 100 100 100 100
82 100 100 100 100 100 100 99 100 100 100 99 100 93 29 93 100 21 0 0 0 0 0 2 56 95 92 70 100 100 100 100 100 100 100 100 100 100 100 100 100 100 100 100
100 100 100 100 100 100 100 100 100 100 97 51 100 78 5 87 100 100 4 0 0 0 0 0 3 72 75 100 100 100 100 100 100 100 100 100 100 100 100 100 100 100 100 100
99 100 100 100 100 100 100 98 100 80 56 92 100 8 98 100 100 99 3 0 0 0 0 1 6 6 100 100 77 100 100 100 100 100 100 100 100 100 100 100 100 100 100 100
100 100 100 100 100 100 100 100 99 100 75 100 100 100 100 100 100 24 3 0 0 0 0 5 3 100 100 98 100 100 100 100 100 100 100 100 100 100 100 100 100 90 97 100
99 100 100 100 100 100 100 98 82 98 97 100 100 100 100 99 99 9 0 0 0 0 3 5 0 99 100 76 100 99 100 100 100 100 100 100 100 100 100 100 100 100 100 100
100 100 100 100 100 100 100 100 88 100 100 100 84 94 100 100 71 18 2 0 0 0 0 0 0 0 98 100 100 100 100 100 93 100 100 82 100 100 100 100 100 100 100 100
100 100 100 100 100 100 97 90 58 100 100 100 100 100 100 100 71 5 0 0 0 0 0 0 0 0 0 16 4 100 100 100 100 79 96 100 40 61 100 100 100 100 100 100
100 100 100 100 100 100 100 66 7 100 100 100 100 100 100 100 66 4 0 5 0 0 0 0 0 0 0 0 0 2 95 100 100 100 100 100 100 81 45 71 98 98 100 100
100 100 100 100 100 84 100 100 100 100 100 100 100 100 100 100 78 5 0 1 5 0 0 0 0 0 0 0 0 0 14 5 75 100 100 100 100 99 56 6 5 5 45 87
100 100 100 54 19 85 81 84 100 100 100 100 100 100 100 100 100 28 5 4 0 0 0 0 0 0 0 0 0 0 0 4 5 7 93 99 100 100 92 95 25 5 5 5
88 100 100 100 100 100 69 99 100 100 100 100 100 100 100 9 5 5 6 98 20 0 0 0 0 0 0 0 0 0 0 0 0 0 14 12 100 100 100 100 100 100 100 91
76 100 100 100 100 100 25 82 100 100 100 100 100 100 97 10 27 25 100 31 8 12 0 0 0 0 0 5 2 5 0 0 0 0 0 0 43 100 100 98 100 100 100 100
42 57 95 100 100 100 100 62 50 86 100 100 100 100 100 100 100 100 100 100 6 5 2 2 5 5 0 0 7 12 5 6 5 5 4 5 18 22 100 100 98 87 100 100
77 96 90 97 100 100 100 8 66 89 86 100 100 100 100 100 100 100 100 43 15 41 9 5 5 4 26 5 4 80 42 17 92 5 5 5 16 54 59 72 98 100 100 100
99 32 57 98 100 100 100 100 57 93 98 98 83 59 85 78 25 5 5 94 100 100 58 95 5 5 70 100 68 6 80 92 89 80 100 54 78 93 100 100 100 100 100 100
65 99 100 55 31 22 5 5 5 6 41 30 5 5 5 5 6 29 92 100 100 94 41 99 49 96 81 100 100 71 46 75 84 100 100 100 67 96 100 100 100 100 100 100
49 91 97 92 92 93 100 82 58 56 97 68 61 100 86 100 100 100 100 6 58 8 85 98 75 100 96 95 99 81 100 100 86 92 100 100 100 99 100 100 100 100 100 100
87 29 88 100 100 100 100 68 100 100 100 100 100 100 100 100 97 30 14 15 94 100 100 98 10 79 91 100 60 100 100 75 100 99 85 100 100 100 100 100 100 100 100 100
5 9 43 56 80 43 24 28 38 44 71 100 100 100 100 100 82 84 86 89 88 54 40 72 100 7 100 100 59 61 77 99 100 100 100 100 100 100 100 100 100 100 100 100
45 30 57 57 25 5 9 18 5 5 79 83 38 88 61 72 96 49 90 68 100 87 28 50 94 81 21 94 95 63 100 67 98 100 100 100 100 100 100 100 100 100 100 100
5 15 24 83 96 61 66 6 44 68 84 89 44 62 71 50 5 10 7 20 55 57 90 79 86 100 83 100 100 99 100 100 84 88 100 100 100 100 100 100 100 100 100 100

GFSCGP_prec_cloud_093.txt.gz
Cloud_Cover
68 100 100 100 100 100 100 100 100 100 100 100 96 100 100 100 100 100 32 0 5 5 5 5 5 98 100 100 100 100 100 100 100 100 86 66 100 100 100 100 100 100 100 100
98 95 100 100 100 97 100 95 100 100 100 100 100 100 100 100 100 100 100 15 1 0 5 78 0 36 87 100 100 100 100 100 100 100 100 100 100 100 100 100 100 100 100 100
100 60 98 100 100 100 100 100 100 100 87 100 100 100 100 100 100 51 15 24 5 4 0 29 8 8 97 75 100 100 100 100 100 94 61 100 100 100 100 100 100 100 100 100
100 100 98 100 100 100 100 100 100 100 91 100 100 99 100 100 100 41 100 88 40 17 5 10 83 0 73 96 86 86 100 97 100 100 94 100 100 100 100 100 100 100 100 100
100 84 62 97 100 100 100 89 92 100 100 100 100 100 100 99 96 92 100 30 5 5 0 0 0 0 0 58 14 88 100 100 100 100 100 100 100 100 100 100 100 100 100 100
100 98 97 98 100 100 98 90 100 100 100 100 100 97 100 100 100 100 87 41 5 5 1 2 0 0 0 48 34 77 58 100 100 100 98 100 100 100 100 100 100 100 100 100
100 100 100 91 100 100 100 100 100 100 100 100 100 82 100 50 98 100 91 36 26 5 1 0 57 0 0 48 94 100 47 93 100 100 100 90 100 100 100 100 100 100 100 100
94 100 98 100 100 100 100 100 100 100 100 98 63 87 100 100 100 100 46 30 5 5 5 0 0 0 0 78 67 95 99 100 82 100 100 76 85 100 100 100 100 100 100 100
92 100 98 100 100 100 100 100 100 89 100 100 13 85 100 100 100 100 100 25 84 6 0 0 0 0 0 3 64 70 100 100 100 66 100 100 99 97 100 100 100 100 100 100
100 100 99 100 100 100 100 97 100 97 100 100 81 100 100 100 100 100 76 100 100 8 1 0 0 0 0 5 1 63 100 100 94 97 95 96 100 91 100 100 100 100 100 100
95 94 100 100 100 100 100 100 85 100 100 100 100 100 100 100 100 100 100 100 100 8 0 0 0 0 0 10 5 58 30 100 100 99 100 96 100 100 100 100 100 100 100 100
100 99 100 100 100 73 95 84 100 100 100 100 100 100 100 100 100 100 100 100 96 5 0 0 0 0 1 76 48 78 34 60 100 100 100 100 100 100 100 100 100 72 100 100
100 100 100 100 100 100 94 91 100 100 100 100 100 100 100 100 100 100 100 100 17 5 0 0 0 0 0 0 0 0 3 25 54 100 100 100 100 100 100 100 99 100 100 69
100 100 100 100 96 84 100 100 100 100 100 100 100 100 100 100 100 100 100 40 5 5 3 0 0 0 0 0 0 0 0 0 9 26 100 100 100 100 100 100 93 98 99 87
100 100 100 100 100 100 100 100 100 100 100 100 100 100 100 100 94 100 100 100 5 11 12 6 5 0 0 0 0 0 0 0 0 0 0 2 24 60 90 99 100 100 100 89
100 100 100 100 58 100 100 100 100 100 100 100 100 100 6 9 100 100 100 29 5 5 5 5 5 5 5 0 0 0 0 0 0 0 0 0 4 0 84 100 100 100 100 100
100 100 100 100 76 32 59 100 100 100 100 100 100 91 7 22 99 100 100 100 86 35 5 4 5 4 0 0 0 0 0 0 0 0 0 0 0 0 0 16 82 100 100 100
100 96 92 37 59 63 76 46 50 90 100 100 100 89 85 100 14 53 98 100 100 8 51 100 7 4 0 0 0 0 0 3 2 3 0 0 0 4 2 5 18 86 87 100
31 100 100 100 100 82 89 23 52 38 100 100 100 100 100 12 100 100 72 8 5 23 87 99 6 6 0 0 0 0 0 0 5 5 5 5 5 5 5 43 90 100 100 99
11 5 74 100 100 100 100 84 100 50 75 14 92 100 100 100 100 6 12 35 100 100 100 95 5 5 5 2 0 2 10 33 5 5 95 14 5 10 6 76 100 99 99 100
96 95 93 98 100 100 100 100 100 55 92 6 98 100 100 100 100 100 75 44 54 66 67 82 6 53 15 5 5 6 12 100 30 5 9 55 41 14 85 99 97 100 100 100
86 94 100 90 98 51 98 95 98 84 100 27 83 100 100 100 100 71 98 87 5 5 5 9 82 100 59 6 5 69 28 99 60 100 96 99 29 82 100 100 96 100 100 100
80 61 100 100 100 99 99 98 68 8 12 69 56 5 60 82 75 5 5 5 5 5 5 36 100 19 5 5 5 100 48 34 83 100 89 100 100 100 100 100 100 100 100 100
56 28 48 68 100 100 100 100 100 100 93 51 99 94 100 98 56 22 53 10 20 37 27 53 5 69 100 56 5 5 38 100 28 53 100 97 100 100 100 100 100 100 100 100
82 30 55 79 51 99 100 100 100 100 100 100 100 100 100 100 100 86 96 100 100 88 26 5 5 99 81 63 88 25 65 100 100 100 97 69 98 100 100 100 98 100 100 100
89 89 90 100 97 77 99 99 88 26 30 54 65 42 15 53 98 52 5 23 55 81 95 93 92 93 99 93 79 97 100 100 100 100 100 90 100 100 100 100 100 100 100 100

GFSCGP_prec_cloud_096.txt.gz
Cloud_Cover
50 98 100 99 91 100 100 100 100 100 100 100 100 100 100 100 81 40 71 6 90 5 4 0 0 98 100 100 100 100 100 100 92 100 100 87 59 98 100 100 100 100 100 100
66 98 100 100 100 100 100 100 98 100 100 100 100 100 100 97 100 89 84 62 100 78 100 2 0 3 27 100 100 100 100 100 100 99 100 95 100 49 100 100 100 100 100 100
6 100 100 100 100 100 100 100 100 84 100 100 99 100 100 100 66 100 100 63 100 92 17 6 0 1 5 6 85 100 100 100 100 97 78 100 99 100 100 99 100 100 100 100
39 100 100 100 100 100 100 100 100 100 78 100 88 100 100 98 94 66 77 95 60 74 5 1 0 0 0 0 6 51 100 94 100 100 55 100 100 90 87 96 100 100 100 100
100 100 100 100 100 100 99 100 100 89 99 100 100 100 100 100 73 100 90 100 40 6 24 54 0 2 4 0 0 23 37 100 100 100 100 85 100 100 84 90 100 100 100 100
100 90 100 100 100 100 100 94 100 100 100 100 100 68 100 61 13 75 14 90 100 100 96 100 9 2 5 0 0 0 0 5 98 100 100 100 100 100 100 100 100 100 100 100
100 100 100 100 100 100 100 100 100 100 100 83 100 66 100 100 99 81 8 100 100 100 100 67 2 17 2 0 0 0 0 0 7 88 100 100 100 99 100 100 100 100 100 100
100 98 100 100 100 100 100 100 99 100 100 98 100 44 100 99 97 65 38 100 100 30 28 36 15 5 0 0 0 0 0 0 5 30 55 100 100 100 100 100 100 100 100 100
100 92 77 100 100 100 100 100 96 100 100 96 48 90 54 68 87 100 100 100 100 100 100 100 7 3 0 0 0 0 0 0 42 60 94 22 94 100 100 99 100 100 100 100
97 85 86 100 100 100 98 92 85 88 96 100 100 100 100 90 71 100 100 100 100 100 100 100 63 0 0 0 0 0 0 0 45 100 68 72 90 100 100 100 100 83 100 100
87 50 100 100 100 97 99 84 100 95 91 96 100 72 100 97 74 86 100 100 100 100 100 100 38 5 0 0 0 0 0 10 55 97 99 75 100 99 100 100 100 95 100 100
74 100 100 100 100 100 94 100 100 100 100 96 100 99 89 100 100 100 100 100 100 100 100 100 82 8 4 0 0 0 0 5 78 96 100 100 100 99 100 100 100 39 100 100
87 100 100 100 98 80 33 23 98 100 100 100 100 100 100 96 51 100 100 100 100 100 100 97 99 57 0 0 0 0 1 5 5 5 10 72 100 100 100 100 100 97 99 98
96 100 100 100 51 100 100 100 100 100 100 100 100 100 100 100 99 100 100 100 100 100 100 98 96 6 0 0 0 0 0 0 1 3 1 16 46 100 100 75 100 100 69 79
72 100 100 91 100 100 100 100 100 100 100 100 100 100 100 100 100 100 100 100 100 100 100 100 17 5 0 0 0 0 0 0 0 0 0 0 0 0 31 100 100 87 36 96
30 100 66 100 100 100 100 100 100 100 100 100 100 100 100 100 100 100 100 100 100 100 100 63 3 5 5 4 0 0 0 0 0 0 0 0 0 0 3 2 100 24 99 100
76 100 82 87 100 100 100 100 100 100 100 100 100 75 100 100 100 100 100 100 100 100 100 100 7 5 6 5 5 5 0 0 0 0 0 0 0 1 3 2 0 0 31 30
36 93 73 66 72 41 99 100 100 100 100 100 100 88 71 71 100 100 100 100 100 100 100 98 32 13 32 4 4 5 0 0 0 0 0 0 1 4 3 0 0 2 12 68
29 67 100 88 95 48 72 60 100 100 100 100 100 100 100 100 100 100 39 98 68 100 100 100 100 100 84 5 98 90 3 0 0 0 0 0 5 5 5 5 5 100 100 100
9 92 100 100 100 90 96 88 98 90 100 100 100 100 100 100 80 83 100 100 95 100 100 100 100 100 57 73 100 36 5 0 0 0 0 5 7 5 5 5 53 100 100 100
5 5 40 98 100 99 21 75 81 77 100 100 100 100 100 98 34 50 77 98 100 100 35 34 97 100 100 100 100 23 5 5 5 5 1 6 42 5 24 16 97 100 100 94
65 47 54 57 71 87 90 100 100 100 100 100 65 96 91 91 100 100 100 94 38 65 13 5 5 60 97 97 84 32 45 6 5 5 5 16 87 60 17 97 100 100 100 100
63 6 90 98 98 100 100 100 100 100 100 100 100 78 93 71 89 100 100 100 100 100 85 10 37 50 61 35 5 5 5 5 5 5 7 17 64 41 75 100 100 100 100 100
91 5 6 87 99 100 100 100 100 100 100 100 100 100 100 100 26 100 100 100 100 95 82 62 30 73 62 72 19 5 5 25 60 40 5 22 77 86 100 100 100 100 100 100
22 53 74 69 93 94 100 100 100 97 99 100 91 100 87 92 100 100 99 100 100 77 39 90 20 39 40 38 7 12 5 13 92 75 84 100 100 100 100 100 100 100 100 100
59 76 74 94 89 99 98 100 100 100 100 100 100 100 100 100 100 100 100 100 100 87 98 93 100 98 54 45 27 48 18 74 100 99 100 100 100 100 100 100 100 100 100 100

GFSCGP_prec_cloud_099.txt.gz
Cloud_Cover
6 100 54 100 100 100 100 100 100 100 100 100 100 100 100 100 100 100 100 63 100 6 9 5 2 0 100 100 100 100 100 100 100 100 100 100 54 100 100 100 100 100 81 93
26 100 80 100 100 100 100 100 100 100 100 100 100 100 100 100 100 100 100 82 94 89 25 5 4 20 1 90 100 100 100 100 100 100 100 100 100 91 100 100 100 100 100 89
74 100 68 100 100 100 100 100 100 92 91 100 100 100 100 100 100 100 100 99 58 6 99 7 0 5 4 0 18 97 100 100 100 100 49 100 100 100 100 74 100 100 99 100
60 95 87 100 100 100 100 100 41 94 98 100 100 100 100 100 100 100 100 100 100 5 14 24 91 4 2 3 0 0 71 100 93 100 100 100 100 70 97 100 98 100 100 100
88 98 100 100 100 96 100 100 100 100 99 100 100 100 100 100 100 96 100 100 100 62 27 100 100 73 55 100 55 5 0 17 100 7 51 100 100 94 61 100 100 100 100 100
100 96 100 100 100 100 100 100 100 100 100 94 92 100 100 100 100 100 100 100 100 100 9 32 99 88 100 86 35 5 0 5 13 14 8 97 100 100 100 100 100 100 100 100
100 100 100 100 100 100 100 100 100 100 100 100 100 100 100 100 100 97 100 100 100 86 7 91 100 100 100 100 92 2 0 32 12 0 2 94 100 100 100 100 100 100 96 100
100 100 100 100 96 100 100 100 100 100 100 89 100 100 94 71 87 98 85 60 25 1 0 8 80 94 100 88 39 56 5 4 0 0 0 0 10 100 100 100 91 47 98 99
100 100 100 100 100 94 100 100 100 100 96 100 36 80 80 10 5 27 65 48 4 5 12 12 15 99 59 100 100 89 5 0 0 0 0 0 0 2 46 100 100 100 100 100
100 100 100 100 100 100 86 100 94 100 100 100 23 5 79 32 13 5 13 62 32 19 80 100 100 93 100 100 100 93 67 3 0 0 0 2 5 9 5 30 100 100 100 100
100 100 100 100 100 100 100 64 100 76 64 100 25 10 60 26 5 4 54 100 77 18 79 97 100 100 100 100 88 43 8 2 0 0 0 2 5 7 27 59 58 96 74 100
75 90 100 100 100 100 100 98 78 42 23 41 5 93 100 100 99 74 72 100 100 100 100 100 100 100 100 100 90 45 5 0 0 0 1 21 15 100 100 73 72 56 100 100
42 82 86 45 48 72 91 27 100 96 95 99 67 68 100 98 100 85 94 100 97 98 72 96 100 100 100 100 81 5 4 0 0 0 0 2 21 74 58 29 96 93 91 97
100 100 85 66 61 89 100 100 100 100 100 100 100 100 100 68 100 100 91 65 51 70 62 66 88 100 100 100 82 11 5 0 0 0 0 0 3 4 6 5 5 43 87 99
99 97 93 98 100 100 100 100 100 100 100 100 100 96 100 99 79 95 100 100 100 100 100 100 100 100 100 100 97 33 5 3 0 0 0 0 0 4 4 5 1 0 5 20
6 83 35 74 100 100 89 100 100 79 99 100 100 97 100 100 100 100 100 100 100 100 100 100 100 100 100 100 100 27 9 0 0 0 0 0 0 0 0 0 5 5 5 5
95 75 62 99 89 98 100 100 100 100 100 100 100 100 100 100 100 100 100 100 100 100 100 100 100 100 100 100 51 38 5 0 0 0 0 0 0 0 0 3 3 3 0 0
43 44 11 40 100 93 100 100 100 100 100 100 100 100 100 100 100 100 100 100 100 100 100 100 100 100 100 92 42 5 1 0 0 0 0 0 0 0 0 0 2 0 0 0
5 46 80 5 90 100 100 100 100 100 100 100 100 100 100 100 100 100 100 100 100 100 100 100 100 100 100 100 100 51 6 5 43 4 46 7 0 0 2 5 5 5 44 93
2 5 20 78 68 65 36 70 100 100 100 100 100 100 100 92 100 100 100 100 100 100 100 100 100 100 100 100 100 100 100 100 90 30 100 5 1 0 3 5 5 91 100 100
5 5 5 8 92 100 25 61 99 100 100 100 100 100 100 100 100 100 100 100 100 100 100 100 100 100 100 100 100 100 100 100 100 100 86 17 5 0 5 5 87 90 100 100
5 5 9 6 92 99 100 100 99 93 100 65 83 96 100 100 100 100 100 100 97 85 100 100 100 96 100 100 100 100 100 100 100 100 83 7 5 5 26 26 67 100 100 100
60 72 93 36 91 100 80 83 100 100 100 90 96 52 70 77 100 100 100 100 100 86 81 98 100 100 100 100 100 99 61 12 8 49 97 6 6 40 49 94 99 100 100 100
86 46 71 88 44 100 100 100 100 100 100 100 100 100 95 84 99 100 100 100 100 100 100 97 78 79 87 98 100 91 75 7 28 19 8 22 72 68 92 100 100 100 100 100
77 85 74 43 7 23 100 100 100 100 100 100 100 100 100 100 100 100 100 100 99 100 100 100 100 100 100 94 100 92 81 14 34 55 76 98 100 100 100 100 100 100 100 100
13 18 76 64 66 87 95 99 100 100 100 100 100 100 100 100 100 100 100 100 100 100 100 100 100 100 86 64 72 84 38 16 36 81 65 100 100 100 100 100 100 100 100 100

GFSCGP_prec_cloud_102.txt.gz
Cloud_Cover
5 62 100 100 100 100 100 100 35 100 100 100 100 100 100 100 100 100 100 97 40 5 86 58 100 100 100 100 100 100 86 100 100 100 100 100 100 82 100 100 100 100 100 100
5 81 100 100 100 100 100 35 98 98 100 100 100 100 100 100 100 100 100 100 88 58 88 6 5 25 100 100 100 100 100 100 100 100 100 100 100 100 64 100 100 100 100 100
79 11 100 100 100 100 100 71 23 92 100 100 100 100 100 100 100 100 100 100 100 100 56 79 23 56 33 96 100 100 100 100 100 100 100 100 96 99 100 100 100 100 100 100
22 56 100 100 100 100 100 98 100 100 100 100 100 100 100 100 100 100 100 100 100 100 100 100 100 44 70 5 36 100 100 100 100 100 100 100 100 100 100 99 100 100 100 100
32 78 100 100 100 100 100 100 89 100 91 100 100 100 100 100 100 100 100 100 100 100 100 82 100 82 5 10 9 5 28 98 100 100 100 100 99 95 99 100 100 100 100 100
100 95 100 100 100 100 100 100 94 69 100 100 100 100 100 100 100 100 100 100 100 100 100 100 85 78 5 5 51 5 4 91 30 85 81 100 100 84 57 86 100 100 100 100
99 100 100 100 100 100 100 100 100 100 100 100 100 100 100 100 100 100 100 100 100 100 90 99 58 13 22 69 66 100 83 78 89 40 20 32 100 100 97 100 100 100 99 100
100 100 100 100 100 100 100 100 100 100 58 100 100 100 100 100 100 100 100 100 100 100 100 100 90 100 100 18 1 8 23 98 51 39 6 4 0 12 100 100 100 100 100 50
100 100 92 96 100 100 100 100 100 57 7 96 100 100 100 100 100 100 100 100 100 100 100 100 100 100 100 72 93 69 90 38 100 100 72 5 5 2 5 8 96 100 100 100
98 94 88 99 100 63 100 100 100 100 97 80 42 100 100 100 100 100 100 100 98 99 100 100 100 100 83 100 87 4 31 82 62 10 11 3 0 0 0 0 0 7 62 97
45 34 67 22 100 100 100 100 88 100 78 5 32 92 100 100 100 100 100 100 100 63 56 92 100 100 100 100 100 100 100 79 7 5 0 4 5 0 0 2 3 5 5 65
63 98 100 100 63 100 100 95 22 6 6 65 9 11 100 59 100 100 100 81 100 100 100 100 100 98 26 9 85 100 20 93 8 5 6 9 1 0 5 19 5 67 53 5
94 100 89 100 79 87 74 21 37 5 5 69 11 3 2 4 4 18 85 100 43 14 46 24 82 92 42 86 100 100 96 28 53 61 26 5 4 3 5 5 7 25 72 34
96 100 89 96 100 100 98 100 60 5 6 40 36 4 4 5 0 4 2 0 3 33 58 79 23 14 5 84 49 98 100 100 100 100 61 5 0 0 2 7 35 18 5 5
90 89 100 98 79 100 12 86 88 95 100 45 68 55 50 5 94 99 87 34 5 5 28 100 96 100 100 100 100 100 100 100 100 100 58 5 0 0 0 2 4 5 5 3
23 62 84 100 100 85 100 38 100 96 100 100 96 100 100 99 100 95 100 100 100 100 11 100 100 100 100 100 100 100 100 100 100 100 36 3 0 0 0 0 0 0 0 0
100 29 96 98 100 100 99 100 40 67 93 100 91 100 100 100 100 100 100 100 100 100 100 100 100 100 100 100 99 99 100 100 100 56 5 5 4 0 0 0 1 5 5 5
36 5 50 64 100 91 93 100 81 74 100 98 100 100 100 100 100 100 100 100 100 100 100 100 100 100 100 100 100 100 100 100 100 89 75 20 4 1 0 0 0 0 0 0
5 9 15 66 93 50 72 100 100 100 100 100 100 100 100 100 100 100 100 100 100 100 100 100 100 100 100 100 100 100 100 100 100 100 78 5 5 0 4 2 4 5 4 5
5 5 5 6 8 55 100 100 100 100 100 100 100 100 100 100 100 100 100 100 100 100 100 100 100 100 100 100 100 100 100 100 100 100 8 5 5 7 4 5 5 88 5 68
5 5 5 11 36 39 27 100 100 100 100 100 100 100 100 100 100 100 100 100 100 100 100 100 100 100 100 100 100 100 100 100 100 64 91 100 86 90 87 12 92 45 30 100
5 5 8 5 5 46 11 80 85 71 95 100 100 100 100 100 100 100 100 100 100 100 100 100 100 100 100 100 100 100 100 100 100 100 100 100 100 100 100 100 90 83 94 100
42 17 35 44 30 5 74 19 94 90 90 76 100 97 100 100 100 100 100 100 100 100 100 100 100 100 100 100 100 100 100 100 100 100 100 100 100 100 92 99 85 97 100 100
5 64 79 12 5 27 43 99 92 100 100 100 100 100 97 99 94 100 100 100 100 100 100 100 100 100 100 100 100 100 100 100 100 78 100 97 83 67 72 99 100 100 100 100
17 65 5 5 5 17 68 68 97 100 100 100 100 100 100 100 100 100 100 98 100 100 100 100 100 100 97 100 100 100 100 100 100 96 74 71 86 100 100 100 100 100 100 100
5 6 40 94 28 8 84 85 81 95 99 100 100 100 100 100 100 100 100 100 100 100 100 100 98 100 100 100 100 100 98 98 87 66 87 84 78 80 97 100 100 100 100 100

GFSCGP_prec_cloud_105.txt.gz
Cloud_Cover
12 5 28 100 100 100 100 100 100 100 100 100 100 100 100 100 100 100 100 100 100 100 100 100 100 100 100 100 100 100 100 100 100 100 100 100 100 100 100 100 100 100 100 100
49 5 35 100 100 100 100 100 100 100 100 100 100 100 100 100 100 100 100 100 99 100 100 100 100 100 100 100 100 100 100 100 100 100 100 100 100 100 100 100 100 100 100 100
25 4 91 100 100 100 100 81 100 100 98 100 100 100 100 100 100 100 100 71 89 89 100 94 29 100 100 100 100 100 100 100 100 100 100 100 100 100 100 100 100 100 99 100
7 98 100 100 100 97 100 100 91 100 100 100 100 100 100 100 100 100 100 100 80 95 98 100 100 57 100 100 100 100 100 100 100 100 100 100 100 100 100 100 100 100 100 100
6 100 100 100 100 100 100 100 83 100 100 100 100 100 100 100 100 100 100 86 31 98 14 77 100 100 100 100 100 100 100 100 100 100 100 100 100 100 100 100 100 100 100 100
69 100 100 100 98 100 100 99 98 100 100 100 100 100 100 100 100 100 100 100 97 85 77 99 100 100 100 100 100 100 100 100 100 100 100 100 100 100 100 100 100 71 98 100
100 100 100 100 100 100 100 95 100 100 100 100 100 100 100 100 100 100 100 100 100 100 100 74 100 100 60 99 100 100 100 100 100 100 100 64 73 100 100 100 100 100 100 100
100 100 100 100 100 100 100 100 100 100 100 100 100 100 100 100 100 100 100 100 100 100 100 99 99 100 69 50 100 100 71 100 100 97 98 97 100 100 100 100 100 100 100 100
100 98 100 100 100 100 100 99 100 100 100 100 100 100 100 100 100 100 100 100 100 100 100 100 66 82 100 97 82 71 87 100 99 43 16 68 64 78 100 100 100 100 100 100
100 100 98 100 97 100 100 100 100 26 99 100 100 100 100 100 100 100 100 100 100 100 100 100 100 100 70 45 34 7 9 72 56 19 5 11 36 80 89 43 66 100 65 54
14 73 71 100 100 100 100 100 100 73 14 100 100 100 100 100 100 100 100 100 100 100 100 100 100 100 96 58 26 3 4 7 32 7 5 38 43 85 100 53 60 63 94 25
10 78 100 100 60 29 100 60 100 98 70 84 99 100 100 100 100 100 100 100 100 99 100 100 100 100 100 97 25 34 5 73 94 90 58 36 11 5 11 7 5 5 5 30
100 78 71 7 32 79 100 100 99 94 23 100 97 100 100 100 100 100 100 100 100 100 100 100 100 100 100 100 100 100 65 81 75 4 0 2 11 61 50 0 1 12 34 18
96 94 100 87 100 98 68 100 73 32 8 66 47 42 99 100 100 100 100 100 100 100 100 100 100 100 100 100 100 100 39 8 4 21 42 36 7 2 0 0 53 51 88 68
100 100 100 100 95 100 100 66 14 5 5 8 12 5 5 91 100 100 100 100 100 100 98 100 100 72 100 100 100 100 48 99 100 100 100 98 20 27 8 30 60 10 5 5
94 64 37 61 86 99 23 33 29 36 9 5 5 80 84 100 97 100 100 100 100 9 8 6 5 5 5 14 100 100 100 80 13 11 79 5 92 100 100 100 100 100 5 4
100 31 42 26 8 70 13 8 24 87 99 62 52 56 100 97 100 75 93 100 100 100 67 95 100 100 100 100 100 100 100 100 79 51 84 24 100 100 100 100 100 95 5 3
31 5 14 99 77 62 96 90 28 60 94 99 55 98 100 100 100 82 11 45 79 79 22 89 58 94 100 100 100 81 92 78 100 100 96 100 100 100 100 100 100 5 5 0
5 5 5 19 32 66 52 74 99 84 47 34 78 63 100 98 94 98 100 100 61 97 94 100 100 100 99 24 100 100 89 100 100 100 100 100 100 100 100 75 56 21 5 1
5 7 5 5 5 41 56 41 27 85 100 80 96 100 96 94 100 45 98 100 100 100 98 38 95 100 100 100 100 100 100 100 100 100 100 100 100 100 100 100 100 97 18 25
5 5 5 5 9 5 21 88 94 91 50 96 99 36 70 100 100 100 100 100 100 100 100 100 98 56 100 100 100 100 100 100 100 100 100 100 100 100 100 100 100 98 79 71
5 5 5 5 5 5 5 5 96 81 100 100 97 100 98 100 100 100 100 100 100 100 100 100 100 100 100 100 100 100 100 100 100 100 100 100 100 100 100 100 100 49 16 81
14 5 20 5 5 5 5 5 5 5 19 86 100 93 100 100 100 68 64 100 100 78 82 100 100 100 100 100 100 100 100 100 100 100 100 100 100 100 100 97 41 79 95 100
5 5 6 5 5 5 5 12 33 5 5 5 11 84 76 98 100 100 77 99 100 100 100 100 90 100 100 100 100 100 100 100 100 100 100 100 100 96 47 99 100 100 100 100
22 6 5 5 5 5 5 5 5 5 5 6 42 42 25 57 100 98 98 96 100 100 100 100 100 100 100 100 100 100 100 100 100 100 100 100 100 100 100 100 100 87 45 62
10 5 5 50 5 14 30 22 45 19 11 6 40 82 100 100 100 86 99 100 100 90 95 100 100 100 100 100 100 100 100 100 100 100 100 100 100 100 100 100 100 95 97 100

GFSCGP_prec_cloud_108.txt.gz
Cloud_Cover
5 8 21 5 26 100 100 100 100 100 100 100 100 100 100 100 100 100 100 92 100 47 100 100 100 100 100 100 100 100 100 100 100 100 100 100 100 100 100 100 100 100 100 100
5 27 5 5 61 100 100 100 100 49 100 100 100 100 100 100 100 100 100 100 99 100 100 100 100 100 100 100 100 100 100 100 100 100 100 100 100 100 100 100 100 100 100 100
46 18 5 82 100 100 100 100 97 29 100 100 100 100 100 100 100 100 100 100 97 100 100 100 100 100 100 100 100 100 100 100 100 100 100 100 100 100 100 100 100 100 100 100
13 6 49 100 100 100 98 100 100 100 100 100 100 100 100 100 100 97 100 100 100 100 100 100 100 100 100 100 100 100 100 100 100 100 100 100 100 100 100 100 100 100 100 100
4 94 100 100 100 100 100 100 100 100 100 100 100 100 100 100 100 100 100 100 47 100 100 100 100 100 100 100 100 100 100 100 100 100 100 100 100 100 100 100 100 100 100 100
72 100 96 100 100 100 100 90 100 100 100 100 100 100 100 100 100 100 100 100 100 96 100 100 100 100 100 100 100 100 100 100 100 100 100 100 100 100 100 100 100 100 100 69
100 100 100 100 100 100 100 100 100 100 100 98 100 100 100 100 100 100 100 100 96 90 100 100 88 100 100 100 100 100 100 100 100 100 100 100 100 100 100 100 100 100 100 100
100 100 100 100 100 100 100 100 100 100 100 99 100 100 100 100 100 100 100 100 100 72 100 100 100 100 100 100 100 100 100 100 100 100 100 100 100 100 100 100 100 100 100 100
98 90 100 100 99 100 100 100 100 100 100 96 100 100 100 100 100 100 100 100 100 100 100 100 100 100 100 100 100 100 100 100 100 100 100 100 100 100 100 100 100 100 100 100
82 80 84 100 100 100 100 97 100 100 100 100 100 100 100 100 100 100 100 100 100 100 100 87 100 100 100 100 100 100 100 100 100 100 100 100 100 100 100 100 100 100 100 100
32 24 71 90 100 100 100 94 100 100 100 100 100 100 100 100 100 100 100 100 100 100 100 100 95 100 100 100 100 100 100 100 99 100 99 100 100 100 100 100 100 100 100 100
24 31 100 100 100 100 100 100 100 100 100 100 100 100 100 60 100 100 100 100 100 100 100 100 100 100 100 89 100 100 90 100 100 100 100 100 100 100 100 100 100 100 100 100
84 29 99 99 100 85 100 97 100 100 100 100 100 100 100 100 100 100 100 100 100 100 100 100 100 100 100 92 57 87 65 6 23 98 100 100 100 100 100 100 98 95 92 70
87 100 93 100 100 98 98 100 100 87 100 100 100 100 100 100 100 100 100 100 100 100 100 100 100 100 100 100 48 80 5 4 26 14 5 29 95 35 17 64 79 98 64 46
70 98 100 100 100 63 93 13 17 20 100 100 100 100 100 100 100 100 100 100 100 100 100 100 100 100 100 100 100 99 79 5 3 0 1 5 26 99 100 62 12 55 99 73
78 53 9 22 48 46 79 77 45 26 5 37 100 100 100 100 100 100 100 100 100 100 100 100 100 100 100 100 100 100 100 100 77 11 7 87 4 6 52 10 5 5 5 8
89 7 5 5 5 5 12 8 6 75 33 6 81 93 100 100 100 100 100 100 100 100 81 79 100 86 98 87 98 99 99 100 100 94 5 52 43 10 99 52 5 19 51 11
31 5 5 5 11 40 14 67 11 76 88 24 60 72 74 69 100 100 100 100 96 95 80 100 81 26 45 99 88 58 100 100 100 27 79 100 100 99 61 58 4 87 100 80
5 5 5 5 5 5 18 77 90 96 29 73 100 80 93 83 83 83 59 96 76 99 69 44 45 100 94 64 65 14 100 100 100 100 92 100 100 18 47 55 100 60 97 100
11 6 5 5 5 8 49 6 98 92 91 80 81 70 41 99 99 79 88 100 100 100 100 89 62 52 80 96 100 100 100 100 100 89 51 42 55 100 100 100 100 95 100 100
5 5 5 5 8 5 5 5 67 5 5 9 97 87 92 85 59 85 92 98 99 100 100 100 100 100 100 100 100 81 59 40 96 100 100 100 100 100 100 99 96 100 100 100
5 5 5 5 5 22 5 5 5 12 40 7 5 99 100 64 100 100 100 100 100 100 100 100 100 100 100 100 100 100 77 93 100 100 100 100 100 100 100 100 100 100 100 100
5 5 5 54 4 5 5 5 5 5 5 5 5 5 35 100 89 96 72 100 100 100 100 100 100 100 100 100 100 100 100 100 100 100 100 100 100 100 100 100 100 100 100 100
5 5 5 45 21 5 5 5 5 5 5 5 5 5 5 16 99 100 100 100 83 100 100 100 100 100 100 100 100 100 100 100 100 100 100 100 100 100 100 100 100 100 99 100
5 5 5 11 5 5 5 5 5 5 5 5 5 5 5 38 100 99 100 100 100 100 90 100 100 100 100 100 100 100 100 100 100 100 100 100 100 100 100 100 100 100 100 100
4 5 5 52 5 5 5 5 5 5 5 5 5 6 40 100 100 100 78 61 100 100 100 100 100 91 61 92 73 93 99 100 100 100 100 100 100 100 100 100 100 100 100 98

GFSCGP_prec_cloud_111.txt.gz
Cloud_Cover
100 100 9 10 14 79 68 100 86 29 100 100 67 76 100 100 100 100 100 100 100 100 100 100 100 100 100 100 100 100 100 100 100 100 100 100 38 28 10 76 100 100 100 100
48 36 5 2 5 61 99 100 54 73 54 100 100 100 100 100 100 96 100 100 100 100 100 100 100 100 100 100 100 100 100 100 100 100 100 100 100 83 58 99 100 100 100 100
45 1 13 83 91 100 100 100 100 100 100 100 100 100 100 100 100 100 100 100 100 100 100 100 100 100 100 100 100 100 100 100 100 100 100 100 100 100 100 100 100 100 100 100
12 22 100 90 100 100 100 100 100 100 100 100 100 100 100 100 100 100 98 100 100 100 100 100 100 100 100 100 100 100 100 100 100 100 100 100 100 92 88 100 100 100 100 100
88 100 99 87 94 100 100 100 100 100 100 100 100 100 100 100 100 100 100 98 100 100 100 100 100 100 100 100 100 100 100 100 100 100 100 100 100 100 100 100 100 100 100 100
99 88 100 100 100 100 100 100 85 100 100 100 100 100 100 100 100 100 100 100 100 97 97 100 100 100 100 100 100 100 100 100 100 100 100 100 100 100 100 100 100 100 100 100
100 97 100 100 100 100 100 100 99 100 100 100 100 100 100 100 100 100 100 100 100 65 100 100 100 100 100 100 100 100 100 100 100 100 100 100 100 100 100 100 100 100 100 100
98 100 100 100 100 100 100 100 94 100 100 100 100 100 100 100 100 100 100 100 100 100 100 100 100 100 100 100 100 100 100 100 100 100 100 100 100 100 100 100 100 100 100 100
97 100 87 99 100 97 100 100 100 100 100 100 100 100 100 100 100 100 100 100 100 100 100 70 100 100 100 100 100 100 100 100 100 100 100 100 100 100 100 100 100 100 100 100
100 100 86 100 100 96 100 100 100 100 100 100 100 100 100 100 100 100 100 90 100 100 100 100 100 100 100 100 100 100 100 100 100 100 100 100 100 100 100 100 100 100 100 100
100 100 80 100 99 100 100 100 100 100 100 100 100 100 100 100 94 100 100 100 100 100 100 100 100 100 100 100 100 100 100 100 100 100 100 100 100 100 100 100 100 100 100 100
86 17 97 97 94 100 100 100 100 100 100 99 100 100 100 100 100 100 99 100 100 100 100 100 100 100 100 100 100 100 100 100 100 100 100 100 100 100 100 100 100 100 100 100
19 51 95 96 100 100 100 85 100 100 100 100 100 100 100 100 100 100 100 100 100 100 100 100 100 100 100 100 100 100 100 100 100 100 100 100 100 100 100 100 100 100 86 87
94 35 46 86 64 100 93 100 100 100 100 100 100 100 100 100 100 100 100 100 100 100 100 100 100 100 100 100 100 100 100 100 100 100 100 100 100 100 100 100 100 92 100 100
16 99 81 89 82 100 100 91 100 100 100 100 100 100 100 100 100 100 100 100 100 100 100 100 100 100 100 100 100 100 100 100 100 100 100 100 100 100 100 100 100 100 100 100
5 55 95 100 73 5 6 66 5 100 100 82 100 49 10 10 99 100 100 100 100 100 100 100 100 100 100 100 100 87 100 100 100 100 100 100 100 100 100 100 100 100 100 100
5 5 5 9 9 5 10 7 26 18 94 100 64 94 68 54 17 91 100 41 99 100 90 100 100 100 92 86 100 5 96 100 100 100 100 100 100 100 100 100 100 100 100 100
5 5 5 5 2 10 23 74 84 100 77 17 95 76 99 96 67 19 100 100 99 99 100 50 100 100 100 100 75 97 89 38 70 68 93 100 100 100 100 100 100 100 100 100
5 5 5 5 5 5 5 62 100 97 72 35 99 94 92 58 7 10 35 100 100 100 63 59 100 64 90 97 89 100 33 100 31 5 5 5 11 63 14 5 73 10 5 57
36 5 5 5 5 5 5 5 32 6 81 62 5 5 30 94 100 26 100 100 56 39 100 47 12 100 100 92 100 100 100 67 7 15 100 78 10 72 83 10 74 100 100 100
5 5 5 5 5 5 5 4 5 3 46 54 7 5 5 10 64 72 65 28 80 82 19 99 97 45 12 25 22 7 56 99 100 100 85 21 100 94 5 51 95 82 83 80
5 6 5 5 5 5 5 5 2 4 18 5 5 5 4 2 4 4 4 5 56 98 100 100 98 100 100 100 100 100 64 8 5 78 6 6 77 100 7 95 100 44 98 100
4 2 4 6 5 4 4 5 5 5 5 5 3 1 3 5 5 5 6 5 5 44 25 5 23 89 100 100 100 100 95 89 64 5 26 90 71 98 98 97 100 98 100 100
4 4 5 5 5 5 4 0 5 5 1 7 5 5 3 5 9 100 92 16 38 72 90 87 54 100 100 100 100 100 100 100 86 100 100 100 100 100 100 100 100 99 84 100
5 5 5 5 3 48 5 4 3 5 5 5 5 80 86 65 99 99 100 100 96 89 100 100 100 100 100 100 100 100 100 100 100 100 100 100 100 100 100 100 100 100 100 100
4 4 5 5 5 5 23 5 5 5 5 5 5 5 10 20 87 100 100 93 91 89 62 99 100 64 96 100 100 100 100 100 100 100 100 100 100 100 100 100 100 100 100 100

GFSCGP_prec_cloud_114.txt.gz
Cloud_Cover
5 52 46 72 94 95 100 100 93 76 88 81 84 56 57 44 98 100 100 100 100 100 100 100 100 100 100 100 100 100 100 100 100 100 94 100 100 100 100 100 97 43 100 100
64 77 5 15 80 100 100 100 100 100 44 86 24 72 90 23 86 100 100 100 72 89 100 100 100 100 100 100 100 100 100 100 100 100 73 99 100 100 100 99 100 100 100 100
90 12 5 46 99 100 100 100 100 100 100 55 97 100 84 83 100 50 100 74 71 99 100 100 100 100 100 100 100 100 100 100 100 99 69 86 99 98 91 100 100 100 100 100
48 5 73 94 96 100 100 100 100 100 100 95 86 99 75 97 97 89 99 30 100 100 100 100 100 100 100 100 100 100 100 100 100 100 100 100 100 100 89 100 100 100 100 100
8 97 100 60 100 100 100 100 100 100 100 100 64 100 100 100 100 96 79 99 99 100 100 100 100 100 100 100 100 100 100 100 100 100 100 100 100 100 100 100 100 100 100 100
40 35 80 100 100 100 100 100 100 100 100 100 100 100 100 100 100 95 88 100 100 99 100 100 100 100 100 100 100 100 100 100 100 100 100 100 100 100 100 100 100 100 100 100
100 98 100 100 100 98 100 100 100 100 100 100 100 100 100 100 100 81 95 95 66 100 100 100 100 100 100 100 100 100 100 100 100 100 100 100 100 100 100 100 100 100 100 83
93 100 100 98 100 100 100 100 100 100 100 100 100 100 100 100 100 100 97 100 100 100 100 100 100 100 100 100 100 100 100 100 100 100 100 100 100 100 100 100 100 100 100 100
100 100 100 100 100 100 100 100 100 100 100 100 100 100 100 100 100 97 85 100 100 100 100 100 100 100 100 100 100 100 100 100 100 100 100 100 100 100 100 100 100 100 100 100
100 100 98 100 100 99 100 100 100 100 100 100 100 100 100 100 100 100 100 100 100 100 100 100 100 100 100 100 100 100 100 100 100 100 100 100 100 100 100 100 100 100 100 100
100 100 100 100 92 100 100 100 96 100 100 100 100 100 100 100 100 100 100 100 100 100 100 100 100 100 100 100 100 100 100 100 100 100 100 100 100 100 100 100 100 100 100 100
96 100 100 99 100 98 100 100 94 97 98 78 100 100 100 100 100 100 100 100 100 100 100 100 100 100 100 100 100 100 100 100 100 100 100 100 100 100 100 100 100 100 100 100
88 98 100 100 100 66 100 100 100 100 100 100 100 100 100 100 100 100 100 100 100 100 100 100 100 100 100 100 100 100 100 100 100 100 100 100 100 100 100 100 100 100 100 100
17 100 100 100 100 99 100 97 100 100 100 100 100 100 100 100 100 100 100 100 100 100 100 100 100 100 100 100 100 100 100 100 100 100 100 100 100 100 100 100 100 100 100 100
8 70 100 100 100 93 100 75 100 100 92 100 100 100 100 100 100 71 100 100 100 87 100 97 100 100 100 100 100 100 100 100 100 100 100 100 100 100 100 100 100 100 100 100
5 20 10 65 97 100 100 69 24 99 99 100 57 100 91 100 100 100 100 100 100 100 100 100 100 100 100 100 100 100 100 100 100 100 100 100 100 100 100 100 100 100 100 100
5 12 5 20 5 5 19 100 80 13 49 92 53 22 100 94 100 88 72 57 100 100 100 74 100 100 100 100 100 100 100 100 100 100 100 100 100 100 100 100 100 100 100 100
5 5 5 4 0 17 89 82 99 79 68 71 100 5 66 100 98 5 7 48 98 100 100 78 100 100 100 100 100 100 100 100 100 100 100 100 100 100 100 100 100 100 100 100
5 5 4 5 5 10 5 45 94 57 48 73 98 62 100 56 90 100 85 5 26 91 93 100 79 100 82 100 100 100 100 100 100 100 100 100 100 100 100 100 100 100 100 100
4 4 4 4 4 5 5 5 5 7 82 5 5 5 5 3 18 98 67 72 41 57 99 29 12 81 94 5 8 98 97 100 100 100 100 100 100 100 100 100 100 100 100 100
2 2 5 5 4 4 0 0 3 4 59 12 5 5 1 0 3 66 49 99 100 70 71 100 98 100 100 90 21 5 100 100 100 100 100 100 100 98 100 100 100 100 100 100
4 2 2 5 5 4 0 1 2 2 5 5 5 5 0 4 5 57 24 54 62 77 48 47 100 100 100 81 95 87 24 40 39 89 100 100 100 93 100 100 100 100 100 100
3 0 4 2 3 0 0 2 3 5 5 4 0 0 0 0 4 5 5 10 6 24 34 5 2 3 82 100 100 82 96 92 100 98 78 33 18 6 9 35 39 9 48 99
0 0 3 1 0 5 5 5 2 0 0 0 0 0 2 2 2 7 5 5 5 5 5 5 26 34 75 98 100 100 100 100 79 82 78 79 96 99 93 31 38 99 94 6
1 2 0 0 2 5 5 7 2 3 0 0 0 0 0 2 3 5 5 14 78 19 5 5 5 5 7 32 41 74 100 100 100 100 100 100 100 100 100 100 100 100 94 84
5 4 3 5 13 5 5 5 60 26 4 5 4 1 0 5 4 5 6 41 44 6 5 5 5 5 5 5 89 91 90 100 100 100 100 100 100 100 100 100 100 100 100 100

GFSCGP_prec_cloud_117.txt.gz
Cloud_Cover
98 74 97 69 100 100 96 96 93 37 47 98 80 90 5 82 81 91 44 97 92 89 100 100 86 100 100 100 100 100 100 100 100 100 100 100 100 100 100 100 100 100 100 100
89 85 94 89 30 5 19 78 69 62 100 96 93 67 100 100 5 34 61 6 5 100 83 62 77 100 100 100 100 100 100 100 100 100 100 100 100 100 100 99 100 100 100 100
100 16 7 22 37 68 100 100 100 100 95 94 62 64 96 95 71 98 21 61 72 100 87 100 98 91 100 100 100 100 100 100 100 100 100 100 100 100 100 100 100 100 100 100
40 5 5 11 90 100 98 100 100 99 100 95 91 87 85 92 19 48 19 39 100 100 91 100 100 58 100 100 100 100 100 100 100 100 100 100 100 100 100 100 100 95 96 99
8 6 66 66 100 100 100 100 100 100 100 100 100 100 100 100 92 40 95 84 100 100 98 86 72 100 100 100 100 100 100 100 100 100 100 100 100 100 100 100 100 94 100 100
96 68 88 72 70 93 100 100 100 100 100 100 100 100 100 100 100 62 100 96 100 99 100 87 100 100 100 100 100 100 100 100 100 100 100 100 100 100 100 100 100 100 100 100
96 92 94 82 100 98 100 100 100 100 100 100 100 100 100 100 100 100 100 100 100 100 98 100 100 100 100 100 100 100 100 100 100 100 100 100 100 100 100 100 100 100 100 100
99 98 100 100 100 100 100 100 100 100 100 91 99 100 100 100 100 100 100 100 100 100 100 100 100 100 100 100 100 100 100 100 100 100 100 100 100 100 100 100 100 100 100 100
97 100 100 100 100 100 100 100 100 100 100 100 100 100 100 100 100 100 100 100 100 100 100 100 100 100 100 100 100 100 100 100 100 100 100 100 100 100 100 100 100 100 100 100
100 100 100 100 100 95 100 100 100 100 100 100 100 100 100 100 100 100 100 100 100 100 100 100 100 100 100 100 100 100 100 100 100 100 100 100 100 100 100 100 100 100 100 100
100 100 100 100 100 100 100 100 100 100 100 100 100 100 100 100 100 100 100 100 100 100 100 100 100 100 100 100 100 100 100 100 100 100 100 100 100 100 100 100 100 100 100 100
100 98 100 97 100 100 100 100 100 100 100 100 100 100 100 100 100 100 100 100 100 100 100 100 100 100 100 100 100 100 100 100 100 100 100 100 100 100 100 100 100 100 100 100
100 100 100 95 100 100 100 94 92 100 100 100 100 100 100 100 100 100 100 100 100 100 100 100 100 100 100 100 100 100 100 100 100 100 100 100 100 100 100 100 100 100 100 100
100 100 100 100 100 100 100 96 100 100 98 100 100 100 100 99 100 100 100 100 100 100 100 100 100 100 100 100 100 100 100 100 100 100 100 100 100 100 100 100 100 100 100 100
100 100 100 100 100 100 100 93 100 100 100 100 100 100 100 100 100 100 100 100 100 100 100 100 100 100 100 100 100 100 100 100 100 100 100 100 100 100 100 100 100 100 100 100
8 91 47 100 100 96 96 100 100 100 100 100 94 100 100 100 100 100 100 100 100 100 100 100 100 100 100 100 100 100 100 100 100 100 100 100 100 100 100 100 100 100 100 100
42 65 92 31 5 8 62 94 100 71 82 100 72 90 100 100 95 100 100 100 100 100 100 100 100 100 100 100 100 100 100 100 100 100 100 100 100 100 100 100 100 100 100 100
5 5 17 49 1 58 77 85 86 71 76 96 22 21 27 93 100 100 80 100 100 100 100 100 100 100 100 100 100 100 100 100 100 100 100 100 100 100 100 100 100 100 100 100
5 5 38 76 28 8 5 54 94 89 44 71 97 5 5 4 6 100 86 66 84 100 100 100 100 100 100 100 100 100 100 100 100 100 100 100 100 100 100 100 100 100 100 100
2 0 34 5 21 80 5 5 5 48 88 88 100 100 100 100 40 4 32 5 5 43 51 100 100 100 100 100 100 100 100 100 100 100 100 100 100 100 100 100 100 100 100 100
0 0 50 5 25 10 2 4 5 70 76 12 30 49 90 99 100 100 98 100 30 0 4 45 78 80 95 100 100 100 100 100 100 100 100 100 100 100 100 100 100 100 100 100
4 4 4 0 5 45 0 3 40 15 23 5 4 0 0 0 18 26 85 100 100 99 99 40 16 14 9 9 100 100 100 100 100 100 100 99 84 100 100 100 100 100 100 100
3 3 5 5 5 2 0 1 2 12 25 5 0 0 0 0 0 0 0 6 21 100 99 100 92 17 11 8 51 95 98 97 98 100 100 100 100 100 100 100 100 100 100 100
16 5 5 5 47 5 7 4 0 0 0 0 0 0 0 0 0 0 4 4 4 4 3 1 4 5 42 63 86 37 63 60 95 97 81 98 83 79 80 100 100 100 100 100
13 6 8 5 62 82 12 1 14 4 0 0 0 0 0 1 0 5 5 5 5 5 5 5 5 5 3 5 25 6 5 16 86 99 100 100 100 100 100 100 100 100 100 100
3 56 81 40 5 5 15 39 5 5 4 1 0 0 0 0 5 4 5 5 5 5 5 5 5 5 5 5 5 5 5 5 5 15 86 100 100 100 100 100 100 100 100 100

GFSCGP_prec_cloud_120.txt.gz
Cloud_Cover
26 70 34 5 18 15 60 26 5 4 0 94 1 0 0 26 13 12 90 74 62 1 5 11 27 29 5 80 100 100 100 100 100 100 100 100 100 100 100 100 100 100 100 100
97 58 5 8 91 75 5 5 85 58 72 99 44 6 57 71 28 3 10 100 85 11 91 28 77 0 5 100 100 100 100 100 100 100 100 100 100 100 100 100 100 100 100 100
95 4 30 60 5 5 5 70 27 85 95 64 78 8 0 0 6 63 53 43 53 80 67 49 5 24 69 100 100 100 100 100 100 100 100 100 100 100 100 100 100 100 100 100
15 4 4 14 50 96 50 100 100 100 100 90 89 95 94 21 1 11 100 100 62 8 22 72 15 98 100 100 100 100 100 100 100 100 100 100 100 100 100 100 100 100 100 99
62 6 57 61 53 94 20 87 100 100 100 100 96 100 93 57 5 51 66 100 99 13 100 78 100 100 100 100 100 100 100 100 100 100 100 100 100 100 100 100 100 100 100 100
96 5 68 33 73 100 100 100 100 100 100 100 100 100 100 100 100 91 48 100 40 86 98 97 20 100 100 100 100 100 100 100 100 100 100 100 100 100 100 100 100 100 100 100
34 28 74 100 100 97 100 100 99 100 99 100 100 100 100 100 100 100 90 100 96 93 98 13 36 95 100 100 100 100 100 100 100 100 100 100 100 100 100 100 100 64 100 100
45 98 100 100 100 100 100 100 100 100 100 100 100 100 100 100 100 100 100 100 100 96 64 35 98 100 100 100 100 100 100 100 100 100 100 100 100 100 100 100 100 100 100 100
100 100 100 100 100 100 100 100 100 100 98 100 100 100 100 100 100 100 100 100 100 100 100 11 46 100 100 100 100 100 100 100 100 100 100 100 100 100 100 100 100 100 100 100
100 100 100 100 100 100 100 100 100 100 100 100 100 100 100 100 100 100 100 100 100 100 100 89 98 100 100 100 100 100 100 100 100 100 100 100 100 100 100 100 100 100 100 100
100 100 100 100 100 100 100 100 100 100 100 100 100 100 100 100 100 100 100 100 100 100 100 100 100 100 100 100 100 100 100 100 100 100 100 100 100 100 100 100 100 100 100 100
100 100 100 100 100 100 100 100 100 100 100 100 100 100 100 100 100 100 100 100 100 100 100 100 100 100 100 100 100 100 100 100 100 100 100 100 100 100 100 100 100 100 100 100
83 77 98 100 100 100 80 100 100 100 100 100 100 100 100 100 100 100 100 100 100 100 100 100 100 100 100 100 100 100 100 100 100 100 100 100 100 100 100 100 100 100 100 100
100 100 97 100 100 100 100 100 100 100 100 100 100 100 100 100 100 100 100 100 100 100 100 100 100 100 100 100 100 100 100 100 100 100 100 100 100 100 100 100 100 100 100 100
100 100 100 100 100 99 100 94 100 100 100 100 100 100 100 100 100 100 100 100 100 100 100 100 100 100 100 100 100 100 100 100 100 100 100 100 100 100 100 100 100 100 100 100
100 100 100 100 100 88 55 89 100 100 100 100 100 100 100 100 100 100 100 100 100 100 100 100 100 100 100 100 100 100 100 100 100 100 100 100 100 100 100 100 100 100 100 100
5 19 72 11 4 18 57 97 95 91 94 83 51 98 100 100 100 100 100 100 100 100 100 100 100 100 100 100 100 100 100 100 100 100 100 100 100 100 100 100 100 100 100 100
5 5 3 4 6 39 79 100 100 100 100 100 100 100 98 100 100 100 100 100 100 100 100 100 100 100 100 100 100 100 100 100 100 100 100 100 100 100 100 100 100 100 100 100
0 2 5 5 1 7 6 28 78 98 28 80 100 100 100 100 100 100 100 100 100 100 100 100 100 100 100 100 100 100 100 100 100 100 100 100 100 100 100 100 100 100 100 100
0 0 5 4 5 67 6 14 44 26 100 6 81 11 66 6 25 99 100 100 100 100 100 100 100 100 100 100 100 100 100 100 100 100 100 100 100 100 100 100 100 100 100 100
0 0 5 4 4 1 0 3 36 62 92 5 5 4 4 6 4 6 19 89 100 100 100 100 100 100 100 100 100 100 100 100 100 100 100 100 100 100 100 100 100 100 100 100
2 2 1 0 2 3 0 0 3 36 16 0 0 0 0 0 2 5 5 5 72 100 100 100 100 100 100 100 100 100 100 100 100 100 100 100 100 100 100 100 100 99 100 100
5 4 3 0 0 0 0 0 0 8 5 3 0 0 0 3 3 3 4 4 5 89 100 100 100 100 100 100 100 100 100 100 100 100 100 100 100 100 100 100 100 100 100 100
5 20 9 23 40 3 0 0 0 0 0 0 0 0 0 0 0 4 5 5 5 5 5 8 45 89 98 100 100 100 100 100 100 100 100 100 100 100 100 100 100 100 90 100
5 5 5 56 5 19 32 12 0 0 0 0 0 0 0 0 0 0 1 5 5 5 5 5 5 5 5 5 5 5 5 14 4 2 18 60 95 88 79 89 100 100 100 100
6 5 21 16 26 14 30 96 27 8 0 0 0 0 0 0 0 0 0 4 5 4 5 5 5 5 5 5 5 5 5 5 5 5 5 2 9 18 80 100 100 100 100 100